<?xml version="1.0" encoding="UTF-8" standalone="no" ?>
<gpx xmlns="http://www.topografix.com/GPX/1/1" xmlns:xsi="http://www.w3.org/2001/XMLSchema-instance" xsi:schemaLocation="http://www.topografix.com/GPX/1/1 http://www.topografix.com/GPX/1/1/gpx.xsd" version="1.1" creator="VisuGPX - https://www.visugpx.com">
  <metadata>
    <name>CAP MORGIOU</name>
    <desc><![CDATA[rando pédestre luminy/cap morgiou]]></desc>
  </metadata>
  <trk>
    <name><![CDATA[23-FEV-15 15:56:03]]></name>
    <trkseg>
      <trkpt lat="43.2293" lon="5.43703">
        <ele>190</ele>
        <time>2015-02-23T08:21:06Z</time>
      </trkpt>
      <trkpt lat="43.22929" lon="5.43703">
        <ele>190</ele>
        <time>2015-02-23T08:21:07Z</time>
      </trkpt>
      <trkpt lat="43.22925" lon="5.43707">
        <ele>191.92</ele>
        <time>2015-02-23T08:21:12Z</time>
      </trkpt>
      <trkpt lat="43.22909" lon="5.43716">
        <ele>190</ele>
        <time>2015-02-23T08:21:30Z</time>
      </trkpt>
      <trkpt lat="43.22908" lon="5.43716">
        <ele>185.67</ele>
        <time>2015-02-23T08:21:31Z</time>
      </trkpt>
      <trkpt lat="43.22907" lon="5.43716">
        <ele>193.36</ele>
        <time>2015-02-23T08:21:32Z</time>
      </trkpt>
      <trkpt lat="43.22906" lon="5.43717">
        <ele>188.08</ele>
        <time>2015-02-23T08:21:33Z</time>
      </trkpt>
      <trkpt lat="43.22905" lon="5.43717">
        <ele>190.48</ele>
        <time>2015-02-23T08:21:34Z</time>
      </trkpt>
      <trkpt lat="43.229" lon="5.43717">
        <ele>190.48</ele>
        <time>2015-02-23T08:21:40Z</time>
      </trkpt>
      <trkpt lat="43.22893" lon="5.4372">
        <ele>192.4</ele>
        <time>2015-02-23T08:21:55Z</time>
      </trkpt>
      <trkpt lat="43.22884" lon="5.43724">
        <ele>192.88</ele>
        <time>2015-02-23T08:22:08Z</time>
      </trkpt>
      <trkpt lat="43.2288" lon="5.43726">
        <ele>196.25</ele>
        <time>2015-02-23T08:22:12Z</time>
      </trkpt>
      <trkpt lat="43.2288" lon="5.43726">
        <ele>192.4</ele>
        <time>2015-02-23T08:22:13Z</time>
      </trkpt>
      <trkpt lat="43.22879" lon="5.43726">
        <ele>192.4</ele>
        <time>2015-02-23T08:22:14Z</time>
      </trkpt>
      <trkpt lat="43.2287" lon="5.43722">
        <ele>192.88</ele>
        <time>2015-02-23T08:22:27Z</time>
      </trkpt>
      <trkpt lat="43.22863" lon="5.43723">
        <ele>193.36</ele>
        <time>2015-02-23T08:22:35Z</time>
      </trkpt>
      <trkpt lat="43.22849" lon="5.43722">
        <ele>194.8</ele>
        <time>2015-02-23T08:22:53Z</time>
      </trkpt>
      <trkpt lat="43.22848" lon="5.43722">
        <ele>190.48</ele>
        <time>2015-02-23T08:22:54Z</time>
      </trkpt>
      <trkpt lat="43.22847" lon="5.43722">
        <ele>206.34</ele>
        <time>2015-02-23T08:22:55Z</time>
      </trkpt>
      <trkpt lat="43.22846" lon="5.43723">
        <ele>195.28</ele>
        <time>2015-02-23T08:22:56Z</time>
      </trkpt>
      <trkpt lat="43.22826" lon="5.43727">
        <ele>196.73</ele>
        <time>2015-02-23T08:23:17Z</time>
      </trkpt>
      <trkpt lat="43.22812" lon="5.43729">
        <ele>197.69</ele>
        <time>2015-02-23T08:23:30Z</time>
      </trkpt>
      <trkpt lat="43.22801" lon="5.43733">
        <ele>193.36</ele>
        <time>2015-02-23T08:23:41Z</time>
      </trkpt>
      <trkpt lat="43.22799" lon="5.43733">
        <ele>193.36</ele>
        <time>2015-02-23T08:23:43Z</time>
      </trkpt>
      <trkpt lat="43.22797" lon="5.43732">
        <ele>189.52</ele>
        <time>2015-02-23T08:23:46Z</time>
      </trkpt>
      <trkpt lat="43.22793" lon="5.43732">
        <ele>187.59</ele>
        <time>2015-02-23T08:23:49Z</time>
      </trkpt>
      <trkpt lat="43.22791" lon="5.43731">
        <ele>185.67</ele>
        <time>2015-02-23T08:23:52Z</time>
      </trkpt>
      <trkpt lat="43.22785" lon="5.4373">
        <ele>181.83</ele>
        <time>2015-02-23T08:23:57Z</time>
      </trkpt>
      <trkpt lat="43.22783" lon="5.4373">
        <ele>180.87</ele>
        <time>2015-02-23T08:23:59Z</time>
      </trkpt>
      <trkpt lat="43.2278" lon="5.43729">
        <ele>177.98</ele>
        <time>2015-02-23T08:24:03Z</time>
      </trkpt>
      <trkpt lat="43.22778" lon="5.43728">
        <ele>177.98</ele>
        <time>2015-02-23T08:24:04Z</time>
      </trkpt>
      <trkpt lat="43.22768" lon="5.43727">
        <ele>174.14</ele>
        <time>2015-02-23T08:24:14Z</time>
      </trkpt>
      <trkpt lat="43.22765" lon="5.43728">
        <ele>173.66</ele>
        <time>2015-02-23T08:24:17Z</time>
      </trkpt>
      <trkpt lat="43.22757" lon="5.43726">
        <ele>171.25</ele>
        <time>2015-02-23T08:24:26Z</time>
      </trkpt>
      <trkpt lat="43.22752" lon="5.43726">
        <ele>169.33</ele>
        <time>2015-02-23T08:24:31Z</time>
      </trkpt>
      <trkpt lat="43.22748" lon="5.43727">
        <ele>169.33</ele>
        <time>2015-02-23T08:24:35Z</time>
      </trkpt>
      <trkpt lat="43.2273" lon="5.4373">
        <ele>165.96</ele>
        <time>2015-02-23T08:24:54Z</time>
      </trkpt>
      <trkpt lat="43.2271" lon="5.43739">
        <ele>163.56</ele>
        <time>2015-02-23T08:25:13Z</time>
      </trkpt>
      <trkpt lat="43.22693" lon="5.43753">
        <ele>162.6</ele>
        <time>2015-02-23T08:25:33Z</time>
      </trkpt>
      <trkpt lat="43.22677" lon="5.43766">
        <ele>163.56</ele>
        <time>2015-02-23T08:25:52Z</time>
      </trkpt>
      <trkpt lat="43.22675" lon="5.43767">
        <ele>163.08</ele>
        <time>2015-02-23T08:25:54Z</time>
      </trkpt>
      <trkpt lat="43.22669" lon="5.43771">
        <ele>163.08</ele>
        <time>2015-02-23T08:25:59Z</time>
      </trkpt>
      <trkpt lat="43.22649" lon="5.43791">
        <ele>164.04</ele>
        <time>2015-02-23T08:26:21Z</time>
      </trkpt>
      <trkpt lat="43.22626" lon="5.43808">
        <ele>165</ele>
        <time>2015-02-23T08:26:41Z</time>
      </trkpt>
      <trkpt lat="43.22601" lon="5.43813">
        <ele>165</ele>
        <time>2015-02-23T08:27:02Z</time>
      </trkpt>
      <trkpt lat="43.22573" lon="5.43814">
        <ele>165.48</ele>
        <time>2015-02-23T08:27:24Z</time>
      </trkpt>
      <trkpt lat="43.22546" lon="5.43819">
        <ele>165.96</ele>
        <time>2015-02-23T08:27:47Z</time>
      </trkpt>
      <trkpt lat="43.22522" lon="5.43817">
        <ele>165.48</ele>
        <time>2015-02-23T08:28:09Z</time>
      </trkpt>
      <trkpt lat="43.22493" lon="5.43815">
        <ele>165.48</ele>
        <time>2015-02-23T08:28:32Z</time>
      </trkpt>
      <trkpt lat="43.22468" lon="5.43813">
        <ele>165.96</ele>
        <time>2015-02-23T08:28:53Z</time>
      </trkpt>
      <trkpt lat="43.22445" lon="5.43823">
        <ele>165.48</ele>
        <time>2015-02-23T08:29:15Z</time>
      </trkpt>
      <trkpt lat="43.22443" lon="5.43824">
        <ele>165</ele>
        <time>2015-02-23T08:29:16Z</time>
      </trkpt>
      <trkpt lat="43.22421" lon="5.43845">
        <ele>165</ele>
        <time>2015-02-23T08:29:38Z</time>
      </trkpt>
      <trkpt lat="43.22414" lon="5.43849">
        <ele>165</ele>
        <time>2015-02-23T08:29:45Z</time>
      </trkpt>
      <trkpt lat="43.2239" lon="5.43861">
        <ele>165.96</ele>
        <time>2015-02-23T08:30:05Z</time>
      </trkpt>
      <trkpt lat="43.22386" lon="5.43869">
        <ele>165.96</ele>
        <time>2015-02-23T08:30:10Z</time>
      </trkpt>
      <trkpt lat="43.22364" lon="5.43882">
        <ele>167.41</ele>
        <time>2015-02-23T08:30:32Z</time>
      </trkpt>
      <trkpt lat="43.22347" lon="5.43901">
        <ele>168.37</ele>
        <time>2015-02-23T08:30:54Z</time>
      </trkpt>
      <trkpt lat="43.22346" lon="5.43903">
        <ele>167.89</ele>
        <time>2015-02-23T08:30:56Z</time>
      </trkpt>
      <trkpt lat="43.22343" lon="5.43905">
        <ele>168.85</ele>
        <time>2015-02-23T08:30:59Z</time>
      </trkpt>
      <trkpt lat="43.22326" lon="5.43935">
        <ele>169.33</ele>
        <time>2015-02-23T08:31:21Z</time>
      </trkpt>
      <trkpt lat="43.22311" lon="5.43953">
        <ele>170.77</ele>
        <time>2015-02-23T08:31:40Z</time>
      </trkpt>
      <trkpt lat="43.22288" lon="5.43972">
        <ele>172.21</ele>
        <time>2015-02-23T08:32:01Z</time>
      </trkpt>
      <trkpt lat="43.2227" lon="5.43992">
        <ele>172.69</ele>
        <time>2015-02-23T08:32:22Z</time>
      </trkpt>
      <trkpt lat="43.22268" lon="5.43992">
        <ele>173.17</ele>
        <time>2015-02-23T08:32:24Z</time>
      </trkpt>
      <trkpt lat="43.22244" lon="5.43997">
        <ele>174.14</ele>
        <time>2015-02-23T08:32:45Z</time>
      </trkpt>
      <trkpt lat="43.22221" lon="5.44006">
        <ele>175.1</ele>
        <time>2015-02-23T08:33:04Z</time>
      </trkpt>
      <trkpt lat="43.22201" lon="5.44015">
        <ele>175.58</ele>
        <time>2015-02-23T08:33:22Z</time>
      </trkpt>
      <trkpt lat="43.22179" lon="5.44018">
        <ele>176.54</ele>
        <time>2015-02-23T08:33:40Z</time>
      </trkpt>
      <trkpt lat="43.22155" lon="5.4403">
        <ele>178.46</ele>
        <time>2015-02-23T08:34:02Z</time>
      </trkpt>
      <trkpt lat="43.22134" lon="5.44057">
        <ele>179.42</ele>
        <time>2015-02-23T08:34:22Z</time>
      </trkpt>
      <trkpt lat="43.22118" lon="5.44074">
        <ele>180.87</ele>
        <time>2015-02-23T08:34:42Z</time>
      </trkpt>
      <trkpt lat="43.22099" lon="5.44089">
        <ele>182.31</ele>
        <time>2015-02-23T08:35:03Z</time>
      </trkpt>
      <trkpt lat="43.22083" lon="5.44101">
        <ele>184.23</ele>
        <time>2015-02-23T08:35:24Z</time>
      </trkpt>
      <trkpt lat="43.22075" lon="5.44127">
        <ele>185.19</ele>
        <time>2015-02-23T08:35:44Z</time>
      </trkpt>
      <trkpt lat="43.22074" lon="5.44127">
        <ele>185.19</ele>
        <time>2015-02-23T08:35:57Z</time>
      </trkpt>
      <trkpt lat="43.2207" lon="5.44126">
        <ele>185.19</ele>
        <time>2015-02-23T08:36:00Z</time>
      </trkpt>
      <trkpt lat="43.22062" lon="5.44116">
        <ele>186.63</ele>
        <time>2015-02-23T08:36:09Z</time>
      </trkpt>
      <trkpt lat="43.22044" lon="5.44104">
        <ele>187.11</ele>
        <time>2015-02-23T08:36:28Z</time>
      </trkpt>
      <trkpt lat="43.22043" lon="5.44104">
        <ele>187.11</ele>
        <time>2015-02-23T08:36:47Z</time>
      </trkpt>
      <trkpt lat="43.22043" lon="5.44102">
        <ele>188.08</ele>
        <time>2015-02-23T08:37:10Z</time>
      </trkpt>
      <trkpt lat="43.22043" lon="5.44102">
        <ele>183.27</ele>
        <time>2015-02-23T08:37:14Z</time>
      </trkpt>
      <trkpt lat="43.22043" lon="5.44102">
        <ele>186.63</ele>
        <time>2015-02-23T08:37:15Z</time>
      </trkpt>
      <trkpt lat="43.22043" lon="5.44102">
        <ele>190.96</ele>
        <time>2015-02-23T08:37:19Z</time>
      </trkpt>
      <trkpt lat="43.22043" lon="5.44102">
        <ele>183.27</ele>
        <time>2015-02-23T08:37:20Z</time>
      </trkpt>
      <trkpt lat="43.22043" lon="5.44102">
        <ele>188.08</ele>
        <time>2015-02-23T08:37:21Z</time>
      </trkpt>
      <trkpt lat="43.22043" lon="5.44102">
        <ele>184.71</ele>
        <time>2015-02-23T08:37:24Z</time>
      </trkpt>
      <trkpt lat="43.22043" lon="5.44102">
        <ele>188.56</ele>
        <time>2015-02-23T08:37:41Z</time>
      </trkpt>
      <trkpt lat="43.22043" lon="5.44102">
        <ele>187.59</ele>
        <time>2015-02-23T08:37:44Z</time>
      </trkpt>
      <trkpt lat="43.2204" lon="5.44097">
        <ele>191.44</ele>
        <time>2015-02-23T08:37:52Z</time>
      </trkpt>
      <trkpt lat="43.22039" lon="5.44096">
        <ele>190</ele>
        <time>2015-02-23T08:37:53Z</time>
      </trkpt>
      <trkpt lat="43.22037" lon="5.44095">
        <ele>188.08</ele>
        <time>2015-02-23T08:37:56Z</time>
      </trkpt>
      <trkpt lat="43.22035" lon="5.44095">
        <ele>188.08</ele>
        <time>2015-02-23T08:37:58Z</time>
      </trkpt>
      <trkpt lat="43.22013" lon="5.4409">
        <ele>187.59</ele>
        <time>2015-02-23T08:38:17Z</time>
      </trkpt>
      <trkpt lat="43.22009" lon="5.44094">
        <ele>187.11</ele>
        <time>2015-02-23T08:38:35Z</time>
      </trkpt>
      <trkpt lat="43.22005" lon="5.44101">
        <ele>187.11</ele>
        <time>2015-02-23T08:38:52Z</time>
      </trkpt>
      <trkpt lat="43.22002" lon="5.44107">
        <ele>187.11</ele>
        <time>2015-02-23T08:39:19Z</time>
      </trkpt>
      <trkpt lat="43.21997" lon="5.44112">
        <ele>185.67</ele>
        <time>2015-02-23T08:39:38Z</time>
      </trkpt>
      <trkpt lat="43.21997" lon="5.44112">
        <ele>182.79</ele>
        <time>2015-02-23T08:39:44Z</time>
      </trkpt>
      <trkpt lat="43.21997" lon="5.44112">
        <ele>186.15</ele>
        <time>2015-02-23T08:39:45Z</time>
      </trkpt>
      <trkpt lat="43.21997" lon="5.44112">
        <ele>186.63</ele>
        <time>2015-02-23T08:40:07Z</time>
      </trkpt>
      <trkpt lat="43.21991" lon="5.44118">
        <ele>184.23</ele>
        <time>2015-02-23T08:40:22Z</time>
      </trkpt>
      <trkpt lat="43.21987" lon="5.44123">
        <ele>183.75</ele>
        <time>2015-02-23T08:40:29Z</time>
      </trkpt>
      <trkpt lat="43.21983" lon="5.4413">
        <ele>183.27</ele>
        <time>2015-02-23T08:40:34Z</time>
      </trkpt>
      <trkpt lat="43.21973" lon="5.44141">
        <ele>181.83</ele>
        <time>2015-02-23T08:40:50Z</time>
      </trkpt>
      <trkpt lat="43.21964" lon="5.44155">
        <ele>179.42</ele>
        <time>2015-02-23T08:41:11Z</time>
      </trkpt>
      <trkpt lat="43.21962" lon="5.44157">
        <ele>178.94</ele>
        <time>2015-02-23T08:41:14Z</time>
      </trkpt>
      <trkpt lat="43.21949" lon="5.44174">
        <ele>177.5</ele>
        <time>2015-02-23T08:41:33Z</time>
      </trkpt>
      <trkpt lat="43.2193" lon="5.44188">
        <ele>176.06</ele>
        <time>2015-02-23T08:41:53Z</time>
      </trkpt>
      <trkpt lat="43.21928" lon="5.44189">
        <ele>176.06</ele>
        <time>2015-02-23T08:41:54Z</time>
      </trkpt>
      <trkpt lat="43.2191" lon="5.44194">
        <ele>174.62</ele>
        <time>2015-02-23T08:42:11Z</time>
      </trkpt>
      <trkpt lat="43.21903" lon="5.44196">
        <ele>172.69</ele>
        <time>2015-02-23T08:42:20Z</time>
      </trkpt>
      <trkpt lat="43.21886" lon="5.44201">
        <ele>171.25</ele>
        <time>2015-02-23T08:42:36Z</time>
      </trkpt>
      <trkpt lat="43.21878" lon="5.44191">
        <ele>169.33</ele>
        <time>2015-02-23T08:42:49Z</time>
      </trkpt>
      <trkpt lat="43.21878" lon="5.44179">
        <ele>166.93</ele>
        <time>2015-02-23T08:42:59Z</time>
      </trkpt>
      <trkpt lat="43.21875" lon="5.4416">
        <ele>164.52</ele>
        <time>2015-02-23T08:43:13Z</time>
      </trkpt>
      <trkpt lat="43.21866" lon="5.44141">
        <ele>161.64</ele>
        <time>2015-02-23T08:43:33Z</time>
      </trkpt>
      <trkpt lat="43.21861" lon="5.44134">
        <ele>162.12</ele>
        <time>2015-02-23T08:43:53Z</time>
      </trkpt>
      <trkpt lat="43.21848" lon="5.44138">
        <ele>159.72</ele>
        <time>2015-02-23T08:44:09Z</time>
      </trkpt>
      <trkpt lat="43.21846" lon="5.44139">
        <ele>159.24</ele>
        <time>2015-02-23T08:44:11Z</time>
      </trkpt>
      <trkpt lat="43.21837" lon="5.44157">
        <ele>157.79</ele>
        <time>2015-02-23T08:44:32Z</time>
      </trkpt>
      <trkpt lat="43.21835" lon="5.44157">
        <ele>157.31</ele>
        <time>2015-02-23T08:44:34Z</time>
      </trkpt>
      <trkpt lat="43.21829" lon="5.44162">
        <ele>155.87</ele>
        <time>2015-02-23T08:44:40Z</time>
      </trkpt>
      <trkpt lat="43.21828" lon="5.44163">
        <ele>155.39</ele>
        <time>2015-02-23T08:44:42Z</time>
      </trkpt>
      <trkpt lat="43.21824" lon="5.44164">
        <ele>155.39</ele>
        <time>2015-02-23T08:44:47Z</time>
      </trkpt>
      <trkpt lat="43.21823" lon="5.44164">
        <ele>154.43</ele>
        <time>2015-02-23T08:44:50Z</time>
      </trkpt>
      <trkpt lat="43.2182" lon="5.44164">
        <ele>153.47</ele>
        <time>2015-02-23T08:44:52Z</time>
      </trkpt>
      <trkpt lat="43.21816" lon="5.44163">
        <ele>153.47</ele>
        <time>2015-02-23T08:44:55Z</time>
      </trkpt>
      <trkpt lat="43.21813" lon="5.44162">
        <ele>152.99</ele>
        <time>2015-02-23T08:45:03Z</time>
      </trkpt>
      <trkpt lat="43.21811" lon="5.44161">
        <ele>152.99</ele>
        <time>2015-02-23T08:45:08Z</time>
      </trkpt>
      <trkpt lat="43.21804" lon="5.44158">
        <ele>152.99</ele>
        <time>2015-02-23T08:45:15Z</time>
      </trkpt>
      <trkpt lat="43.21789" lon="5.44138">
        <ele>152.51</ele>
        <time>2015-02-23T08:45:36Z</time>
      </trkpt>
      <trkpt lat="43.21785" lon="5.4413">
        <ele>152.99</ele>
        <time>2015-02-23T08:45:43Z</time>
      </trkpt>
      <trkpt lat="43.21778" lon="5.44119">
        <ele>153.47</ele>
        <time>2015-02-23T08:45:53Z</time>
      </trkpt>
      <trkpt lat="43.2177" lon="5.44101">
        <ele>154.91</ele>
        <time>2015-02-23T08:46:13Z</time>
      </trkpt>
      <trkpt lat="43.21757" lon="5.44099">
        <ele>153.47</ele>
        <time>2015-02-23T08:46:26Z</time>
      </trkpt>
      <trkpt lat="43.21737" lon="5.44099">
        <ele>152.03</ele>
        <time>2015-02-23T08:46:45Z</time>
      </trkpt>
      <trkpt lat="43.21735" lon="5.44102">
        <ele>152.03</ele>
        <time>2015-02-23T08:46:48Z</time>
      </trkpt>
      <trkpt lat="43.21722" lon="5.44115">
        <ele>149.62</ele>
        <time>2015-02-23T08:47:09Z</time>
      </trkpt>
      <trkpt lat="43.21719" lon="5.44117">
        <ele>150.58</ele>
        <time>2015-02-23T08:47:21Z</time>
      </trkpt>
      <trkpt lat="43.21709" lon="5.44115">
        <ele>149.14</ele>
        <time>2015-02-23T08:47:27Z</time>
      </trkpt>
      <trkpt lat="43.21707" lon="5.44112">
        <ele>149.14</ele>
        <time>2015-02-23T08:47:29Z</time>
      </trkpt>
      <trkpt lat="43.21685" lon="5.441">
        <ele>151.06</ele>
        <time>2015-02-23T08:47:51Z</time>
      </trkpt>
      <trkpt lat="43.21685" lon="5.44098">
        <ele>151.54</ele>
        <time>2015-02-23T08:47:53Z</time>
      </trkpt>
      <trkpt lat="43.21681" lon="5.44092">
        <ele>152.03</ele>
        <time>2015-02-23T08:48:00Z</time>
      </trkpt>
      <trkpt lat="43.2167" lon="5.44075">
        <ele>155.39</ele>
        <time>2015-02-23T08:48:18Z</time>
      </trkpt>
      <trkpt lat="43.21669" lon="5.44074">
        <ele>155.87</ele>
        <time>2015-02-23T08:48:22Z</time>
      </trkpt>
      <trkpt lat="43.21654" lon="5.44059">
        <ele>155.87</ele>
        <time>2015-02-23T08:48:41Z</time>
      </trkpt>
      <trkpt lat="43.21647" lon="5.44059">
        <ele>154.43</ele>
        <time>2015-02-23T08:48:59Z</time>
      </trkpt>
      <trkpt lat="43.21645" lon="5.4406">
        <ele>153.95</ele>
        <time>2015-02-23T08:49:06Z</time>
      </trkpt>
      <trkpt lat="43.21642" lon="5.44061">
        <ele>152.99</ele>
        <time>2015-02-23T08:49:08Z</time>
      </trkpt>
      <trkpt lat="43.21639" lon="5.44062">
        <ele>151.54</ele>
        <time>2015-02-23T08:49:26Z</time>
      </trkpt>
      <trkpt lat="43.21636" lon="5.44064">
        <ele>150.58</ele>
        <time>2015-02-23T08:49:28Z</time>
      </trkpt>
      <trkpt lat="43.21619" lon="5.44082">
        <ele>148.18</ele>
        <time>2015-02-23T08:49:44Z</time>
      </trkpt>
      <trkpt lat="43.21618" lon="5.44085">
        <ele>148.18</ele>
        <time>2015-02-23T08:50:05Z</time>
      </trkpt>
      <trkpt lat="43.21617" lon="5.44085">
        <ele>146.26</ele>
        <time>2015-02-23T08:50:29Z</time>
      </trkpt>
      <trkpt lat="43.21617" lon="5.44085">
        <ele>146.74</ele>
        <time>2015-02-23T08:50:57Z</time>
      </trkpt>
      <trkpt lat="43.21616" lon="5.44085">
        <ele>144.82</ele>
        <time>2015-02-23T08:51:21Z</time>
      </trkpt>
      <trkpt lat="43.21615" lon="5.44093">
        <ele>143.37</ele>
        <time>2015-02-23T08:51:40Z</time>
      </trkpt>
      <trkpt lat="43.21604" lon="5.44132">
        <ele>141.45</ele>
        <time>2015-02-23T08:51:58Z</time>
      </trkpt>
      <trkpt lat="43.21602" lon="5.44143">
        <ele>139.53</ele>
        <time>2015-02-23T08:52:05Z</time>
      </trkpt>
      <trkpt lat="43.21596" lon="5.44158">
        <ele>137.13</ele>
        <time>2015-02-23T08:52:21Z</time>
      </trkpt>
      <trkpt lat="43.21589" lon="5.44164">
        <ele>136.64</ele>
        <time>2015-02-23T08:52:27Z</time>
      </trkpt>
      <trkpt lat="43.21587" lon="5.44167">
        <ele>137.13</ele>
        <time>2015-02-23T08:52:30Z</time>
      </trkpt>
      <trkpt lat="43.21571" lon="5.44186">
        <ele>134.72</ele>
        <time>2015-02-23T08:52:51Z</time>
      </trkpt>
      <trkpt lat="43.21568" lon="5.44188">
        <ele>133.76</ele>
        <time>2015-02-23T08:52:54Z</time>
      </trkpt>
      <trkpt lat="43.21561" lon="5.44199">
        <ele>132.32</ele>
        <time>2015-02-23T08:53:15Z</time>
      </trkpt>
      <trkpt lat="43.21559" lon="5.44199">
        <ele>131.36</ele>
        <time>2015-02-23T08:53:19Z</time>
      </trkpt>
      <trkpt lat="43.2155" lon="5.44213">
        <ele>128.95</ele>
        <time>2015-02-23T08:53:36Z</time>
      </trkpt>
      <trkpt lat="43.21541" lon="5.44213">
        <ele>125.11</ele>
        <time>2015-02-23T08:53:48Z</time>
      </trkpt>
      <trkpt lat="43.21538" lon="5.44211">
        <ele>123.67</ele>
        <time>2015-02-23T08:53:58Z</time>
      </trkpt>
      <trkpt lat="43.21536" lon="5.4421">
        <ele>123.19</ele>
        <time>2015-02-23T08:54:00Z</time>
      </trkpt>
      <trkpt lat="43.21528" lon="5.44212">
        <ele>119.82</ele>
        <time>2015-02-23T08:54:15Z</time>
      </trkpt>
      <trkpt lat="43.21519" lon="5.44223">
        <ele>117.9</ele>
        <time>2015-02-23T08:54:33Z</time>
      </trkpt>
      <trkpt lat="43.21518" lon="5.44228">
        <ele>116.46</ele>
        <time>2015-02-23T08:54:36Z</time>
      </trkpt>
      <trkpt lat="43.21522" lon="5.44252">
        <ele>113.09</ele>
        <time>2015-02-23T08:55:00Z</time>
      </trkpt>
      <trkpt lat="43.21524" lon="5.44255">
        <ele>112.13</ele>
        <time>2015-02-23T08:55:19Z</time>
      </trkpt>
      <trkpt lat="43.21531" lon="5.44258">
        <ele>111.17</ele>
        <time>2015-02-23T08:55:32Z</time>
      </trkpt>
      <trkpt lat="43.21542" lon="5.44271">
        <ele>110.21</ele>
        <time>2015-02-23T08:55:51Z</time>
      </trkpt>
      <trkpt lat="43.21544" lon="5.4428">
        <ele>106.84</ele>
        <time>2015-02-23T08:56:02Z</time>
      </trkpt>
      <trkpt lat="43.21542" lon="5.44282">
        <ele>103.96</ele>
        <time>2015-02-23T08:56:19Z</time>
      </trkpt>
      <trkpt lat="43.21541" lon="5.44284">
        <ele>103.96</ele>
        <time>2015-02-23T08:56:20Z</time>
      </trkpt>
      <trkpt lat="43.21536" lon="5.44291">
        <ele>102.04</ele>
        <time>2015-02-23T08:56:36Z</time>
      </trkpt>
      <trkpt lat="43.21534" lon="5.44292">
        <ele>99.15</ele>
        <time>2015-02-23T08:56:52Z</time>
      </trkpt>
      <trkpt lat="43.21528" lon="5.44298">
        <ele>95.31</ele>
        <time>2015-02-23T08:57:10Z</time>
      </trkpt>
      <trkpt lat="43.21527" lon="5.44299">
        <ele>95.31</ele>
        <time>2015-02-23T08:57:11Z</time>
      </trkpt>
      <trkpt lat="43.21524" lon="5.44305">
        <ele>94.35</ele>
        <time>2015-02-23T08:57:19Z</time>
      </trkpt>
      <trkpt lat="43.21523" lon="5.44307">
        <ele>94.35</ele>
        <time>2015-02-23T08:57:21Z</time>
      </trkpt>
      <trkpt lat="43.21519" lon="5.44314">
        <ele>92.42</ele>
        <time>2015-02-23T08:57:33Z</time>
      </trkpt>
      <trkpt lat="43.21511" lon="5.44328">
        <ele>90.02</ele>
        <time>2015-02-23T08:57:45Z</time>
      </trkpt>
      <trkpt lat="43.21499" lon="5.44337">
        <ele>88.1</ele>
        <time>2015-02-23T08:58:04Z</time>
      </trkpt>
      <trkpt lat="43.21488" lon="5.44346">
        <ele>89.06</ele>
        <time>2015-02-23T08:58:23Z</time>
      </trkpt>
      <trkpt lat="43.21488" lon="5.44346">
        <ele>89.06</ele>
        <time>2015-02-23T08:58:25Z</time>
      </trkpt>
      <trkpt lat="43.21492" lon="5.44342">
        <ele>89.06</ele>
        <time>2015-02-23T08:58:28Z</time>
      </trkpt>
      <trkpt lat="43.21503" lon="5.4433">
        <ele>88.1</ele>
        <time>2015-02-23T08:58:49Z</time>
      </trkpt>
      <trkpt lat="43.21504" lon="5.44322">
        <ele>85.69</ele>
        <time>2015-02-23T08:59:05Z</time>
      </trkpt>
      <trkpt lat="43.215" lon="5.44319">
        <ele>82.33</ele>
        <time>2015-02-23T08:59:17Z</time>
      </trkpt>
      <trkpt lat="43.215" lon="5.44319">
        <ele>80.41</ele>
        <time>2015-02-23T08:59:32Z</time>
      </trkpt>
      <trkpt lat="43.215" lon="5.44319">
        <ele>79.45</ele>
        <time>2015-02-23T08:59:34Z</time>
      </trkpt>
      <trkpt lat="43.215" lon="5.44319">
        <ele>78.48</ele>
        <time>2015-02-23T08:59:38Z</time>
      </trkpt>
      <trkpt lat="43.21498" lon="5.44314">
        <ele>76.08</ele>
        <time>2015-02-23T08:59:51Z</time>
      </trkpt>
      <trkpt lat="43.21496" lon="5.44312">
        <ele>75.6</ele>
        <time>2015-02-23T08:59:53Z</time>
      </trkpt>
      <trkpt lat="43.21495" lon="5.44311">
        <ele>75.12</ele>
        <time>2015-02-23T08:59:55Z</time>
      </trkpt>
      <trkpt lat="43.21491" lon="5.44307">
        <ele>73.68</ele>
        <time>2015-02-23T08:59:58Z</time>
      </trkpt>
      <trkpt lat="43.21485" lon="5.443">
        <ele>71.27</ele>
        <time>2015-02-23T09:00:15Z</time>
      </trkpt>
      <trkpt lat="43.21482" lon="5.44296">
        <ele>70.31</ele>
        <time>2015-02-23T09:00:21Z</time>
      </trkpt>
      <trkpt lat="43.21476" lon="5.44287">
        <ele>68.39</ele>
        <time>2015-02-23T09:00:41Z</time>
      </trkpt>
      <trkpt lat="43.21475" lon="5.44287">
        <ele>68.39</ele>
        <time>2015-02-23T09:01:03Z</time>
      </trkpt>
      <trkpt lat="43.21468" lon="5.44287">
        <ele>65.99</ele>
        <time>2015-02-23T09:01:21Z</time>
      </trkpt>
      <trkpt lat="43.21464" lon="5.44285">
        <ele>63.58</ele>
        <time>2015-02-23T09:01:37Z</time>
      </trkpt>
      <trkpt lat="43.21458" lon="5.44283">
        <ele>59.74</ele>
        <time>2015-02-23T09:01:51Z</time>
      </trkpt>
      <trkpt lat="43.21457" lon="5.44281">
        <ele>59.26</ele>
        <time>2015-02-23T09:02:10Z</time>
      </trkpt>
      <trkpt lat="43.21454" lon="5.44283">
        <ele>57.82</ele>
        <time>2015-02-23T09:02:32Z</time>
      </trkpt>
      <trkpt lat="43.21453" lon="5.44283">
        <ele>56.86</ele>
        <time>2015-02-23T09:02:50Z</time>
      </trkpt>
      <trkpt lat="43.21451" lon="5.44283">
        <ele>53.97</ele>
        <time>2015-02-23T09:03:05Z</time>
      </trkpt>
      <trkpt lat="43.21439" lon="5.44282">
        <ele>50.61</ele>
        <time>2015-02-23T09:03:21Z</time>
      </trkpt>
      <trkpt lat="43.21438" lon="5.44282">
        <ele>48.68</ele>
        <time>2015-02-23T09:03:40Z</time>
      </trkpt>
      <trkpt lat="43.21434" lon="5.44282">
        <ele>47.24</ele>
        <time>2015-02-23T09:03:58Z</time>
      </trkpt>
      <trkpt lat="43.21433" lon="5.44279">
        <ele>44.36</ele>
        <time>2015-02-23T09:04:12Z</time>
      </trkpt>
      <trkpt lat="43.21428" lon="5.44271">
        <ele>43.4</ele>
        <time>2015-02-23T09:04:28Z</time>
      </trkpt>
      <trkpt lat="43.21423" lon="5.44273">
        <ele>42.44</ele>
        <time>2015-02-23T09:04:49Z</time>
      </trkpt>
      <trkpt lat="43.2142" lon="5.44272">
        <ele>40.51</ele>
        <time>2015-02-23T09:04:59Z</time>
      </trkpt>
      <trkpt lat="43.21412" lon="5.44272">
        <ele>38.59</ele>
        <time>2015-02-23T09:05:14Z</time>
      </trkpt>
      <trkpt lat="43.21409" lon="5.44267">
        <ele>36.67</ele>
        <time>2015-02-23T09:05:36Z</time>
      </trkpt>
      <trkpt lat="43.21403" lon="5.44262">
        <ele>34.26</ele>
        <time>2015-02-23T09:05:51Z</time>
      </trkpt>
      <trkpt lat="43.21396" lon="5.44252">
        <ele>31.38</ele>
        <time>2015-02-23T09:06:08Z</time>
      </trkpt>
      <trkpt lat="43.21395" lon="5.44252">
        <ele>31.38</ele>
        <time>2015-02-23T09:06:09Z</time>
      </trkpt>
      <trkpt lat="43.21392" lon="5.44252">
        <ele>30.9</ele>
        <time>2015-02-23T09:06:26Z</time>
      </trkpt>
      <trkpt lat="43.2139" lon="5.44247">
        <ele>28.98</ele>
        <time>2015-02-23T09:06:49Z</time>
      </trkpt>
      <trkpt lat="43.21387" lon="5.44244">
        <ele>25.61</ele>
        <time>2015-02-23T09:07:06Z</time>
      </trkpt>
      <trkpt lat="43.21382" lon="5.4424">
        <ele>23.69</ele>
        <time>2015-02-23T09:07:24Z</time>
      </trkpt>
      <trkpt lat="43.21381" lon="5.44236">
        <ele>21.29</ele>
        <time>2015-02-23T09:07:42Z</time>
      </trkpt>
      <trkpt lat="43.21372" lon="5.44226">
        <ele>19.84</ele>
        <time>2015-02-23T09:07:55Z</time>
      </trkpt>
      <trkpt lat="43.2137" lon="5.44232">
        <ele>16.96</ele>
        <time>2015-02-23T09:08:11Z</time>
      </trkpt>
      <trkpt lat="43.21363" lon="5.44231">
        <ele>14.08</ele>
        <time>2015-02-23T09:08:30Z</time>
      </trkpt>
      <trkpt lat="43.21361" lon="5.4423">
        <ele>11.19</ele>
        <time>2015-02-23T09:08:50Z</time>
      </trkpt>
      <trkpt lat="43.21356" lon="5.44225">
        <ele>8.79</ele>
        <time>2015-02-23T09:09:11Z</time>
      </trkpt>
      <trkpt lat="43.21354" lon="5.44226">
        <ele>8.79</ele>
        <time>2015-02-23T09:09:14Z</time>
      </trkpt>
      <trkpt lat="43.21348" lon="5.44224">
        <ele>7.83</ele>
        <time>2015-02-23T09:09:20Z</time>
      </trkpt>
      <trkpt lat="43.2134" lon="5.44226">
        <ele>6.87</ele>
        <time>2015-02-23T09:09:28Z</time>
      </trkpt>
      <trkpt lat="43.21338" lon="5.44237">
        <ele>5.91</ele>
        <time>2015-02-23T09:09:35Z</time>
      </trkpt>
      <trkpt lat="43.21329" lon="5.44255">
        <ele>5.91</ele>
        <time>2015-02-23T09:09:52Z</time>
      </trkpt>
      <trkpt lat="43.21325" lon="5.44259">
        <ele>5.91</ele>
        <time>2015-02-23T09:09:58Z</time>
      </trkpt>
      <trkpt lat="43.21314" lon="5.44267">
        <ele>5.42</ele>
        <time>2015-02-23T09:10:12Z</time>
      </trkpt>
      <trkpt lat="43.21309" lon="5.44265">
        <ele>4.94</ele>
        <time>2015-02-23T09:10:24Z</time>
      </trkpt>
      <trkpt lat="43.21307" lon="5.44264">
        <ele>5.42</ele>
        <time>2015-02-23T09:10:26Z</time>
      </trkpt>
      <trkpt lat="43.21304" lon="5.44267">
        <ele>6.39</ele>
        <time>2015-02-23T09:10:29Z</time>
      </trkpt>
      <trkpt lat="43.213" lon="5.44275">
        <ele>5.42</ele>
        <time>2015-02-23T09:10:48Z</time>
      </trkpt>
      <trkpt lat="43.21298" lon="5.44283">
        <ele>5.42</ele>
        <time>2015-02-23T09:10:53Z</time>
      </trkpt>
      <trkpt lat="43.213" lon="5.44292">
        <ele>5.42</ele>
        <time>2015-02-23T09:11:00Z</time>
      </trkpt>
      <trkpt lat="43.21302" lon="5.44301">
        <ele>5.91</ele>
        <time>2015-02-23T09:11:08Z</time>
      </trkpt>
      <trkpt lat="43.21291" lon="5.4432">
        <ele>4.94</ele>
        <time>2015-02-23T09:11:25Z</time>
      </trkpt>
      <trkpt lat="43.21287" lon="5.44326">
        <ele>4.46</ele>
        <time>2015-02-23T09:11:29Z</time>
      </trkpt>
      <trkpt lat="43.21277" lon="5.44329">
        <ele>4.46</ele>
        <time>2015-02-23T09:11:43Z</time>
      </trkpt>
      <trkpt lat="43.21273" lon="5.44336">
        <ele>3.98</ele>
        <time>2015-02-23T09:12:01Z</time>
      </trkpt>
      <trkpt lat="43.21267" lon="5.44337">
        <ele>4.46</ele>
        <time>2015-02-23T09:12:19Z</time>
      </trkpt>
      <trkpt lat="43.21267" lon="5.44338">
        <ele>4.94</ele>
        <time>2015-02-23T09:12:51Z</time>
      </trkpt>
      <trkpt lat="43.21267" lon="5.44338">
        <ele>0.62</ele>
        <time>2015-02-23T09:13:01Z</time>
      </trkpt>
      <trkpt lat="43.21267" lon="5.44338">
        <ele>5.42</ele>
        <time>2015-02-23T09:13:02Z</time>
      </trkpt>
      <trkpt lat="43.21267" lon="5.44338">
        <ele>2.06</ele>
        <time>2015-02-23T09:13:04Z</time>
      </trkpt>
      <trkpt lat="43.21265" lon="5.44336">
        <ele>1.1</ele>
        <time>2015-02-23T09:13:23Z</time>
      </trkpt>
      <trkpt lat="43.21265" lon="5.44336">
        <ele>3.5</ele>
        <time>2015-02-23T09:13:44Z</time>
      </trkpt>
      <trkpt lat="43.21264" lon="5.44334">
        <ele>2.06</ele>
        <time>2015-02-23T09:14:08Z</time>
      </trkpt>
      <trkpt lat="43.21264" lon="5.44334">
        <ele>1.58</ele>
        <time>2015-02-23T09:14:11Z</time>
      </trkpt>
      <trkpt lat="43.21263" lon="5.44333">
        <ele>3.02</ele>
        <time>2015-02-23T09:14:36Z</time>
      </trkpt>
      <trkpt lat="43.21259" lon="5.44335">
        <ele>5.42</ele>
        <time>2015-02-23T09:15:00Z</time>
      </trkpt>
      <trkpt lat="43.21258" lon="5.44337">
        <ele>6.87</ele>
        <time>2015-02-23T09:15:12Z</time>
      </trkpt>
      <trkpt lat="43.2126" lon="5.4434">
        <ele>7.35</ele>
        <time>2015-02-23T09:15:33Z</time>
      </trkpt>
      <trkpt lat="43.21258" lon="5.44343">
        <ele>8.31</ele>
        <time>2015-02-23T09:15:54Z</time>
      </trkpt>
      <trkpt lat="43.21257" lon="5.44344">
        <ele>7.83</ele>
        <time>2015-02-23T09:16:03Z</time>
      </trkpt>
      <trkpt lat="43.21256" lon="5.44345">
        <ele>8.31</ele>
        <time>2015-02-23T09:16:13Z</time>
      </trkpt>
      <trkpt lat="43.21253" lon="5.44352">
        <ele>8.31</ele>
        <time>2015-02-23T09:16:29Z</time>
      </trkpt>
      <trkpt lat="43.21264" lon="5.44369">
        <ele>8.31</ele>
        <time>2015-02-23T09:16:49Z</time>
      </trkpt>
      <trkpt lat="43.21261" lon="5.44376">
        <ele>8.31</ele>
        <time>2015-02-23T09:16:54Z</time>
      </trkpt>
      <trkpt lat="43.21259" lon="5.44382">
        <ele>8.31</ele>
        <time>2015-02-23T09:17:04Z</time>
      </trkpt>
      <trkpt lat="43.2125" lon="5.44394">
        <ele>4.94</ele>
        <time>2015-02-23T09:17:26Z</time>
      </trkpt>
      <trkpt lat="43.21248" lon="5.44395">
        <ele>3.5</ele>
        <time>2015-02-23T09:17:31Z</time>
      </trkpt>
      <trkpt lat="43.21243" lon="5.44401">
        <ele>3.5</ele>
        <time>2015-02-23T09:17:43Z</time>
      </trkpt>
      <trkpt lat="43.21238" lon="5.44405">
        <ele>2.54</ele>
        <time>2015-02-23T09:17:50Z</time>
      </trkpt>
      <trkpt lat="43.21236" lon="5.44408">
        <ele>2.54</ele>
        <time>2015-02-23T09:17:53Z</time>
      </trkpt>
      <trkpt lat="43.21231" lon="5.44411">
        <ele>1.1</ele>
        <time>2015-02-23T09:18:11Z</time>
      </trkpt>
      <trkpt lat="43.21235" lon="5.44421">
        <ele>1.58</ele>
        <time>2015-02-23T09:18:28Z</time>
      </trkpt>
      <trkpt lat="43.21238" lon="5.44424">
        <ele>1.58</ele>
        <time>2015-02-23T09:18:50Z</time>
      </trkpt>
      <trkpt lat="43.21224" lon="5.44418">
        <ele>2.54</ele>
        <time>2015-02-23T09:19:03Z</time>
      </trkpt>
      <trkpt lat="43.21222" lon="5.44416">
        <ele>2.06</ele>
        <time>2015-02-23T09:19:04Z</time>
      </trkpt>
      <trkpt lat="43.21213" lon="5.44414">
        <ele>3.02</ele>
        <time>2015-02-23T09:19:22Z</time>
      </trkpt>
      <trkpt lat="43.21215" lon="5.4442">
        <ele>1.1</ele>
        <time>2015-02-23T09:19:44Z</time>
      </trkpt>
      <trkpt lat="43.21215" lon="5.4442">
        <ele>0.62</ele>
        <time>2015-02-23T09:20:05Z</time>
      </trkpt>
      <trkpt lat="43.21215" lon="5.44421">
        <ele>0.62</ele>
        <time>2015-02-23T09:20:26Z</time>
      </trkpt>
      <trkpt lat="43.21215" lon="5.44418">
        <ele>-2.27</ele>
        <time>2015-02-23T09:20:48Z</time>
      </trkpt>
      <trkpt lat="43.21214" lon="5.4442">
        <ele>-0.34</ele>
        <time>2015-02-23T09:21:11Z</time>
      </trkpt>
      <trkpt lat="43.21214" lon="5.4442">
        <ele>3.02</ele>
        <time>2015-02-23T09:21:22Z</time>
      </trkpt>
      <trkpt lat="43.21214" lon="5.4442">
        <ele>2.54</ele>
        <time>2015-02-23T09:21:42Z</time>
      </trkpt>
      <trkpt lat="43.21214" lon="5.4442">
        <ele>3.98</ele>
        <time>2015-02-23T09:21:50Z</time>
      </trkpt>
      <trkpt lat="43.21214" lon="5.4442">
        <ele>5.42</ele>
        <time>2015-02-23T09:21:54Z</time>
      </trkpt>
      <trkpt lat="43.21214" lon="5.4442">
        <ele>6.87</ele>
        <time>2015-02-23T09:22:11Z</time>
      </trkpt>
      <trkpt lat="43.21214" lon="5.4442">
        <ele>8.79</ele>
        <time>2015-02-23T09:22:16Z</time>
      </trkpt>
      <trkpt lat="43.21214" lon="5.4442">
        <ele>11.67</ele>
        <time>2015-02-23T09:22:34Z</time>
      </trkpt>
      <trkpt lat="43.21214" lon="5.4442">
        <ele>13.6</ele>
        <time>2015-02-23T09:23:00Z</time>
      </trkpt>
      <trkpt lat="43.21214" lon="5.4442">
        <ele>14.08</ele>
        <time>2015-02-23T09:23:21Z</time>
      </trkpt>
      <trkpt lat="43.21214" lon="5.4442">
        <ele>16.48</ele>
        <time>2015-02-23T09:23:37Z</time>
      </trkpt>
      <trkpt lat="43.21214" lon="5.4442">
        <ele>16</ele>
        <time>2015-02-23T09:24:03Z</time>
      </trkpt>
      <trkpt lat="43.21213" lon="5.4442">
        <ele>16.48</ele>
        <time>2015-02-23T09:24:31Z</time>
      </trkpt>
      <trkpt lat="43.21213" lon="5.4442">
        <ele>15.52</ele>
        <time>2015-02-23T09:24:53Z</time>
      </trkpt>
      <trkpt lat="43.21185" lon="5.44412">
        <ele>16</ele>
        <time>2015-02-23T09:25:09Z</time>
      </trkpt>
      <trkpt lat="43.21172" lon="5.44408">
        <ele>16</ele>
        <time>2015-02-23T09:25:14Z</time>
      </trkpt>
      <trkpt lat="43.21171" lon="5.44407">
        <ele>17.92</ele>
        <time>2015-02-23T09:25:16Z</time>
      </trkpt>
      <trkpt lat="43.21171" lon="5.44407">
        <ele>16.96</ele>
        <time>2015-02-23T09:25:40Z</time>
      </trkpt>
      <trkpt lat="43.21171" lon="5.44406">
        <ele>14.56</ele>
        <time>2015-02-23T09:25:55Z</time>
      </trkpt>
      <trkpt lat="43.2117" lon="5.44416">
        <ele>16.48</ele>
        <time>2015-02-23T09:26:09Z</time>
      </trkpt>
      <trkpt lat="43.21171" lon="5.4442">
        <ele>17.44</ele>
        <time>2015-02-23T09:26:13Z</time>
      </trkpt>
      <trkpt lat="43.21171" lon="5.44422">
        <ele>18.4</ele>
        <time>2015-02-23T09:26:15Z</time>
      </trkpt>
      <trkpt lat="43.21167" lon="5.44426">
        <ele>18.88</ele>
        <time>2015-02-23T09:26:23Z</time>
      </trkpt>
      <trkpt lat="43.21163" lon="5.44429">
        <ele>19.36</ele>
        <time>2015-02-23T09:26:29Z</time>
      </trkpt>
      <trkpt lat="43.21163" lon="5.44429">
        <ele>22.73</ele>
        <time>2015-02-23T09:26:40Z</time>
      </trkpt>
      <trkpt lat="43.21163" lon="5.44429">
        <ele>23.69</ele>
        <time>2015-02-23T09:26:52Z</time>
      </trkpt>
      <trkpt lat="43.21164" lon="5.44441">
        <ele>24.65</ele>
        <time>2015-02-23T09:27:08Z</time>
      </trkpt>
      <trkpt lat="43.21165" lon="5.44447">
        <ele>25.13</ele>
        <time>2015-02-23T09:27:11Z</time>
      </trkpt>
      <trkpt lat="43.21166" lon="5.44453">
        <ele>25.61</ele>
        <time>2015-02-23T09:27:14Z</time>
      </trkpt>
      <trkpt lat="43.21168" lon="5.44459">
        <ele>28.5</ele>
        <time>2015-02-23T09:27:17Z</time>
      </trkpt>
      <trkpt lat="43.21169" lon="5.44465">
        <ele>26.57</ele>
        <time>2015-02-23T09:27:21Z</time>
      </trkpt>
      <trkpt lat="43.21161" lon="5.44475">
        <ele>26.57</ele>
        <time>2015-02-23T09:27:28Z</time>
      </trkpt>
      <trkpt lat="43.21154" lon="5.44486">
        <ele>27.05</ele>
        <time>2015-02-23T09:27:39Z</time>
      </trkpt>
      <trkpt lat="43.21156" lon="5.44485">
        <ele>26.57</ele>
        <time>2015-02-23T09:27:41Z</time>
      </trkpt>
      <trkpt lat="43.21146" lon="5.44482">
        <ele>24.65</ele>
        <time>2015-02-23T09:27:44Z</time>
      </trkpt>
      <trkpt lat="43.21146" lon="5.44482">
        <ele>26.57</ele>
        <time>2015-02-23T09:27:52Z</time>
      </trkpt>
      <trkpt lat="43.21133" lon="5.4448">
        <ele>27.53</ele>
        <time>2015-02-23T09:28:05Z</time>
      </trkpt>
      <trkpt lat="43.2113" lon="5.44482">
        <ele>24.65</ele>
        <time>2015-02-23T09:28:09Z</time>
      </trkpt>
      <trkpt lat="43.21129" lon="5.44482">
        <ele>25.13</ele>
        <time>2015-02-23T09:28:10Z</time>
      </trkpt>
      <trkpt lat="43.2112" lon="5.44484">
        <ele>25.13</ele>
        <time>2015-02-23T09:28:15Z</time>
      </trkpt>
      <trkpt lat="43.21117" lon="5.44485">
        <ele>23.69</ele>
        <time>2015-02-23T09:28:18Z</time>
      </trkpt>
      <trkpt lat="43.21109" lon="5.44485">
        <ele>21.77</ele>
        <time>2015-02-23T09:28:27Z</time>
      </trkpt>
      <trkpt lat="43.21098" lon="5.4451">
        <ele>18.4</ele>
        <time>2015-02-23T09:28:47Z</time>
      </trkpt>
      <trkpt lat="43.21096" lon="5.44517">
        <ele>19.36</ele>
        <time>2015-02-23T09:29:06Z</time>
      </trkpt>
      <trkpt lat="43.21096" lon="5.44518">
        <ele>18.88</ele>
        <time>2015-02-23T09:29:07Z</time>
      </trkpt>
      <trkpt lat="43.21098" lon="5.44521">
        <ele>19.36</ele>
        <time>2015-02-23T09:29:09Z</time>
      </trkpt>
      <trkpt lat="43.21099" lon="5.44525">
        <ele>18.88</ele>
        <time>2015-02-23T09:29:12Z</time>
      </trkpt>
      <trkpt lat="43.21096" lon="5.44525">
        <ele>20.81</ele>
        <time>2015-02-23T09:29:14Z</time>
      </trkpt>
      <trkpt lat="43.21093" lon="5.44524">
        <ele>20.32</ele>
        <time>2015-02-23T09:29:18Z</time>
      </trkpt>
      <trkpt lat="43.21079" lon="5.44534">
        <ele>18.88</ele>
        <time>2015-02-23T09:29:38Z</time>
      </trkpt>
      <trkpt lat="43.21078" lon="5.44536">
        <ele>18.88</ele>
        <time>2015-02-23T09:29:40Z</time>
      </trkpt>
      <trkpt lat="43.21068" lon="5.44551">
        <ele>18.4</ele>
        <time>2015-02-23T09:30:01Z</time>
      </trkpt>
      <trkpt lat="43.21067" lon="5.44551">
        <ele>19.36</ele>
        <time>2015-02-23T09:30:02Z</time>
      </trkpt>
      <trkpt lat="43.21065" lon="5.44551">
        <ele>18.88</ele>
        <time>2015-02-23T09:30:05Z</time>
      </trkpt>
      <trkpt lat="43.21058" lon="5.44559">
        <ele>15.52</ele>
        <time>2015-02-23T09:30:21Z</time>
      </trkpt>
      <trkpt lat="43.21048" lon="5.44563">
        <ele>16</ele>
        <time>2015-02-23T09:30:36Z</time>
      </trkpt>
      <trkpt lat="43.21037" lon="5.44565">
        <ele>15.04</ele>
        <time>2015-02-23T09:30:55Z</time>
      </trkpt>
      <trkpt lat="43.21021" lon="5.44572">
        <ele>15.04</ele>
        <time>2015-02-23T09:31:14Z</time>
      </trkpt>
      <trkpt lat="43.21013" lon="5.44581">
        <ele>14.08</ele>
        <time>2015-02-23T09:31:33Z</time>
      </trkpt>
      <trkpt lat="43.21003" lon="5.44578">
        <ele>5.91</ele>
        <time>2015-02-23T09:31:44Z</time>
      </trkpt>
      <trkpt lat="43.21003" lon="5.44578">
        <ele>18.4</ele>
        <time>2015-02-23T09:31:45Z</time>
      </trkpt>
      <trkpt lat="43.21002" lon="5.44578">
        <ele>15.52</ele>
        <time>2015-02-23T09:31:46Z</time>
      </trkpt>
      <trkpt lat="43.21" lon="5.44579">
        <ele>14.56</ele>
        <time>2015-02-23T09:31:49Z</time>
      </trkpt>
      <trkpt lat="43.20994" lon="5.44596">
        <ele>17.92</ele>
        <time>2015-02-23T09:32:06Z</time>
      </trkpt>
      <trkpt lat="43.20987" lon="5.44598">
        <ele>18.88</ele>
        <time>2015-02-23T09:32:21Z</time>
      </trkpt>
      <trkpt lat="43.20977" lon="5.44608">
        <ele>18.88</ele>
        <time>2015-02-23T09:32:35Z</time>
      </trkpt>
      <trkpt lat="43.20967" lon="5.44611">
        <ele>21.77</ele>
        <time>2015-02-23T09:32:49Z</time>
      </trkpt>
      <trkpt lat="43.20958" lon="5.44613">
        <ele>22.73</ele>
        <time>2015-02-23T09:33:04Z</time>
      </trkpt>
      <trkpt lat="43.2095" lon="5.44618">
        <ele>25.61</ele>
        <time>2015-02-23T09:33:19Z</time>
      </trkpt>
      <trkpt lat="43.20941" lon="5.44626">
        <ele>25.13</ele>
        <time>2015-02-23T09:33:34Z</time>
      </trkpt>
      <trkpt lat="43.20934" lon="5.44631">
        <ele>25.13</ele>
        <time>2015-02-23T09:33:45Z</time>
      </trkpt>
      <trkpt lat="43.2093" lon="5.44633">
        <ele>25.61</ele>
        <time>2015-02-23T09:33:55Z</time>
      </trkpt>
      <trkpt lat="43.20924" lon="5.44638">
        <ele>25.61</ele>
        <time>2015-02-23T09:34:02Z</time>
      </trkpt>
      <trkpt lat="43.20918" lon="5.4464">
        <ele>26.57</ele>
        <time>2015-02-23T09:34:12Z</time>
      </trkpt>
      <trkpt lat="43.20907" lon="5.44641">
        <ele>23.69</ele>
        <time>2015-02-23T09:34:28Z</time>
      </trkpt>
      <trkpt lat="43.20904" lon="5.44637">
        <ele>23.69</ele>
        <time>2015-02-23T09:34:33Z</time>
      </trkpt>
      <trkpt lat="43.20897" lon="5.44629">
        <ele>21.29</ele>
        <time>2015-02-23T09:34:49Z</time>
      </trkpt>
      <trkpt lat="43.20894" lon="5.44624">
        <ele>20.32</ele>
        <time>2015-02-23T09:34:56Z</time>
      </trkpt>
      <trkpt lat="43.2089" lon="5.44623">
        <ele>19.36</ele>
        <time>2015-02-23T09:35:00Z</time>
      </trkpt>
      <trkpt lat="43.20889" lon="5.44624">
        <ele>20.32</ele>
        <time>2015-02-23T09:35:02Z</time>
      </trkpt>
      <trkpt lat="43.20883" lon="5.44629">
        <ele>19.84</ele>
        <time>2015-02-23T09:35:08Z</time>
      </trkpt>
      <trkpt lat="43.20874" lon="5.44629">
        <ele>22.25</ele>
        <time>2015-02-23T09:35:23Z</time>
      </trkpt>
      <trkpt lat="43.2087" lon="5.4463">
        <ele>23.69</ele>
        <time>2015-02-23T09:35:38Z</time>
      </trkpt>
      <trkpt lat="43.20864" lon="5.44635">
        <ele>22.73</ele>
        <time>2015-02-23T09:35:51Z</time>
      </trkpt>
      <trkpt lat="43.2086" lon="5.4464">
        <ele>22.73</ele>
        <time>2015-02-23T09:36:09Z</time>
      </trkpt>
      <trkpt lat="43.20849" lon="5.44636">
        <ele>23.21</ele>
        <time>2015-02-23T09:36:24Z</time>
      </trkpt>
      <trkpt lat="43.20844" lon="5.44633">
        <ele>22.25</ele>
        <time>2015-02-23T09:36:38Z</time>
      </trkpt>
      <trkpt lat="43.20837" lon="5.4463">
        <ele>21.77</ele>
        <time>2015-02-23T09:36:53Z</time>
      </trkpt>
      <trkpt lat="43.20835" lon="5.44627">
        <ele>21.29</ele>
        <time>2015-02-23T09:37:02Z</time>
      </trkpt>
      <trkpt lat="43.20826" lon="5.44621">
        <ele>21.29</ele>
        <time>2015-02-23T09:37:13Z</time>
      </trkpt>
      <trkpt lat="43.20813" lon="5.44619">
        <ele>23.21</ele>
        <time>2015-02-23T09:37:28Z</time>
      </trkpt>
      <trkpt lat="43.20808" lon="5.44613">
        <ele>25.61</ele>
        <time>2015-02-23T09:37:41Z</time>
      </trkpt>
      <trkpt lat="43.20805" lon="5.44606">
        <ele>28.02</ele>
        <time>2015-02-23T09:37:56Z</time>
      </trkpt>
      <trkpt lat="43.20799" lon="5.44604">
        <ele>26.09</ele>
        <time>2015-02-23T09:38:11Z</time>
      </trkpt>
      <trkpt lat="43.20798" lon="5.44603">
        <ele>25.61</ele>
        <time>2015-02-23T09:38:13Z</time>
      </trkpt>
      <trkpt lat="43.20791" lon="5.44592">
        <ele>27.05</ele>
        <time>2015-02-23T09:38:29Z</time>
      </trkpt>
      <trkpt lat="43.20786" lon="5.44591">
        <ele>27.05</ele>
        <time>2015-02-23T09:38:37Z</time>
      </trkpt>
      <trkpt lat="43.20775" lon="5.44587">
        <ele>26.09</ele>
        <time>2015-02-23T09:38:51Z</time>
      </trkpt>
      <trkpt lat="43.20763" lon="5.44586">
        <ele>27.53</ele>
        <time>2015-02-23T09:39:07Z</time>
      </trkpt>
      <trkpt lat="43.20758" lon="5.44593">
        <ele>30.42</ele>
        <time>2015-02-23T09:39:22Z</time>
      </trkpt>
      <trkpt lat="43.20755" lon="5.44598">
        <ele>32.34</ele>
        <time>2015-02-23T09:39:39Z</time>
      </trkpt>
      <trkpt lat="43.20752" lon="5.44599">
        <ele>33.78</ele>
        <time>2015-02-23T09:39:54Z</time>
      </trkpt>
      <trkpt lat="43.20748" lon="5.44603">
        <ele>35.23</ele>
        <time>2015-02-23T09:40:18Z</time>
      </trkpt>
      <trkpt lat="43.20735" lon="5.44613">
        <ele>37.15</ele>
        <time>2015-02-23T09:40:35Z</time>
      </trkpt>
      <trkpt lat="43.20733" lon="5.44613">
        <ele>37.15</ele>
        <time>2015-02-23T09:40:38Z</time>
      </trkpt>
      <trkpt lat="43.2073" lon="5.44614">
        <ele>37.63</ele>
        <time>2015-02-23T09:40:58Z</time>
      </trkpt>
      <trkpt lat="43.2073" lon="5.44615">
        <ele>36.67</ele>
        <time>2015-02-23T09:41:23Z</time>
      </trkpt>
      <trkpt lat="43.2073" lon="5.44615">
        <ele>36.19</ele>
        <time>2015-02-23T09:41:49Z</time>
      </trkpt>
      <trkpt lat="43.2073" lon="5.44614">
        <ele>37.15</ele>
        <time>2015-02-23T09:42:18Z</time>
      </trkpt>
      <trkpt lat="43.2073" lon="5.44614">
        <ele>36.67</ele>
        <time>2015-02-23T09:42:35Z</time>
      </trkpt>
      <trkpt lat="43.2073" lon="5.44615">
        <ele>36.19</ele>
        <time>2015-02-23T09:42:55Z</time>
      </trkpt>
      <trkpt lat="43.20727" lon="5.44616">
        <ele>39.07</ele>
        <time>2015-02-23T09:43:07Z</time>
      </trkpt>
      <trkpt lat="43.20727" lon="5.44616">
        <ele>39.07</ele>
        <time>2015-02-23T09:43:08Z</time>
      </trkpt>
      <trkpt lat="43.20723" lon="5.44615">
        <ele>38.59</ele>
        <time>2015-02-23T09:43:11Z</time>
      </trkpt>
      <trkpt lat="43.20715" lon="5.44614">
        <ele>43.4</ele>
        <time>2015-02-23T09:43:32Z</time>
      </trkpt>
      <trkpt lat="43.20712" lon="5.44618">
        <ele>45.8</ele>
        <time>2015-02-23T09:43:47Z</time>
      </trkpt>
      <trkpt lat="43.20708" lon="5.4462">
        <ele>46.76</ele>
        <time>2015-02-23T09:43:57Z</time>
      </trkpt>
      <trkpt lat="43.20702" lon="5.4462">
        <ele>47.72</ele>
        <time>2015-02-23T09:44:02Z</time>
      </trkpt>
      <trkpt lat="43.20696" lon="5.44619">
        <ele>48.68</ele>
        <time>2015-02-23T09:44:08Z</time>
      </trkpt>
      <trkpt lat="43.20691" lon="5.44619">
        <ele>50.61</ele>
        <time>2015-02-23T09:44:19Z</time>
      </trkpt>
      <trkpt lat="43.20689" lon="5.44621">
        <ele>53.97</ele>
        <time>2015-02-23T09:44:36Z</time>
      </trkpt>
      <trkpt lat="43.20686" lon="5.44619">
        <ele>55.41</ele>
        <time>2015-02-23T09:44:47Z</time>
      </trkpt>
      <trkpt lat="43.20681" lon="5.44615">
        <ele>56.37</ele>
        <time>2015-02-23T09:44:54Z</time>
      </trkpt>
      <trkpt lat="43.20676" lon="5.44613">
        <ele>57.34</ele>
        <time>2015-02-23T09:45:07Z</time>
      </trkpt>
      <trkpt lat="43.20676" lon="5.4461">
        <ele>60.7</ele>
        <time>2015-02-23T09:45:20Z</time>
      </trkpt>
      <trkpt lat="43.20679" lon="5.44609">
        <ele>63.1</ele>
        <time>2015-02-23T09:45:35Z</time>
      </trkpt>
      <trkpt lat="43.20678" lon="5.44609">
        <ele>63.1</ele>
        <time>2015-02-23T09:45:41Z</time>
      </trkpt>
      <trkpt lat="43.20676" lon="5.44606">
        <ele>64.07</ele>
        <time>2015-02-23T09:45:51Z</time>
      </trkpt>
      <trkpt lat="43.20672" lon="5.44599">
        <ele>66.95</ele>
        <time>2015-02-23T09:46:09Z</time>
      </trkpt>
      <trkpt lat="43.20672" lon="5.446">
        <ele>67.91</ele>
        <time>2015-02-23T09:46:12Z</time>
      </trkpt>
      <trkpt lat="43.20667" lon="5.44605">
        <ele>69.83</ele>
        <time>2015-02-23T09:46:27Z</time>
      </trkpt>
      <trkpt lat="43.20664" lon="5.44603">
        <ele>73.68</ele>
        <time>2015-02-23T09:46:40Z</time>
      </trkpt>
      <trkpt lat="43.20662" lon="5.44601">
        <ele>74.16</ele>
        <time>2015-02-23T09:46:53Z</time>
      </trkpt>
      <trkpt lat="43.2066" lon="5.44599">
        <ele>77.04</ele>
        <time>2015-02-23T09:47:03Z</time>
      </trkpt>
      <trkpt lat="43.2066" lon="5.44598">
        <ele>78.48</ele>
        <time>2015-02-23T09:47:08Z</time>
      </trkpt>
      <trkpt lat="43.20654" lon="5.44594">
        <ele>79.93</ele>
        <time>2015-02-23T09:47:22Z</time>
      </trkpt>
      <trkpt lat="43.20653" lon="5.44596">
        <ele>78.48</ele>
        <time>2015-02-23T09:47:25Z</time>
      </trkpt>
      <trkpt lat="43.20652" lon="5.44595">
        <ele>81.37</ele>
        <time>2015-02-23T09:47:30Z</time>
      </trkpt>
      <trkpt lat="43.20647" lon="5.44596">
        <ele>81.85</ele>
        <time>2015-02-23T09:47:45Z</time>
      </trkpt>
      <trkpt lat="43.20646" lon="5.446">
        <ele>80.41</ele>
        <time>2015-02-23T09:48:04Z</time>
      </trkpt>
      <trkpt lat="43.20647" lon="5.44616">
        <ele>80.89</ele>
        <time>2015-02-23T09:48:15Z</time>
      </trkpt>
      <trkpt lat="43.20649" lon="5.44634">
        <ele>81.85</ele>
        <time>2015-02-23T09:48:30Z</time>
      </trkpt>
      <trkpt lat="43.20646" lon="5.44653">
        <ele>81.37</ele>
        <time>2015-02-23T09:48:44Z</time>
      </trkpt>
      <trkpt lat="43.20646" lon="5.44669">
        <ele>80.41</ele>
        <time>2015-02-23T09:48:58Z</time>
      </trkpt>
      <trkpt lat="43.20647" lon="5.44685">
        <ele>79.45</ele>
        <time>2015-02-23T09:49:12Z</time>
      </trkpt>
      <trkpt lat="43.20649" lon="5.44691">
        <ele>80.41</ele>
        <time>2015-02-23T09:49:18Z</time>
      </trkpt>
      <trkpt lat="43.20649" lon="5.44694">
        <ele>78.97</ele>
        <time>2015-02-23T09:49:21Z</time>
      </trkpt>
      <trkpt lat="43.20649" lon="5.44699">
        <ele>79.93</ele>
        <time>2015-02-23T09:49:26Z</time>
      </trkpt>
      <trkpt lat="43.20648" lon="5.44711">
        <ele>78</ele>
        <time>2015-02-23T09:49:36Z</time>
      </trkpt>
      <trkpt lat="43.20643" lon="5.44728">
        <ele>75.12</ele>
        <time>2015-02-23T09:49:51Z</time>
      </trkpt>
      <trkpt lat="43.20635" lon="5.44738">
        <ele>74.64</ele>
        <time>2015-02-23T09:50:05Z</time>
      </trkpt>
      <trkpt lat="43.2063" lon="5.44747">
        <ele>73.68</ele>
        <time>2015-02-23T09:50:17Z</time>
      </trkpt>
      <trkpt lat="43.20628" lon="5.44751">
        <ele>74.64</ele>
        <time>2015-02-23T09:50:20Z</time>
      </trkpt>
      <trkpt lat="43.20621" lon="5.44762">
        <ele>73.2</ele>
        <time>2015-02-23T09:50:33Z</time>
      </trkpt>
      <trkpt lat="43.20617" lon="5.44764">
        <ele>73.2</ele>
        <time>2015-02-23T09:50:47Z</time>
      </trkpt>
      <trkpt lat="43.20611" lon="5.44768">
        <ele>73.68</ele>
        <time>2015-02-23T09:51:07Z</time>
      </trkpt>
      <trkpt lat="43.20602" lon="5.44772">
        <ele>75.12</ele>
        <time>2015-02-23T09:51:20Z</time>
      </trkpt>
      <trkpt lat="43.20596" lon="5.44777">
        <ele>77.04</ele>
        <time>2015-02-23T09:51:33Z</time>
      </trkpt>
      <trkpt lat="43.2059" lon="5.44782">
        <ele>78</ele>
        <time>2015-02-23T09:51:45Z</time>
      </trkpt>
      <trkpt lat="43.20586" lon="5.44783">
        <ele>78.97</ele>
        <time>2015-02-23T09:52:00Z</time>
      </trkpt>
      <trkpt lat="43.2058" lon="5.44786">
        <ele>81.37</ele>
        <time>2015-02-23T09:52:17Z</time>
      </trkpt>
      <trkpt lat="43.20578" lon="5.44788">
        <ele>83.29</ele>
        <time>2015-02-23T09:52:25Z</time>
      </trkpt>
      <trkpt lat="43.20566" lon="5.44793">
        <ele>82.81</ele>
        <time>2015-02-23T09:52:40Z</time>
      </trkpt>
      <trkpt lat="43.20561" lon="5.44793">
        <ele>82.33</ele>
        <time>2015-02-23T09:52:53Z</time>
      </trkpt>
      <trkpt lat="43.20556" lon="5.44795">
        <ele>81.85</ele>
        <time>2015-02-23T09:53:04Z</time>
      </trkpt>
      <trkpt lat="43.2055" lon="5.44799">
        <ele>82.33</ele>
        <time>2015-02-23T09:53:21Z</time>
      </trkpt>
      <trkpt lat="43.2055" lon="5.44799">
        <ele>82.33</ele>
        <time>2015-02-23T09:53:46Z</time>
      </trkpt>
      <trkpt lat="43.20542" lon="5.44805">
        <ele>83.29</ele>
        <time>2015-02-23T09:54:03Z</time>
      </trkpt>
      <trkpt lat="43.20538" lon="5.44802">
        <ele>84.25</ele>
        <time>2015-02-23T09:54:19Z</time>
      </trkpt>
      <trkpt lat="43.20538" lon="5.44803">
        <ele>80.89</ele>
        <time>2015-02-23T09:54:22Z</time>
      </trkpt>
      <trkpt lat="43.20538" lon="5.44804">
        <ele>84.25</ele>
        <time>2015-02-23T09:54:23Z</time>
      </trkpt>
      <trkpt lat="43.20538" lon="5.44804">
        <ele>85.21</ele>
        <time>2015-02-23T09:54:26Z</time>
      </trkpt>
      <trkpt lat="43.20536" lon="5.44805">
        <ele>86.18</ele>
        <time>2015-02-23T09:54:44Z</time>
      </trkpt>
      <trkpt lat="43.20535" lon="5.44806">
        <ele>87.14</ele>
        <time>2015-02-23T09:55:02Z</time>
      </trkpt>
      <trkpt lat="43.20534" lon="5.44808">
        <ele>88.1</ele>
        <time>2015-02-23T09:55:08Z</time>
      </trkpt>
      <trkpt lat="43.20525" lon="5.44806">
        <ele>90.5</ele>
        <time>2015-02-23T09:55:20Z</time>
      </trkpt>
      <trkpt lat="43.20521" lon="5.44801">
        <ele>90.5</ele>
        <time>2015-02-23T09:55:34Z</time>
      </trkpt>
      <trkpt lat="43.2052" lon="5.44799">
        <ele>87.14</ele>
        <time>2015-02-23T09:55:49Z</time>
      </trkpt>
      <trkpt lat="43.2052" lon="5.44799">
        <ele>95.31</ele>
        <time>2015-02-23T09:55:50Z</time>
      </trkpt>
      <trkpt lat="43.2052" lon="5.44799">
        <ele>91.46</ele>
        <time>2015-02-23T09:55:51Z</time>
      </trkpt>
      <trkpt lat="43.2052" lon="5.44799">
        <ele>90.98</ele>
        <time>2015-02-23T09:55:53Z</time>
      </trkpt>
      <trkpt lat="43.2052" lon="5.44799">
        <ele>89.54</ele>
        <time>2015-02-23T09:56:08Z</time>
      </trkpt>
      <trkpt lat="43.20518" lon="5.448">
        <ele>90.5</ele>
        <time>2015-02-23T09:56:28Z</time>
      </trkpt>
      <trkpt lat="43.20505" lon="5.44806">
        <ele>90.98</ele>
        <time>2015-02-23T09:56:42Z</time>
      </trkpt>
      <trkpt lat="43.20505" lon="5.44806">
        <ele>90.5</ele>
        <time>2015-02-23T09:56:47Z</time>
      </trkpt>
      <trkpt lat="43.20493" lon="5.44815">
        <ele>90.02</ele>
        <time>2015-02-23T09:57:01Z</time>
      </trkpt>
      <trkpt lat="43.20485" lon="5.44822">
        <ele>90.5</ele>
        <time>2015-02-23T09:57:11Z</time>
      </trkpt>
      <trkpt lat="43.20479" lon="5.44837">
        <ele>90.02</ele>
        <time>2015-02-23T09:57:25Z</time>
      </trkpt>
      <trkpt lat="43.20477" lon="5.44844">
        <ele>90.5</ele>
        <time>2015-02-23T09:57:40Z</time>
      </trkpt>
      <trkpt lat="43.20472" lon="5.44859">
        <ele>89.06</ele>
        <time>2015-02-23T09:57:56Z</time>
      </trkpt>
      <trkpt lat="43.20473" lon="5.44869">
        <ele>87.14</ele>
        <time>2015-02-23T09:58:10Z</time>
      </trkpt>
      <trkpt lat="43.20473" lon="5.44877">
        <ele>86.18</ele>
        <time>2015-02-23T09:58:18Z</time>
      </trkpt>
      <trkpt lat="43.20473" lon="5.44886">
        <ele>85.21</ele>
        <time>2015-02-23T09:58:26Z</time>
      </trkpt>
      <trkpt lat="43.20472" lon="5.44891">
        <ele>84.73</ele>
        <time>2015-02-23T09:58:32Z</time>
      </trkpt>
      <trkpt lat="43.20474" lon="5.44905">
        <ele>82.81</ele>
        <time>2015-02-23T09:58:45Z</time>
      </trkpt>
      <trkpt lat="43.20473" lon="5.44917">
        <ele>81.85</ele>
        <time>2015-02-23T09:58:59Z</time>
      </trkpt>
      <trkpt lat="43.20472" lon="5.44921">
        <ele>79.93</ele>
        <time>2015-02-23T09:59:06Z</time>
      </trkpt>
      <trkpt lat="43.20472" lon="5.44936">
        <ele>79.45</ele>
        <time>2015-02-23T09:59:20Z</time>
      </trkpt>
      <trkpt lat="43.2047" lon="5.44948">
        <ele>78.48</ele>
        <time>2015-02-23T09:59:32Z</time>
      </trkpt>
      <trkpt lat="43.20468" lon="5.44962">
        <ele>76.08</ele>
        <time>2015-02-23T09:59:47Z</time>
      </trkpt>
      <trkpt lat="43.20464" lon="5.44973">
        <ele>75.6</ele>
        <time>2015-02-23T10:00:01Z</time>
      </trkpt>
      <trkpt lat="43.20459" lon="5.44982">
        <ele>73.68</ele>
        <time>2015-02-23T10:00:13Z</time>
      </trkpt>
      <trkpt lat="43.20452" lon="5.44992">
        <ele>71.76</ele>
        <time>2015-02-23T10:00:27Z</time>
      </trkpt>
      <trkpt lat="43.20446" lon="5.45004">
        <ele>69.83</ele>
        <time>2015-02-23T10:00:41Z</time>
      </trkpt>
      <trkpt lat="43.20439" lon="5.45013">
        <ele>68.87</ele>
        <time>2015-02-23T10:00:53Z</time>
      </trkpt>
      <trkpt lat="43.20431" lon="5.45023">
        <ele>66.95</ele>
        <time>2015-02-23T10:01:07Z</time>
      </trkpt>
      <trkpt lat="43.2043" lon="5.45025">
        <ele>66.47</ele>
        <time>2015-02-23T10:01:09Z</time>
      </trkpt>
      <trkpt lat="43.2043" lon="5.45028">
        <ele>65.99</ele>
        <time>2015-02-23T10:01:12Z</time>
      </trkpt>
      <trkpt lat="43.20426" lon="5.4504">
        <ele>65.51</ele>
        <time>2015-02-23T10:01:25Z</time>
      </trkpt>
      <trkpt lat="43.20422" lon="5.45046">
        <ele>64.55</ele>
        <time>2015-02-23T10:01:33Z</time>
      </trkpt>
      <trkpt lat="43.20416" lon="5.45053">
        <ele>64.55</ele>
        <time>2015-02-23T10:01:44Z</time>
      </trkpt>
      <trkpt lat="43.20408" lon="5.4507">
        <ele>62.14</ele>
        <time>2015-02-23T10:02:01Z</time>
      </trkpt>
      <trkpt lat="43.20407" lon="5.45072">
        <ele>62.14</ele>
        <time>2015-02-23T10:02:03Z</time>
      </trkpt>
      <trkpt lat="43.20403" lon="5.45077">
        <ele>61.18</ele>
        <time>2015-02-23T10:02:09Z</time>
      </trkpt>
      <trkpt lat="43.20401" lon="5.4509">
        <ele>60.22</ele>
        <time>2015-02-23T10:02:23Z</time>
      </trkpt>
      <trkpt lat="43.20398" lon="5.45099">
        <ele>58.78</ele>
        <time>2015-02-23T10:02:33Z</time>
      </trkpt>
      <trkpt lat="43.20394" lon="5.4511">
        <ele>57.82</ele>
        <time>2015-02-23T10:02:44Z</time>
      </trkpt>
      <trkpt lat="43.20387" lon="5.45118">
        <ele>56.37</ele>
        <time>2015-02-23T10:02:59Z</time>
      </trkpt>
      <trkpt lat="43.20385" lon="5.4512">
        <ele>55.41</ele>
        <time>2015-02-23T10:03:02Z</time>
      </trkpt>
      <trkpt lat="43.2038" lon="5.45128">
        <ele>55.41</ele>
        <time>2015-02-23T10:03:10Z</time>
      </trkpt>
      <trkpt lat="43.20376" lon="5.4514">
        <ele>52.05</ele>
        <time>2015-02-23T10:03:21Z</time>
      </trkpt>
      <trkpt lat="43.2037" lon="5.45153">
        <ele>52.05</ele>
        <time>2015-02-23T10:03:35Z</time>
      </trkpt>
      <trkpt lat="43.20365" lon="5.4516">
        <ele>50.61</ele>
        <time>2015-02-23T10:03:51Z</time>
      </trkpt>
      <trkpt lat="43.20357" lon="5.45164">
        <ele>50.61</ele>
        <time>2015-02-23T10:04:04Z</time>
      </trkpt>
      <trkpt lat="43.20349" lon="5.45173">
        <ele>49.16</ele>
        <time>2015-02-23T10:04:18Z</time>
      </trkpt>
      <trkpt lat="43.20345" lon="5.4518">
        <ele>48.68</ele>
        <time>2015-02-23T10:04:33Z</time>
      </trkpt>
      <trkpt lat="43.20345" lon="5.45182">
        <ele>48.68</ele>
        <time>2015-02-23T10:04:34Z</time>
      </trkpt>
      <trkpt lat="43.20341" lon="5.45196">
        <ele>47.72</ele>
        <time>2015-02-23T10:04:48Z</time>
      </trkpt>
      <trkpt lat="43.20338" lon="5.45205">
        <ele>47.24</ele>
        <time>2015-02-23T10:04:55Z</time>
      </trkpt>
      <trkpt lat="43.20329" lon="5.45214">
        <ele>46.76</ele>
        <time>2015-02-23T10:05:11Z</time>
      </trkpt>
      <trkpt lat="43.20321" lon="5.45226">
        <ele>44.36</ele>
        <time>2015-02-23T10:05:26Z</time>
      </trkpt>
      <trkpt lat="43.2031" lon="5.45235">
        <ele>42.44</ele>
        <time>2015-02-23T10:05:42Z</time>
      </trkpt>
      <trkpt lat="43.20301" lon="5.45244">
        <ele>41.47</ele>
        <time>2015-02-23T10:05:56Z</time>
      </trkpt>
      <trkpt lat="43.20298" lon="5.45246">
        <ele>40.99</ele>
        <time>2015-02-23T10:06:02Z</time>
      </trkpt>
      <trkpt lat="43.20292" lon="5.45248">
        <ele>40.03</ele>
        <time>2015-02-23T10:06:18Z</time>
      </trkpt>
      <trkpt lat="43.20282" lon="5.45255">
        <ele>36.67</ele>
        <time>2015-02-23T10:06:34Z</time>
      </trkpt>
      <trkpt lat="43.20279" lon="5.45256">
        <ele>35.71</ele>
        <time>2015-02-23T10:06:39Z</time>
      </trkpt>
      <trkpt lat="43.20269" lon="5.45257">
        <ele>34.74</ele>
        <time>2015-02-23T10:06:52Z</time>
      </trkpt>
      <trkpt lat="43.20261" lon="5.45259">
        <ele>34.74</ele>
        <time>2015-02-23T10:07:04Z</time>
      </trkpt>
      <trkpt lat="43.20249" lon="5.45253">
        <ele>32.34</ele>
        <time>2015-02-23T10:07:21Z</time>
      </trkpt>
      <trkpt lat="43.20245" lon="5.4525">
        <ele>36.19</ele>
        <time>2015-02-23T10:07:35Z</time>
      </trkpt>
      <trkpt lat="43.20245" lon="5.4525">
        <ele>35.71</ele>
        <time>2015-02-23T10:07:36Z</time>
      </trkpt>
      <trkpt lat="43.20245" lon="5.4525">
        <ele>32.34</ele>
        <time>2015-02-23T10:07:38Z</time>
      </trkpt>
      <trkpt lat="43.20244" lon="5.45249">
        <ele>31.86</ele>
        <time>2015-02-23T10:07:44Z</time>
      </trkpt>
      <trkpt lat="43.20244" lon="5.45249">
        <ele>33.3</ele>
        <time>2015-02-23T10:07:47Z</time>
      </trkpt>
      <trkpt lat="43.20237" lon="5.45241">
        <ele>32.34</ele>
        <time>2015-02-23T10:08:01Z</time>
      </trkpt>
      <trkpt lat="43.20234" lon="5.45233">
        <ele>32.82</ele>
        <time>2015-02-23T10:08:15Z</time>
      </trkpt>
      <trkpt lat="43.2023" lon="5.45232">
        <ele>31.38</ele>
        <time>2015-02-23T10:08:29Z</time>
      </trkpt>
      <trkpt lat="43.20229" lon="5.45226">
        <ele>32.34</ele>
        <time>2015-02-23T10:08:42Z</time>
      </trkpt>
      <trkpt lat="43.20229" lon="5.45226">
        <ele>32.34</ele>
        <time>2015-02-23T10:09:02Z</time>
      </trkpt>
      <trkpt lat="43.20229" lon="5.45226">
        <ele>31.86</ele>
        <time>2015-02-23T10:09:10Z</time>
      </trkpt>
      <trkpt lat="43.20226" lon="5.45228">
        <ele>32.34</ele>
        <time>2015-02-23T10:09:24Z</time>
      </trkpt>
      <trkpt lat="43.20222" lon="5.45227">
        <ele>34.26</ele>
        <time>2015-02-23T10:09:29Z</time>
      </trkpt>
      <trkpt lat="43.20217" lon="5.45223">
        <ele>34.26</ele>
        <time>2015-02-23T10:09:35Z</time>
      </trkpt>
      <trkpt lat="43.20205" lon="5.45216">
        <ele>32.82</ele>
        <time>2015-02-23T10:09:50Z</time>
      </trkpt>
      <trkpt lat="43.20203" lon="5.45217">
        <ele>30.9</ele>
        <time>2015-02-23T10:09:53Z</time>
      </trkpt>
      <trkpt lat="43.20191" lon="5.45207">
        <ele>29.94</ele>
        <time>2015-02-23T10:10:09Z</time>
      </trkpt>
      <trkpt lat="43.20185" lon="5.45197">
        <ele>29.46</ele>
        <time>2015-02-23T10:10:20Z</time>
      </trkpt>
      <trkpt lat="43.20184" lon="5.45195">
        <ele>30.9</ele>
        <time>2015-02-23T10:10:22Z</time>
      </trkpt>
      <trkpt lat="43.20181" lon="5.45183">
        <ele>30.9</ele>
        <time>2015-02-23T10:10:32Z</time>
      </trkpt>
      <trkpt lat="43.20179" lon="5.45177">
        <ele>31.38</ele>
        <time>2015-02-23T10:10:38Z</time>
      </trkpt>
      <trkpt lat="43.2017" lon="5.45166">
        <ele>28.98</ele>
        <time>2015-02-23T10:10:49Z</time>
      </trkpt>
      <trkpt lat="43.20165" lon="5.45163">
        <ele>31.38</ele>
        <time>2015-02-23T10:10:55Z</time>
      </trkpt>
      <trkpt lat="43.20161" lon="5.45161">
        <ele>29.46</ele>
        <time>2015-02-23T10:11:00Z</time>
      </trkpt>
      <trkpt lat="43.2016" lon="5.4516">
        <ele>28.02</ele>
        <time>2015-02-23T10:11:02Z</time>
      </trkpt>
      <trkpt lat="43.20152" lon="5.45155">
        <ele>26.57</ele>
        <time>2015-02-23T10:11:15Z</time>
      </trkpt>
      <trkpt lat="43.20147" lon="5.45148">
        <ele>26.57</ele>
        <time>2015-02-23T10:11:24Z</time>
      </trkpt>
      <trkpt lat="43.20143" lon="5.45145">
        <ele>26.57</ele>
        <time>2015-02-23T10:11:30Z</time>
      </trkpt>
      <trkpt lat="43.20137" lon="5.45138">
        <ele>26.09</ele>
        <time>2015-02-23T10:11:44Z</time>
      </trkpt>
      <trkpt lat="43.20134" lon="5.45136">
        <ele>25.13</ele>
        <time>2015-02-23T10:12:00Z</time>
      </trkpt>
      <trkpt lat="43.20127" lon="5.4513">
        <ele>24.65</ele>
        <time>2015-02-23T10:12:13Z</time>
      </trkpt>
      <trkpt lat="43.20123" lon="5.45125">
        <ele>23.21</ele>
        <time>2015-02-23T10:12:27Z</time>
      </trkpt>
      <trkpt lat="43.20123" lon="5.45125">
        <ele>23.21</ele>
        <time>2015-02-23T10:12:42Z</time>
      </trkpt>
      <trkpt lat="43.20123" lon="5.45125">
        <ele>21.77</ele>
        <time>2015-02-23T10:13:01Z</time>
      </trkpt>
      <trkpt lat="43.20123" lon="5.45124">
        <ele>22.25</ele>
        <time>2015-02-23T10:13:28Z</time>
      </trkpt>
      <trkpt lat="43.20123" lon="5.45124">
        <ele>20.81</ele>
        <time>2015-02-23T10:13:42Z</time>
      </trkpt>
      <trkpt lat="43.20123" lon="5.45123">
        <ele>23.69</ele>
        <time>2015-02-23T10:13:59Z</time>
      </trkpt>
      <trkpt lat="43.20123" lon="5.45123">
        <ele>22.73</ele>
        <time>2015-02-23T10:14:00Z</time>
      </trkpt>
      <trkpt lat="43.20123" lon="5.45123">
        <ele>21.29</ele>
        <time>2015-02-23T10:14:02Z</time>
      </trkpt>
      <trkpt lat="43.20123" lon="5.45123">
        <ele>21.29</ele>
        <time>2015-02-23T10:14:21Z</time>
      </trkpt>
      <trkpt lat="43.20123" lon="5.45123">
        <ele>17.92</ele>
        <time>2015-02-23T10:14:34Z</time>
      </trkpt>
      <trkpt lat="43.20123" lon="5.45123">
        <ele>21.77</ele>
        <time>2015-02-23T10:14:35Z</time>
      </trkpt>
      <trkpt lat="43.20123" lon="5.45123">
        <ele>9.27</ele>
        <time>2015-02-23T10:14:38Z</time>
      </trkpt>
      <trkpt lat="43.20123" lon="5.45123">
        <ele>11.67</ele>
        <time>2015-02-23T10:14:39Z</time>
      </trkpt>
      <trkpt lat="43.20123" lon="5.45123">
        <ele>22.73</ele>
        <time>2015-02-23T10:14:40Z</time>
      </trkpt>
      <trkpt lat="43.20123" lon="5.45123">
        <ele>23.69</ele>
        <time>2015-02-23T10:14:41Z</time>
      </trkpt>
      <trkpt lat="43.20124" lon="5.45123">
        <ele>20.81</ele>
        <time>2015-02-23T10:14:42Z</time>
      </trkpt>
      <trkpt lat="43.20124" lon="5.45122">
        <ele>20.32</ele>
        <time>2015-02-23T10:14:45Z</time>
      </trkpt>
      <trkpt lat="43.20125" lon="5.45122">
        <ele>24.65</ele>
        <time>2015-02-23T10:14:46Z</time>
      </trkpt>
      <trkpt lat="43.20125" lon="5.45122">
        <ele>18.88</ele>
        <time>2015-02-23T10:14:48Z</time>
      </trkpt>
      <trkpt lat="43.20126" lon="5.45122">
        <ele>21.77</ele>
        <time>2015-02-23T10:14:49Z</time>
      </trkpt>
      <trkpt lat="43.20126" lon="5.45121">
        <ele>7.35</ele>
        <time>2015-02-23T10:14:51Z</time>
      </trkpt>
      <trkpt lat="43.20126" lon="5.45121">
        <ele>19.36</ele>
        <time>2015-02-23T10:14:52Z</time>
      </trkpt>
      <trkpt lat="43.20127" lon="5.45121">
        <ele>23.21</ele>
        <time>2015-02-23T10:14:53Z</time>
      </trkpt>
      <trkpt lat="43.20127" lon="5.45121">
        <ele>25.13</ele>
        <time>2015-02-23T10:14:54Z</time>
      </trkpt>
      <trkpt lat="43.20127" lon="5.45121">
        <ele>22.25</ele>
        <time>2015-02-23T10:14:55Z</time>
      </trkpt>
      <trkpt lat="43.20128" lon="5.4512">
        <ele>23.69</ele>
        <time>2015-02-23T10:14:56Z</time>
      </trkpt>
      <trkpt lat="43.20128" lon="5.4512">
        <ele>18.88</ele>
        <time>2015-02-23T10:14:57Z</time>
      </trkpt>
      <trkpt lat="43.20128" lon="5.4512">
        <ele>15.52</ele>
        <time>2015-02-23T10:14:58Z</time>
      </trkpt>
      <trkpt lat="43.20129" lon="5.4512">
        <ele>21.29</ele>
        <time>2015-02-23T10:14:59Z</time>
      </trkpt>
      <trkpt lat="43.20129" lon="5.4512">
        <ele>16.48</ele>
        <time>2015-02-23T10:15:01Z</time>
      </trkpt>
      <trkpt lat="43.20129" lon="5.45119">
        <ele>23.69</ele>
        <time>2015-02-23T10:15:02Z</time>
      </trkpt>
      <trkpt lat="43.2013" lon="5.45119">
        <ele>21.29</ele>
        <time>2015-02-23T10:15:04Z</time>
      </trkpt>
      <trkpt lat="43.20131" lon="5.45119">
        <ele>20.32</ele>
        <time>2015-02-23T10:15:07Z</time>
      </trkpt>
      <trkpt lat="43.20131" lon="5.45118">
        <ele>23.69</ele>
        <time>2015-02-23T10:15:08Z</time>
      </trkpt>
      <trkpt lat="43.20131" lon="5.45118">
        <ele>21.77</ele>
        <time>2015-02-23T10:15:09Z</time>
      </trkpt>
      <trkpt lat="43.20131" lon="5.45118">
        <ele>12.15</ele>
        <time>2015-02-23T10:15:10Z</time>
      </trkpt>
      <trkpt lat="43.20129" lon="5.45138">
        <ele>22.25</ele>
        <time>2015-02-23T10:15:40Z</time>
      </trkpt>
      <trkpt lat="43.20122" lon="5.45126">
        <ele>25.13</ele>
        <time>2015-02-23T10:15:56Z</time>
      </trkpt>
      <trkpt lat="43.20125" lon="5.45133">
        <ele>27.05</ele>
        <time>2015-02-23T10:16:09Z</time>
      </trkpt>
      <trkpt lat="43.20125" lon="5.45133">
        <ele>26.57</ele>
        <time>2015-02-23T10:16:17Z</time>
      </trkpt>
      <trkpt lat="43.20125" lon="5.45135">
        <ele>25.61</ele>
        <time>2015-02-23T10:16:30Z</time>
      </trkpt>
      <trkpt lat="43.20129" lon="5.45135">
        <ele>26.57</ele>
        <time>2015-02-23T10:16:45Z</time>
      </trkpt>
      <trkpt lat="43.20132" lon="5.45136">
        <ele>26.57</ele>
        <time>2015-02-23T10:16:48Z</time>
      </trkpt>
      <trkpt lat="43.20134" lon="5.45137">
        <ele>28.02</ele>
        <time>2015-02-23T10:16:50Z</time>
      </trkpt>
      <trkpt lat="43.20142" lon="5.45143">
        <ele>29.94</ele>
        <time>2015-02-23T10:17:04Z</time>
      </trkpt>
      <trkpt lat="43.20146" lon="5.45147">
        <ele>28.98</ele>
        <time>2015-02-23T10:17:12Z</time>
      </trkpt>
      <trkpt lat="43.2015" lon="5.45152">
        <ele>30.42</ele>
        <time>2015-02-23T10:17:25Z</time>
      </trkpt>
      <trkpt lat="43.20158" lon="5.45158">
        <ele>29.94</ele>
        <time>2015-02-23T10:17:37Z</time>
      </trkpt>
      <trkpt lat="43.20168" lon="5.45167">
        <ele>32.82</ele>
        <time>2015-02-23T10:17:52Z</time>
      </trkpt>
      <trkpt lat="43.20172" lon="5.4517">
        <ele>32.82</ele>
        <time>2015-02-23T10:18:02Z</time>
      </trkpt>
      <trkpt lat="43.20174" lon="5.45173">
        <ele>35.71</ele>
        <time>2015-02-23T10:18:05Z</time>
      </trkpt>
      <trkpt lat="43.20177" lon="5.45174">
        <ele>33.3</ele>
        <time>2015-02-23T10:18:08Z</time>
      </trkpt>
      <trkpt lat="43.20178" lon="5.45175">
        <ele>34.74</ele>
        <time>2015-02-23T10:18:10Z</time>
      </trkpt>
      <trkpt lat="43.20184" lon="5.45186">
        <ele>32.82</ele>
        <time>2015-02-23T10:18:22Z</time>
      </trkpt>
      <trkpt lat="43.20193" lon="5.45192">
        <ele>33.3</ele>
        <time>2015-02-23T10:18:37Z</time>
      </trkpt>
      <trkpt lat="43.20193" lon="5.45193">
        <ele>33.3</ele>
        <time>2015-02-23T10:18:38Z</time>
      </trkpt>
      <trkpt lat="43.20199" lon="5.45209">
        <ele>31.86</ele>
        <time>2015-02-23T10:18:54Z</time>
      </trkpt>
      <trkpt lat="43.20199" lon="5.45212">
        <ele>33.3</ele>
        <time>2015-02-23T10:18:57Z</time>
      </trkpt>
      <trkpt lat="43.20204" lon="5.45216">
        <ele>34.26</ele>
        <time>2015-02-23T10:19:11Z</time>
      </trkpt>
      <trkpt lat="43.20207" lon="5.45217">
        <ele>34.26</ele>
        <time>2015-02-23T10:19:15Z</time>
      </trkpt>
      <trkpt lat="43.20218" lon="5.45224">
        <ele>36.19</ele>
        <time>2015-02-23T10:19:28Z</time>
      </trkpt>
      <trkpt lat="43.20219" lon="5.45225">
        <ele>34.74</ele>
        <time>2015-02-23T10:19:30Z</time>
      </trkpt>
      <trkpt lat="43.20231" lon="5.45236">
        <ele>33.78</ele>
        <time>2015-02-23T10:19:45Z</time>
      </trkpt>
      <trkpt lat="43.20236" lon="5.45242">
        <ele>32.82</ele>
        <time>2015-02-23T10:19:58Z</time>
      </trkpt>
      <trkpt lat="43.20237" lon="5.45245">
        <ele>33.3</ele>
        <time>2015-02-23T10:20:06Z</time>
      </trkpt>
      <trkpt lat="43.20242" lon="5.45255">
        <ele>32.82</ele>
        <time>2015-02-23T10:20:22Z</time>
      </trkpt>
      <trkpt lat="43.20248" lon="5.45259">
        <ele>33.3</ele>
        <time>2015-02-23T10:20:37Z</time>
      </trkpt>
      <trkpt lat="43.20248" lon="5.4526">
        <ele>32.82</ele>
        <time>2015-02-23T10:20:39Z</time>
      </trkpt>
      <trkpt lat="43.20248" lon="5.45266">
        <ele>31.86</ele>
        <time>2015-02-23T10:20:51Z</time>
      </trkpt>
      <trkpt lat="43.20251" lon="5.45277">
        <ele>32.82</ele>
        <time>2015-02-23T10:21:02Z</time>
      </trkpt>
      <trkpt lat="43.20254" lon="5.45282">
        <ele>34.26</ele>
        <time>2015-02-23T10:21:08Z</time>
      </trkpt>
      <trkpt lat="43.20255" lon="5.45286">
        <ele>33.3</ele>
        <time>2015-02-23T10:21:12Z</time>
      </trkpt>
      <trkpt lat="43.20256" lon="5.45303">
        <ele>32.82</ele>
        <time>2015-02-23T10:21:25Z</time>
      </trkpt>
      <trkpt lat="43.20258" lon="5.45319">
        <ele>32.82</ele>
        <time>2015-02-23T10:21:40Z</time>
      </trkpt>
      <trkpt lat="43.2026" lon="5.45335">
        <ele>34.74</ele>
        <time>2015-02-23T10:21:55Z</time>
      </trkpt>
      <trkpt lat="43.2026" lon="5.4534">
        <ele>34.26</ele>
        <time>2015-02-23T10:21:59Z</time>
      </trkpt>
      <trkpt lat="43.20263" lon="5.45354">
        <ele>35.23</ele>
        <time>2015-02-23T10:22:14Z</time>
      </trkpt>
      <trkpt lat="43.20264" lon="5.45359">
        <ele>35.23</ele>
        <time>2015-02-23T10:22:30Z</time>
      </trkpt>
      <trkpt lat="43.20264" lon="5.45363">
        <ele>35.71</ele>
        <time>2015-02-23T10:22:41Z</time>
      </trkpt>
      <trkpt lat="43.20265" lon="5.45368">
        <ele>35.71</ele>
        <time>2015-02-23T10:22:44Z</time>
      </trkpt>
      <trkpt lat="43.20268" lon="5.45384">
        <ele>35.23</ele>
        <time>2015-02-23T10:22:59Z</time>
      </trkpt>
      <trkpt lat="43.20271" lon="5.45394">
        <ele>35.23</ele>
        <time>2015-02-23T10:23:08Z</time>
      </trkpt>
      <trkpt lat="43.20276" lon="5.45406">
        <ele>34.74</ele>
        <time>2015-02-23T10:23:21Z</time>
      </trkpt>
      <trkpt lat="43.20282" lon="5.4542">
        <ele>33.78</ele>
        <time>2015-02-23T10:23:35Z</time>
      </trkpt>
      <trkpt lat="43.20289" lon="5.45432">
        <ele>33.3</ele>
        <time>2015-02-23T10:23:48Z</time>
      </trkpt>
      <trkpt lat="43.20296" lon="5.45437">
        <ele>34.26</ele>
        <time>2015-02-23T10:24:00Z</time>
      </trkpt>
      <trkpt lat="43.203" lon="5.4544">
        <ele>34.74</ele>
        <time>2015-02-23T10:24:06Z</time>
      </trkpt>
      <trkpt lat="43.20302" lon="5.45441">
        <ele>34.74</ele>
        <time>2015-02-23T10:24:08Z</time>
      </trkpt>
      <trkpt lat="43.20304" lon="5.45443">
        <ele>35.71</ele>
        <time>2015-02-23T10:24:10Z</time>
      </trkpt>
      <trkpt lat="43.20307" lon="5.4545">
        <ele>35.71</ele>
        <time>2015-02-23T10:24:23Z</time>
      </trkpt>
      <trkpt lat="43.20314" lon="5.45455">
        <ele>36.67</ele>
        <time>2015-02-23T10:24:37Z</time>
      </trkpt>
      <trkpt lat="43.20314" lon="5.45455">
        <ele>36.67</ele>
        <time>2015-02-23T10:25:00Z</time>
      </trkpt>
      <trkpt lat="43.20314" lon="5.45455">
        <ele>36.67</ele>
        <time>2015-02-23T10:25:24Z</time>
      </trkpt>
      <trkpt lat="43.20314" lon="5.45455">
        <ele>40.99</ele>
        <time>2015-02-23T10:25:43Z</time>
      </trkpt>
      <trkpt lat="43.20314" lon="5.45455">
        <ele>36.67</ele>
        <time>2015-02-23T10:25:44Z</time>
      </trkpt>
      <trkpt lat="43.20314" lon="5.45456">
        <ele>36.67</ele>
        <time>2015-02-23T10:26:07Z</time>
      </trkpt>
      <trkpt lat="43.20314" lon="5.45455">
        <ele>37.15</ele>
        <time>2015-02-23T10:26:37Z</time>
      </trkpt>
      <trkpt lat="43.20314" lon="5.45455">
        <ele>32.34</ele>
        <time>2015-02-23T10:26:51Z</time>
      </trkpt>
      <trkpt lat="43.20314" lon="5.45455">
        <ele>39.07</ele>
        <time>2015-02-23T10:26:52Z</time>
      </trkpt>
      <trkpt lat="43.20314" lon="5.45455">
        <ele>35.71</ele>
        <time>2015-02-23T10:26:53Z</time>
      </trkpt>
      <trkpt lat="43.20314" lon="5.45455">
        <ele>37.15</ele>
        <time>2015-02-23T10:27:26Z</time>
      </trkpt>
      <trkpt lat="43.20314" lon="5.45455">
        <ele>37.63</ele>
        <time>2015-02-23T10:27:43Z</time>
      </trkpt>
      <trkpt lat="43.20314" lon="5.45454">
        <ele>38.11</ele>
        <time>2015-02-23T10:28:03Z</time>
      </trkpt>
      <trkpt lat="43.20319" lon="5.45447">
        <ele>39.07</ele>
        <time>2015-02-23T10:28:17Z</time>
      </trkpt>
      <trkpt lat="43.20325" lon="5.45442">
        <ele>39.55</ele>
        <time>2015-02-23T10:28:32Z</time>
      </trkpt>
      <trkpt lat="43.20331" lon="5.45439">
        <ele>41.47</ele>
        <time>2015-02-23T10:28:41Z</time>
      </trkpt>
      <trkpt lat="43.20336" lon="5.45434">
        <ele>41.95</ele>
        <time>2015-02-23T10:28:47Z</time>
      </trkpt>
      <trkpt lat="43.20339" lon="5.45425">
        <ele>42.44</ele>
        <time>2015-02-23T10:28:57Z</time>
      </trkpt>
      <trkpt lat="43.20348" lon="5.4541">
        <ele>42.92</ele>
        <time>2015-02-23T10:29:12Z</time>
      </trkpt>
      <trkpt lat="43.2035" lon="5.45407">
        <ele>43.88</ele>
        <time>2015-02-23T10:29:15Z</time>
      </trkpt>
      <trkpt lat="43.20355" lon="5.45395">
        <ele>43.88</ele>
        <time>2015-02-23T10:29:29Z</time>
      </trkpt>
      <trkpt lat="43.20359" lon="5.45397">
        <ele>43.4</ele>
        <time>2015-02-23T10:29:43Z</time>
      </trkpt>
      <trkpt lat="43.20356" lon="5.4539">
        <ele>46.76</ele>
        <time>2015-02-23T10:29:56Z</time>
      </trkpt>
      <trkpt lat="43.20359" lon="5.45382">
        <ele>44.36</ele>
        <time>2015-02-23T10:30:05Z</time>
      </trkpt>
      <trkpt lat="43.20362" lon="5.45368">
        <ele>43.88</ele>
        <time>2015-02-23T10:30:18Z</time>
      </trkpt>
      <trkpt lat="43.20367" lon="5.45355">
        <ele>45.32</ele>
        <time>2015-02-23T10:30:31Z</time>
      </trkpt>
      <trkpt lat="43.20371" lon="5.45341">
        <ele>47.24</ele>
        <time>2015-02-23T10:30:45Z</time>
      </trkpt>
      <trkpt lat="43.20371" lon="5.45339">
        <ele>45.8</ele>
        <time>2015-02-23T10:30:47Z</time>
      </trkpt>
      <trkpt lat="43.20375" lon="5.45331">
        <ele>47.72</ele>
        <time>2015-02-23T10:30:56Z</time>
      </trkpt>
      <trkpt lat="43.20376" lon="5.45316">
        <ele>50.13</ele>
        <time>2015-02-23T10:31:10Z</time>
      </trkpt>
      <trkpt lat="43.20376" lon="5.45316">
        <ele>50.13</ele>
        <time>2015-02-23T10:31:11Z</time>
      </trkpt>
      <trkpt lat="43.20373" lon="5.45302">
        <ele>51.57</ele>
        <time>2015-02-23T10:31:23Z</time>
      </trkpt>
      <trkpt lat="43.20369" lon="5.45288">
        <ele>52.05</ele>
        <time>2015-02-23T10:31:37Z</time>
      </trkpt>
      <trkpt lat="43.20364" lon="5.45281">
        <ele>51.57</ele>
        <time>2015-02-23T10:31:45Z</time>
      </trkpt>
      <trkpt lat="43.20362" lon="5.4528">
        <ele>52.53</ele>
        <time>2015-02-23T10:31:47Z</time>
      </trkpt>
      <trkpt lat="43.20359" lon="5.45277">
        <ele>51.09</ele>
        <time>2015-02-23T10:31:53Z</time>
      </trkpt>
      <trkpt lat="43.20359" lon="5.45277">
        <ele>52.53</ele>
        <time>2015-02-23T10:31:55Z</time>
      </trkpt>
      <trkpt lat="43.20358" lon="5.45275">
        <ele>52.05</ele>
        <time>2015-02-23T10:31:57Z</time>
      </trkpt>
      <trkpt lat="43.20353" lon="5.45271">
        <ele>51.09</ele>
        <time>2015-02-23T10:32:03Z</time>
      </trkpt>
      <trkpt lat="43.20352" lon="5.45267">
        <ele>51.09</ele>
        <time>2015-02-23T10:32:06Z</time>
      </trkpt>
      <trkpt lat="43.2035" lon="5.45256">
        <ele>50.61</ele>
        <time>2015-02-23T10:32:23Z</time>
      </trkpt>
      <trkpt lat="43.20347" lon="5.4524">
        <ele>50.13</ele>
        <time>2015-02-23T10:32:37Z</time>
      </trkpt>
      <trkpt lat="43.20345" lon="5.45227">
        <ele>50.13</ele>
        <time>2015-02-23T10:32:49Z</time>
      </trkpt>
      <trkpt lat="43.20341" lon="5.45213">
        <ele>50.13</ele>
        <time>2015-02-23T10:33:03Z</time>
      </trkpt>
      <trkpt lat="43.20339" lon="5.45198">
        <ele>49.65</ele>
        <time>2015-02-23T10:33:19Z</time>
      </trkpt>
      <trkpt lat="43.20343" lon="5.45185">
        <ele>50.13</ele>
        <time>2015-02-23T10:33:33Z</time>
      </trkpt>
      <trkpt lat="43.20347" lon="5.45172">
        <ele>51.09</ele>
        <time>2015-02-23T10:33:46Z</time>
      </trkpt>
      <trkpt lat="43.20354" lon="5.45162">
        <ele>52.53</ele>
        <time>2015-02-23T10:34:01Z</time>
      </trkpt>
      <trkpt lat="43.20361" lon="5.45158">
        <ele>53.97</ele>
        <time>2015-02-23T10:34:13Z</time>
      </trkpt>
      <trkpt lat="43.20366" lon="5.45154">
        <ele>54.45</ele>
        <time>2015-02-23T10:34:27Z</time>
      </trkpt>
      <trkpt lat="43.20373" lon="5.45145">
        <ele>55.89</ele>
        <time>2015-02-23T10:34:41Z</time>
      </trkpt>
      <trkpt lat="43.20379" lon="5.45129">
        <ele>57.34</ele>
        <time>2015-02-23T10:34:57Z</time>
      </trkpt>
      <trkpt lat="43.20385" lon="5.45117">
        <ele>59.26</ele>
        <time>2015-02-23T10:35:11Z</time>
      </trkpt>
      <trkpt lat="43.20392" lon="5.45112">
        <ele>60.7</ele>
        <time>2015-02-23T10:35:24Z</time>
      </trkpt>
      <trkpt lat="43.20396" lon="5.45101">
        <ele>61.18</ele>
        <time>2015-02-23T10:35:37Z</time>
      </trkpt>
      <trkpt lat="43.204" lon="5.45089">
        <ele>62.62</ele>
        <time>2015-02-23T10:35:50Z</time>
      </trkpt>
      <trkpt lat="43.20403" lon="5.45078">
        <ele>64.07</ele>
        <time>2015-02-23T10:36:04Z</time>
      </trkpt>
      <trkpt lat="43.20408" lon="5.45067">
        <ele>65.03</ele>
        <time>2015-02-23T10:36:19Z</time>
      </trkpt>
      <trkpt lat="43.20412" lon="5.45056">
        <ele>65.99</ele>
        <time>2015-02-23T10:36:32Z</time>
      </trkpt>
      <trkpt lat="43.20416" lon="5.45051">
        <ele>67.91</ele>
        <time>2015-02-23T10:36:41Z</time>
      </trkpt>
      <trkpt lat="43.20422" lon="5.45043">
        <ele>68.39</ele>
        <time>2015-02-23T10:36:55Z</time>
      </trkpt>
      <trkpt lat="43.20429" lon="5.4503">
        <ele>71.76</ele>
        <time>2015-02-23T10:37:12Z</time>
      </trkpt>
      <trkpt lat="43.20432" lon="5.45017">
        <ele>71.27</ele>
        <time>2015-02-23T10:37:26Z</time>
      </trkpt>
      <trkpt lat="43.20439" lon="5.4501">
        <ele>71.76</ele>
        <time>2015-02-23T10:37:41Z</time>
      </trkpt>
      <trkpt lat="43.20445" lon="5.45002">
        <ele>74.16</ele>
        <time>2015-02-23T10:37:54Z</time>
      </trkpt>
      <trkpt lat="43.2045" lon="5.44989">
        <ele>74.16</ele>
        <time>2015-02-23T10:38:10Z</time>
      </trkpt>
      <trkpt lat="43.20452" lon="5.44987">
        <ele>77.52</ele>
        <time>2015-02-23T10:38:22Z</time>
      </trkpt>
      <trkpt lat="43.20458" lon="5.44976">
        <ele>78</ele>
        <time>2015-02-23T10:38:37Z</time>
      </trkpt>
      <trkpt lat="43.20463" lon="5.44969">
        <ele>80.41</ele>
        <time>2015-02-23T10:38:52Z</time>
      </trkpt>
      <trkpt lat="43.20467" lon="5.44958">
        <ele>80.89</ele>
        <time>2015-02-23T10:39:03Z</time>
      </trkpt>
      <trkpt lat="43.20466" lon="5.44951">
        <ele>80.89</ele>
        <time>2015-02-23T10:39:10Z</time>
      </trkpt>
      <trkpt lat="43.20469" lon="5.4494">
        <ele>82.33</ele>
        <time>2015-02-23T10:39:23Z</time>
      </trkpt>
      <trkpt lat="43.20471" lon="5.44931">
        <ele>83.29</ele>
        <time>2015-02-23T10:39:34Z</time>
      </trkpt>
      <trkpt lat="43.2047" lon="5.44918">
        <ele>84.25</ele>
        <time>2015-02-23T10:39:50Z</time>
      </trkpt>
      <trkpt lat="43.2047" lon="5.44918">
        <ele>84.73</ele>
        <time>2015-02-23T10:39:52Z</time>
      </trkpt>
      <trkpt lat="43.20472" lon="5.4491">
        <ele>86.18</ele>
        <time>2015-02-23T10:40:06Z</time>
      </trkpt>
      <trkpt lat="43.20473" lon="5.44899">
        <ele>87.62</ele>
        <time>2015-02-23T10:40:21Z</time>
      </trkpt>
      <trkpt lat="43.20472" lon="5.44892">
        <ele>88.58</ele>
        <time>2015-02-23T10:40:27Z</time>
      </trkpt>
      <trkpt lat="43.20472" lon="5.44888">
        <ele>89.54</ele>
        <time>2015-02-23T10:40:44Z</time>
      </trkpt>
      <trkpt lat="43.20473" lon="5.44879">
        <ele>90.98</ele>
        <time>2015-02-23T10:40:57Z</time>
      </trkpt>
      <trkpt lat="43.20471" lon="5.44865">
        <ele>92.42</ele>
        <time>2015-02-23T10:41:11Z</time>
      </trkpt>
      <trkpt lat="43.20471" lon="5.44855">
        <ele>92.9</ele>
        <time>2015-02-23T10:41:24Z</time>
      </trkpt>
      <trkpt lat="43.20473" lon="5.44842">
        <ele>95.31</ele>
        <time>2015-02-23T10:41:37Z</time>
      </trkpt>
      <trkpt lat="43.20478" lon="5.44833">
        <ele>96.75</ele>
        <time>2015-02-23T10:41:53Z</time>
      </trkpt>
      <trkpt lat="43.20482" lon="5.44822">
        <ele>95.79</ele>
        <time>2015-02-23T10:42:07Z</time>
      </trkpt>
      <trkpt lat="43.20491" lon="5.4481">
        <ele>94.35</ele>
        <time>2015-02-23T10:42:24Z</time>
      </trkpt>
      <trkpt lat="43.20496" lon="5.44807">
        <ele>95.31</ele>
        <time>2015-02-23T10:42:40Z</time>
      </trkpt>
      <trkpt lat="43.20499" lon="5.44806">
        <ele>94.83</ele>
        <time>2015-02-23T10:42:42Z</time>
      </trkpt>
      <trkpt lat="43.20501" lon="5.44805">
        <ele>96.27</ele>
        <time>2015-02-23T10:42:45Z</time>
      </trkpt>
      <trkpt lat="43.20507" lon="5.44803">
        <ele>97.23</ele>
        <time>2015-02-23T10:42:58Z</time>
      </trkpt>
      <trkpt lat="43.20511" lon="5.44801">
        <ele>96.27</ele>
        <time>2015-02-23T10:43:01Z</time>
      </trkpt>
      <trkpt lat="43.20512" lon="5.44801">
        <ele>96.27</ele>
        <time>2015-02-23T10:43:03Z</time>
      </trkpt>
      <trkpt lat="43.20517" lon="5.44801">
        <ele>96.27</ele>
        <time>2015-02-23T10:43:23Z</time>
      </trkpt>
      <trkpt lat="43.2052" lon="5.44802">
        <ele>96.27</ele>
        <time>2015-02-23T10:43:25Z</time>
      </trkpt>
      <trkpt lat="43.20524" lon="5.44803">
        <ele>94.35</ele>
        <time>2015-02-23T10:43:31Z</time>
      </trkpt>
      <trkpt lat="43.20524" lon="5.44803">
        <ele>93.87</ele>
        <time>2015-02-23T10:43:32Z</time>
      </trkpt>
      <trkpt lat="43.20527" lon="5.44804">
        <ele>90.5</ele>
        <time>2015-02-23T10:43:39Z</time>
      </trkpt>
      <trkpt lat="43.20531" lon="5.44805">
        <ele>93.39</ele>
        <time>2015-02-23T10:43:45Z</time>
      </trkpt>
      <trkpt lat="43.20531" lon="5.44805">
        <ele>91.94</ele>
        <time>2015-02-23T10:43:48Z</time>
      </trkpt>
      <trkpt lat="43.20533" lon="5.44804">
        <ele>90.98</ele>
        <time>2015-02-23T10:43:50Z</time>
      </trkpt>
      <trkpt lat="43.20538" lon="5.44798">
        <ele>90.5</ele>
        <time>2015-02-23T10:44:03Z</time>
      </trkpt>
      <trkpt lat="43.20538" lon="5.44798">
        <ele>88.58</ele>
        <time>2015-02-23T10:44:11Z</time>
      </trkpt>
      <trkpt lat="43.20538" lon="5.44798">
        <ele>90.02</ele>
        <time>2015-02-23T10:44:25Z</time>
      </trkpt>
      <trkpt lat="43.20542" lon="5.44794">
        <ele>90.02</ele>
        <time>2015-02-23T10:44:40Z</time>
      </trkpt>
      <trkpt lat="43.20544" lon="5.44793">
        <ele>89.06</ele>
        <time>2015-02-23T10:44:44Z</time>
      </trkpt>
      <trkpt lat="43.20558" lon="5.44789">
        <ele>88.1</ele>
        <time>2015-02-23T10:44:53Z</time>
      </trkpt>
      <trkpt lat="43.20567" lon="5.44785">
        <ele>84.73</ele>
        <time>2015-02-23T10:45:04Z</time>
      </trkpt>
      <trkpt lat="43.20567" lon="5.44785">
        <ele>83.29</ele>
        <time>2015-02-23T10:45:18Z</time>
      </trkpt>
      <trkpt lat="43.20568" lon="5.44782">
        <ele>83.29</ele>
        <time>2015-02-23T10:45:28Z</time>
      </trkpt>
      <trkpt lat="43.20585" lon="5.44773">
        <ele>81.85</ele>
        <time>2015-02-23T10:45:41Z</time>
      </trkpt>
      <trkpt lat="43.20609" lon="5.44763">
        <ele>81.85</ele>
        <time>2015-02-23T10:45:56Z</time>
      </trkpt>
      <trkpt lat="43.20611" lon="5.44761">
        <ele>84.25</ele>
        <time>2015-02-23T10:45:59Z</time>
      </trkpt>
      <trkpt lat="43.20625" lon="5.44748">
        <ele>81.37</ele>
        <time>2015-02-23T10:46:14Z</time>
      </trkpt>
      <trkpt lat="43.20631" lon="5.44735">
        <ele>81.85</ele>
        <time>2015-02-23T10:46:31Z</time>
      </trkpt>
      <trkpt lat="43.20632" lon="5.4473">
        <ele>84.25</ele>
        <time>2015-02-23T10:46:38Z</time>
      </trkpt>
      <trkpt lat="43.20634" lon="5.44726">
        <ele>82.81</ele>
        <time>2015-02-23T10:46:49Z</time>
      </trkpt>
      <trkpt lat="43.20635" lon="5.44723">
        <ele>83.77</ele>
        <time>2015-02-23T10:47:04Z</time>
      </trkpt>
      <trkpt lat="43.20644" lon="5.44716">
        <ele>85.21</ele>
        <time>2015-02-23T10:47:18Z</time>
      </trkpt>
      <trkpt lat="43.20645" lon="5.44712">
        <ele>89.06</ele>
        <time>2015-02-23T10:47:23Z</time>
      </trkpt>
      <trkpt lat="43.20645" lon="5.44711">
        <ele>88.1</ele>
        <time>2015-02-23T10:47:24Z</time>
      </trkpt>
      <trkpt lat="43.20646" lon="5.44708">
        <ele>89.06</ele>
        <time>2015-02-23T10:47:40Z</time>
      </trkpt>
      <trkpt lat="43.20646" lon="5.44705">
        <ele>86.66</ele>
        <time>2015-02-23T10:47:49Z</time>
      </trkpt>
      <trkpt lat="43.20645" lon="5.44689">
        <ele>89.06</ele>
        <time>2015-02-23T10:48:04Z</time>
      </trkpt>
      <trkpt lat="43.20644" lon="5.44687">
        <ele>87.62</ele>
        <time>2015-02-23T10:48:06Z</time>
      </trkpt>
      <trkpt lat="43.20644" lon="5.44679">
        <ele>85.21</ele>
        <time>2015-02-23T10:48:13Z</time>
      </trkpt>
      <trkpt lat="43.20643" lon="5.44668">
        <ele>89.06</ele>
        <time>2015-02-23T10:48:24Z</time>
      </trkpt>
      <trkpt lat="43.20642" lon="5.44667">
        <ele>88.1</ele>
        <time>2015-02-23T10:48:25Z</time>
      </trkpt>
      <trkpt lat="43.20641" lon="5.44652">
        <ele>87.14</ele>
        <time>2015-02-23T10:48:40Z</time>
      </trkpt>
      <trkpt lat="43.20641" lon="5.44642">
        <ele>88.1</ele>
        <time>2015-02-23T10:48:53Z</time>
      </trkpt>
      <trkpt lat="43.20641" lon="5.44626">
        <ele>88.1</ele>
        <time>2015-02-23T10:49:08Z</time>
      </trkpt>
      <trkpt lat="43.20639" lon="5.44612">
        <ele>88.58</ele>
        <time>2015-02-23T10:49:20Z</time>
      </trkpt>
      <trkpt lat="43.20641" lon="5.44599">
        <ele>89.54</ele>
        <time>2015-02-23T10:49:36Z</time>
      </trkpt>
      <trkpt lat="43.20642" lon="5.44597">
        <ele>90.02</ele>
        <time>2015-02-23T10:49:55Z</time>
      </trkpt>
      <trkpt lat="43.20642" lon="5.44597">
        <ele>89.06</ele>
        <time>2015-02-23T10:50:25Z</time>
      </trkpt>
      <trkpt lat="43.20638" lon="5.44586">
        <ele>89.06</ele>
        <time>2015-02-23T10:50:42Z</time>
      </trkpt>
      <trkpt lat="43.20635" lon="5.44573">
        <ele>91.94</ele>
        <time>2015-02-23T10:51:00Z</time>
      </trkpt>
      <trkpt lat="43.20633" lon="5.44565">
        <ele>94.35</ele>
        <time>2015-02-23T10:51:14Z</time>
      </trkpt>
      <trkpt lat="43.20638" lon="5.44564">
        <ele>95.79</ele>
        <time>2015-02-23T10:51:30Z</time>
      </trkpt>
      <trkpt lat="43.20641" lon="5.44566">
        <ele>98.19</ele>
        <time>2015-02-23T10:51:38Z</time>
      </trkpt>
      <trkpt lat="43.20643" lon="5.44562">
        <ele>101.56</ele>
        <time>2015-02-23T10:51:55Z</time>
      </trkpt>
      <trkpt lat="43.20641" lon="5.44555">
        <ele>102.04</ele>
        <time>2015-02-23T10:52:11Z</time>
      </trkpt>
      <trkpt lat="43.20646" lon="5.44555">
        <ele>103.48</ele>
        <time>2015-02-23T10:52:27Z</time>
      </trkpt>
      <trkpt lat="43.20646" lon="5.44555">
        <ele>110.69</ele>
        <time>2015-02-23T10:52:30Z</time>
      </trkpt>
      <trkpt lat="43.20646" lon="5.44555">
        <ele>106.84</ele>
        <time>2015-02-23T10:52:31Z</time>
      </trkpt>
      <trkpt lat="43.20646" lon="5.44552">
        <ele>105.4</ele>
        <time>2015-02-23T10:52:38Z</time>
      </trkpt>
      <trkpt lat="43.20644" lon="5.44546">
        <ele>105.88</ele>
        <time>2015-02-23T10:52:51Z</time>
      </trkpt>
      <trkpt lat="43.20644" lon="5.44541">
        <ele>110.21</ele>
        <time>2015-02-23T10:53:02Z</time>
      </trkpt>
      <trkpt lat="43.20644" lon="5.4454">
        <ele>109.73</ele>
        <time>2015-02-23T10:53:03Z</time>
      </trkpt>
      <trkpt lat="43.20644" lon="5.44539">
        <ele>107.81</ele>
        <time>2015-02-23T10:53:07Z</time>
      </trkpt>
      <trkpt lat="43.20643" lon="5.44533">
        <ele>107.32</ele>
        <time>2015-02-23T10:53:15Z</time>
      </trkpt>
      <trkpt lat="43.20642" lon="5.44525">
        <ele>110.69</ele>
        <time>2015-02-23T10:53:24Z</time>
      </trkpt>
      <trkpt lat="43.20642" lon="5.4452">
        <ele>112.13</ele>
        <time>2015-02-23T10:53:41Z</time>
      </trkpt>
      <trkpt lat="43.20642" lon="5.44516">
        <ele>114.05</ele>
        <time>2015-02-23T10:53:56Z</time>
      </trkpt>
      <trkpt lat="43.20646" lon="5.44516">
        <ele>116.46</ele>
        <time>2015-02-23T10:54:11Z</time>
      </trkpt>
      <trkpt lat="43.20647" lon="5.44516">
        <ele>118.38</ele>
        <time>2015-02-23T10:54:17Z</time>
      </trkpt>
      <trkpt lat="43.20647" lon="5.44511">
        <ele>114.53</ele>
        <time>2015-02-23T10:54:33Z</time>
      </trkpt>
      <trkpt lat="43.20647" lon="5.44511">
        <ele>118.86</ele>
        <time>2015-02-23T10:54:34Z</time>
      </trkpt>
      <trkpt lat="43.20647" lon="5.4451">
        <ele>121.26</ele>
        <time>2015-02-23T10:54:44Z</time>
      </trkpt>
      <trkpt lat="43.20648" lon="5.44508">
        <ele>118.86</ele>
        <time>2015-02-23T10:54:48Z</time>
      </trkpt>
      <trkpt lat="43.2065" lon="5.445">
        <ele>123.19</ele>
        <time>2015-02-23T10:55:02Z</time>
      </trkpt>
      <trkpt lat="43.20651" lon="5.44499">
        <ele>122.71</ele>
        <time>2015-02-23T10:55:08Z</time>
      </trkpt>
      <trkpt lat="43.20652" lon="5.44496">
        <ele>126.55</ele>
        <time>2015-02-23T10:55:19Z</time>
      </trkpt>
      <trkpt lat="43.20652" lon="5.44495">
        <ele>126.55</ele>
        <time>2015-02-23T10:55:22Z</time>
      </trkpt>
      <trkpt lat="43.20652" lon="5.44494">
        <ele>124.63</ele>
        <time>2015-02-23T10:55:26Z</time>
      </trkpt>
      <trkpt lat="43.20653" lon="5.44492">
        <ele>126.07</ele>
        <time>2015-02-23T10:55:31Z</time>
      </trkpt>
      <trkpt lat="43.20653" lon="5.44491">
        <ele>129.43</ele>
        <time>2015-02-23T10:55:34Z</time>
      </trkpt>
      <trkpt lat="43.20653" lon="5.44491">
        <ele>127.99</ele>
        <time>2015-02-23T10:55:35Z</time>
      </trkpt>
      <trkpt lat="43.20655" lon="5.44485">
        <ele>121.74</ele>
        <time>2015-02-23T10:55:45Z</time>
      </trkpt>
      <trkpt lat="43.20655" lon="5.44485">
        <ele>140.01</ele>
        <time>2015-02-23T10:55:46Z</time>
      </trkpt>
      <trkpt lat="43.20655" lon="5.44485">
        <ele>131.36</ele>
        <time>2015-02-23T10:55:47Z</time>
      </trkpt>
      <trkpt lat="43.20655" lon="5.44485">
        <ele>129.43</ele>
        <time>2015-02-23T10:55:49Z</time>
      </trkpt>
      <trkpt lat="43.20656" lon="5.44483">
        <ele>132.32</ele>
        <time>2015-02-23T10:56:06Z</time>
      </trkpt>
      <trkpt lat="43.20657" lon="5.44483">
        <ele>127.51</ele>
        <time>2015-02-23T10:56:07Z</time>
      </trkpt>
      <trkpt lat="43.20657" lon="5.44483">
        <ele>131.36</ele>
        <time>2015-02-23T10:56:08Z</time>
      </trkpt>
      <trkpt lat="43.20657" lon="5.44483">
        <ele>129.92</ele>
        <time>2015-02-23T10:56:11Z</time>
      </trkpt>
      <trkpt lat="43.20658" lon="5.44483">
        <ele>134.24</ele>
        <time>2015-02-23T10:56:15Z</time>
      </trkpt>
      <trkpt lat="43.20658" lon="5.44483">
        <ele>131.36</ele>
        <time>2015-02-23T10:56:16Z</time>
      </trkpt>
      <trkpt lat="43.20658" lon="5.44483">
        <ele>133.76</ele>
        <time>2015-02-23T10:56:22Z</time>
      </trkpt>
      <trkpt lat="43.20659" lon="5.44482">
        <ele>135.68</ele>
        <time>2015-02-23T10:56:37Z</time>
      </trkpt>
      <trkpt lat="43.2066" lon="5.44482">
        <ele>136.64</ele>
        <time>2015-02-23T10:56:44Z</time>
      </trkpt>
      <trkpt lat="43.20665" lon="5.44482">
        <ele>137.13</ele>
        <time>2015-02-23T10:56:50Z</time>
      </trkpt>
      <trkpt lat="43.20667" lon="5.44483">
        <ele>138.09</ele>
        <time>2015-02-23T10:57:05Z</time>
      </trkpt>
      <trkpt lat="43.20668" lon="5.44482">
        <ele>137.13</ele>
        <time>2015-02-23T10:57:10Z</time>
      </trkpt>
      <trkpt lat="43.20669" lon="5.44482">
        <ele>139.53</ele>
        <time>2015-02-23T10:57:12Z</time>
      </trkpt>
      <trkpt lat="43.20669" lon="5.44482">
        <ele>147.7</ele>
        <time>2015-02-23T10:57:13Z</time>
      </trkpt>
      <trkpt lat="43.20674" lon="5.4448">
        <ele>142.41</ele>
        <time>2015-02-23T10:57:27Z</time>
      </trkpt>
      <trkpt lat="43.20676" lon="5.44473">
        <ele>142.89</ele>
        <time>2015-02-23T10:57:40Z</time>
      </trkpt>
      <trkpt lat="43.20673" lon="5.44467">
        <ele>141.93</ele>
        <time>2015-02-23T10:57:55Z</time>
      </trkpt>
      <trkpt lat="43.20671" lon="5.44458">
        <ele>142.41</ele>
        <time>2015-02-23T10:58:09Z</time>
      </trkpt>
      <trkpt lat="43.20672" lon="5.44456">
        <ele>145.3</ele>
        <time>2015-02-23T10:58:23Z</time>
      </trkpt>
      <trkpt lat="43.20672" lon="5.44456">
        <ele>140.97</ele>
        <time>2015-02-23T10:58:24Z</time>
      </trkpt>
      <trkpt lat="43.20672" lon="5.44456">
        <ele>145.78</ele>
        <time>2015-02-23T10:58:25Z</time>
      </trkpt>
      <trkpt lat="43.20673" lon="5.44448">
        <ele>147.7</ele>
        <time>2015-02-23T10:58:41Z</time>
      </trkpt>
      <trkpt lat="43.20673" lon="5.44447">
        <ele>151.54</ele>
        <time>2015-02-23T10:58:43Z</time>
      </trkpt>
      <trkpt lat="43.20673" lon="5.44447">
        <ele>147.7</ele>
        <time>2015-02-23T10:58:44Z</time>
      </trkpt>
      <trkpt lat="43.20675" lon="5.44442">
        <ele>149.62</ele>
        <time>2015-02-23T10:59:00Z</time>
      </trkpt>
      <trkpt lat="43.20674" lon="5.4444">
        <ele>146.26</ele>
        <time>2015-02-23T10:59:07Z</time>
      </trkpt>
      <trkpt lat="43.20674" lon="5.44439">
        <ele>152.51</ele>
        <time>2015-02-23T10:59:08Z</time>
      </trkpt>
      <trkpt lat="43.20674" lon="5.44439">
        <ele>148.66</ele>
        <time>2015-02-23T10:59:13Z</time>
      </trkpt>
      <trkpt lat="43.20674" lon="5.44439">
        <ele>152.03</ele>
        <time>2015-02-23T10:59:14Z</time>
      </trkpt>
      <trkpt lat="43.20676" lon="5.44431">
        <ele>152.03</ele>
        <time>2015-02-23T10:59:30Z</time>
      </trkpt>
      <trkpt lat="43.20676" lon="5.4443">
        <ele>159.72</ele>
        <time>2015-02-23T10:59:37Z</time>
      </trkpt>
      <trkpt lat="43.20676" lon="5.4443">
        <ele>155.87</ele>
        <time>2015-02-23T10:59:38Z</time>
      </trkpt>
      <trkpt lat="43.20676" lon="5.44428">
        <ele>154.91</ele>
        <time>2015-02-23T10:59:40Z</time>
      </trkpt>
      <trkpt lat="43.20677" lon="5.44428">
        <ele>156.35</ele>
        <time>2015-02-23T10:59:56Z</time>
      </trkpt>
      <trkpt lat="43.20678" lon="5.44428">
        <ele>157.31</ele>
        <time>2015-02-23T11:00:05Z</time>
      </trkpt>
      <trkpt lat="43.20678" lon="5.44428">
        <ele>165.48</ele>
        <time>2015-02-23T11:00:19Z</time>
      </trkpt>
      <trkpt lat="43.20678" lon="5.44428">
        <ele>160.68</ele>
        <time>2015-02-23T11:00:20Z</time>
      </trkpt>
      <trkpt lat="43.20678" lon="5.44428">
        <ele>159.72</ele>
        <time>2015-02-23T11:00:22Z</time>
      </trkpt>
      <trkpt lat="43.20678" lon="5.44428">
        <ele>161.16</ele>
        <time>2015-02-23T11:00:40Z</time>
      </trkpt>
      <trkpt lat="43.2068" lon="5.44428">
        <ele>163.56</ele>
        <time>2015-02-23T11:00:55Z</time>
      </trkpt>
      <trkpt lat="43.2068" lon="5.44428">
        <ele>165.48</ele>
        <time>2015-02-23T11:00:58Z</time>
      </trkpt>
      <trkpt lat="43.20683" lon="5.44425">
        <ele>167.41</ele>
        <time>2015-02-23T11:01:15Z</time>
      </trkpt>
      <trkpt lat="43.20685" lon="5.44421">
        <ele>169.33</ele>
        <time>2015-02-23T11:01:30Z</time>
      </trkpt>
      <trkpt lat="43.20695" lon="5.44416">
        <ele>170.77</ele>
        <time>2015-02-23T11:01:42Z</time>
      </trkpt>
      <trkpt lat="43.20697" lon="5.44414">
        <ele>170.29</ele>
        <time>2015-02-23T11:01:51Z</time>
      </trkpt>
      <trkpt lat="43.20697" lon="5.44413">
        <ele>172.21</ele>
        <time>2015-02-23T11:01:56Z</time>
      </trkpt>
      <trkpt lat="43.20698" lon="5.44411">
        <ele>174.14</ele>
        <time>2015-02-23T11:01:59Z</time>
      </trkpt>
      <trkpt lat="43.20699" lon="5.44408">
        <ele>174.62</ele>
        <time>2015-02-23T11:02:12Z</time>
      </trkpt>
      <trkpt lat="43.20699" lon="5.44408">
        <ele>176.54</ele>
        <time>2015-02-23T11:02:24Z</time>
      </trkpt>
      <trkpt lat="43.20701" lon="5.44399">
        <ele>177.98</ele>
        <time>2015-02-23T11:02:43Z</time>
      </trkpt>
      <trkpt lat="43.20702" lon="5.44395">
        <ele>179.9</ele>
        <time>2015-02-23T11:02:57Z</time>
      </trkpt>
      <trkpt lat="43.20704" lon="5.44395">
        <ele>181.35</ele>
        <time>2015-02-23T11:03:13Z</time>
      </trkpt>
      <trkpt lat="43.20705" lon="5.44395">
        <ele>185.67</ele>
        <time>2015-02-23T11:03:24Z</time>
      </trkpt>
      <trkpt lat="43.20705" lon="5.44395">
        <ele>182.31</ele>
        <time>2015-02-23T11:03:27Z</time>
      </trkpt>
      <trkpt lat="43.20706" lon="5.44395">
        <ele>186.15</ele>
        <time>2015-02-23T11:03:37Z</time>
      </trkpt>
      <trkpt lat="43.20706" lon="5.44395">
        <ele>185.67</ele>
        <time>2015-02-23T11:03:38Z</time>
      </trkpt>
      <trkpt lat="43.2071" lon="5.44391">
        <ele>186.63</ele>
        <time>2015-02-23T11:03:57Z</time>
      </trkpt>
      <trkpt lat="43.20712" lon="5.44389">
        <ele>188.56</ele>
        <time>2015-02-23T11:04:02Z</time>
      </trkpt>
      <trkpt lat="43.20712" lon="5.44378">
        <ele>189.52</ele>
        <time>2015-02-23T11:04:17Z</time>
      </trkpt>
      <trkpt lat="43.20713" lon="5.44376">
        <ele>192.4</ele>
        <time>2015-02-23T11:04:31Z</time>
      </trkpt>
      <trkpt lat="43.20714" lon="5.44372">
        <ele>195.77</ele>
        <time>2015-02-23T11:04:47Z</time>
      </trkpt>
      <trkpt lat="43.20714" lon="5.44372">
        <ele>195.28</ele>
        <time>2015-02-23T11:04:51Z</time>
      </trkpt>
      <trkpt lat="43.20715" lon="5.4437">
        <ele>197.21</ele>
        <time>2015-02-23T11:05:06Z</time>
      </trkpt>
      <trkpt lat="43.2072" lon="5.44373">
        <ele>198.17</ele>
        <time>2015-02-23T11:05:25Z</time>
      </trkpt>
      <trkpt lat="43.20724" lon="5.44376">
        <ele>199.61</ele>
        <time>2015-02-23T11:05:36Z</time>
      </trkpt>
      <trkpt lat="43.20729" lon="5.44371">
        <ele>202.98</ele>
        <time>2015-02-23T11:05:55Z</time>
      </trkpt>
      <trkpt lat="43.20729" lon="5.44371">
        <ele>202.01</ele>
        <time>2015-02-23T11:06:17Z</time>
      </trkpt>
      <trkpt lat="43.2073" lon="5.44371">
        <ele>203.94</ele>
        <time>2015-02-23T11:06:25Z</time>
      </trkpt>
      <trkpt lat="43.20733" lon="5.44371">
        <ele>207.3</ele>
        <time>2015-02-23T11:06:35Z</time>
      </trkpt>
      <trkpt lat="43.20734" lon="5.44371">
        <ele>206.82</ele>
        <time>2015-02-23T11:06:37Z</time>
      </trkpt>
      <trkpt lat="43.2074" lon="5.44372">
        <ele>209.22</ele>
        <time>2015-02-23T11:06:48Z</time>
      </trkpt>
      <trkpt lat="43.20747" lon="5.44376">
        <ele>209.7</ele>
        <time>2015-02-23T11:07:06Z</time>
      </trkpt>
      <trkpt lat="43.2075" lon="5.44377">
        <ele>212.59</ele>
        <time>2015-02-23T11:07:18Z</time>
      </trkpt>
      <trkpt lat="43.20756" lon="5.44379">
        <ele>212.11</ele>
        <time>2015-02-23T11:07:35Z</time>
      </trkpt>
      <trkpt lat="43.20763" lon="5.44379">
        <ele>216.91</ele>
        <time>2015-02-23T11:07:51Z</time>
      </trkpt>
      <trkpt lat="43.20768" lon="5.44378">
        <ele>219.8</ele>
        <time>2015-02-23T11:08:05Z</time>
      </trkpt>
      <trkpt lat="43.20768" lon="5.44378">
        <ele>221.24</ele>
        <time>2015-02-23T11:08:07Z</time>
      </trkpt>
      <trkpt lat="43.20768" lon="5.44378">
        <ele>219.32</ele>
        <time>2015-02-23T11:08:09Z</time>
      </trkpt>
      <trkpt lat="43.20767" lon="5.44376">
        <ele>216.91</ele>
        <time>2015-02-23T11:08:24Z</time>
      </trkpt>
      <trkpt lat="43.20768" lon="5.44369">
        <ele>218.84</ele>
        <time>2015-02-23T11:08:41Z</time>
      </trkpt>
      <trkpt lat="43.20768" lon="5.44369">
        <ele>221.24</ele>
        <time>2015-02-23T11:08:47Z</time>
      </trkpt>
      <trkpt lat="43.20769" lon="5.44373">
        <ele>218.84</ele>
        <time>2015-02-23T11:08:57Z</time>
      </trkpt>
      <trkpt lat="43.20773" lon="5.4438">
        <ele>219.8</ele>
        <time>2015-02-23T11:09:10Z</time>
      </trkpt>
      <trkpt lat="43.20773" lon="5.4438">
        <ele>218.84</ele>
        <time>2015-02-23T11:09:11Z</time>
      </trkpt>
      <trkpt lat="43.20769" lon="5.44383">
        <ele>216.91</ele>
        <time>2015-02-23T11:09:26Z</time>
      </trkpt>
      <trkpt lat="43.20769" lon="5.44383">
        <ele>217.88</ele>
        <time>2015-02-23T11:09:48Z</time>
      </trkpt>
      <trkpt lat="43.20768" lon="5.4438">
        <ele>217.4</ele>
        <time>2015-02-23T11:10:13Z</time>
      </trkpt>
      <trkpt lat="43.20768" lon="5.4438">
        <ele>217.88</ele>
        <time>2015-02-23T11:10:33Z</time>
      </trkpt>
      <trkpt lat="43.20768" lon="5.4438">
        <ele>216.43</ele>
        <time>2015-02-23T11:10:47Z</time>
      </trkpt>
      <trkpt lat="43.20768" lon="5.4438">
        <ele>218.36</ele>
        <time>2015-02-23T11:10:49Z</time>
      </trkpt>
      <trkpt lat="43.20768" lon="5.4438">
        <ele>215.95</ele>
        <time>2015-02-23T11:10:52Z</time>
      </trkpt>
      <trkpt lat="43.20768" lon="5.4438">
        <ele>215.95</ele>
        <time>2015-02-23T11:11:08Z</time>
      </trkpt>
      <trkpt lat="43.20768" lon="5.4438">
        <ele>215.95</ele>
        <time>2015-02-23T11:11:30Z</time>
      </trkpt>
      <trkpt lat="43.20768" lon="5.4438">
        <ele>215.95</ele>
        <time>2015-02-23T11:11:53Z</time>
      </trkpt>
      <trkpt lat="43.20768" lon="5.4438">
        <ele>216.43</ele>
        <time>2015-02-23T11:12:19Z</time>
      </trkpt>
      <trkpt lat="43.20767" lon="5.4438">
        <ele>214.99</ele>
        <time>2015-02-23T11:12:38Z</time>
      </trkpt>
      <trkpt lat="43.20767" lon="5.4438">
        <ele>216.43</ele>
        <time>2015-02-23T11:13:00Z</time>
      </trkpt>
      <trkpt lat="43.20767" lon="5.4438">
        <ele>214.51</ele>
        <time>2015-02-23T11:13:06Z</time>
      </trkpt>
      <trkpt lat="43.20767" lon="5.4438">
        <ele>210.19</ele>
        <time>2015-02-23T11:13:10Z</time>
      </trkpt>
      <trkpt lat="43.20767" lon="5.4438">
        <ele>214.51</ele>
        <time>2015-02-23T11:13:11Z</time>
      </trkpt>
      <trkpt lat="43.20773" lon="5.44377">
        <ele>211.15</ele>
        <time>2015-02-23T11:13:26Z</time>
      </trkpt>
      <trkpt lat="43.20776" lon="5.44372">
        <ele>214.51</ele>
        <time>2015-02-23T11:13:31Z</time>
      </trkpt>
      <trkpt lat="43.20781" lon="5.44364">
        <ele>214.03</ele>
        <time>2015-02-23T11:13:49Z</time>
      </trkpt>
      <trkpt lat="43.20781" lon="5.44364">
        <ele>215.47</ele>
        <time>2015-02-23T11:13:54Z</time>
      </trkpt>
      <trkpt lat="43.20781" lon="5.44364">
        <ele>214.03</ele>
        <time>2015-02-23T11:13:59Z</time>
      </trkpt>
      <trkpt lat="43.20781" lon="5.44364">
        <ele>213.55</ele>
        <time>2015-02-23T11:14:27Z</time>
      </trkpt>
      <trkpt lat="43.20781" lon="5.44364">
        <ele>214.03</ele>
        <time>2015-02-23T11:15:00Z</time>
      </trkpt>
      <trkpt lat="43.20781" lon="5.44364">
        <ele>215.47</ele>
        <time>2015-02-23T11:15:27Z</time>
      </trkpt>
      <trkpt lat="43.20781" lon="5.44364">
        <ele>215.95</ele>
        <time>2015-02-23T11:15:28Z</time>
      </trkpt>
      <trkpt lat="43.20781" lon="5.44364">
        <ele>216.91</ele>
        <time>2015-02-23T11:15:35Z</time>
      </trkpt>
      <trkpt lat="43.20781" lon="5.44364">
        <ele>215.47</ele>
        <time>2015-02-23T11:15:42Z</time>
      </trkpt>
      <trkpt lat="43.20781" lon="5.44364">
        <ele>216.43</ele>
        <time>2015-02-23T11:15:51Z</time>
      </trkpt>
      <trkpt lat="43.20781" lon="5.44364">
        <ele>213.07</ele>
        <time>2015-02-23T11:16:03Z</time>
      </trkpt>
      <trkpt lat="43.20781" lon="5.44364">
        <ele>214.99</ele>
        <time>2015-02-23T11:16:07Z</time>
      </trkpt>
      <trkpt lat="43.20781" lon="5.44364">
        <ele>214.03</ele>
        <time>2015-02-23T11:16:35Z</time>
      </trkpt>
      <trkpt lat="43.20781" lon="5.44363">
        <ele>215.47</ele>
        <time>2015-02-23T11:17:01Z</time>
      </trkpt>
      <trkpt lat="43.20785" lon="5.44356">
        <ele>217.4</ele>
        <time>2015-02-23T11:17:15Z</time>
      </trkpt>
      <trkpt lat="43.20785" lon="5.44356">
        <ele>220.76</ele>
        <time>2015-02-23T11:17:21Z</time>
      </trkpt>
      <trkpt lat="43.20785" lon="5.44356">
        <ele>222.2</ele>
        <time>2015-02-23T11:17:37Z</time>
      </trkpt>
      <trkpt lat="43.20785" lon="5.44354">
        <ele>222.2</ele>
        <time>2015-02-23T11:17:54Z</time>
      </trkpt>
      <trkpt lat="43.20788" lon="5.4435">
        <ele>221.72</ele>
        <time>2015-02-23T11:18:00Z</time>
      </trkpt>
      <trkpt lat="43.20794" lon="5.44344">
        <ele>223.16</ele>
        <time>2015-02-23T11:18:05Z</time>
      </trkpt>
      <trkpt lat="43.20794" lon="5.44343">
        <ele>220.76</ele>
        <time>2015-02-23T11:18:07Z</time>
      </trkpt>
      <trkpt lat="43.20795" lon="5.44342">
        <ele>222.2</ele>
        <time>2015-02-23T11:18:09Z</time>
      </trkpt>
      <trkpt lat="43.20796" lon="5.44341">
        <ele>218.36</ele>
        <time>2015-02-23T11:18:10Z</time>
      </trkpt>
      <trkpt lat="43.20797" lon="5.4434">
        <ele>219.8</ele>
        <time>2015-02-23T11:18:11Z</time>
      </trkpt>
      <trkpt lat="43.20797" lon="5.4434">
        <ele>222.68</ele>
        <time>2015-02-23T11:18:24Z</time>
      </trkpt>
      <trkpt lat="43.20797" lon="5.4434">
        <ele>220.28</ele>
        <time>2015-02-23T11:18:27Z</time>
      </trkpt>
      <trkpt lat="43.20807" lon="5.44334">
        <ele>219.8</ele>
        <time>2015-02-23T11:18:42Z</time>
      </trkpt>
      <trkpt lat="43.20822" lon="5.44336">
        <ele>220.76</ele>
        <time>2015-02-23T11:18:58Z</time>
      </trkpt>
      <trkpt lat="43.20826" lon="5.44337">
        <ele>215.95</ele>
        <time>2015-02-23T11:19:04Z</time>
      </trkpt>
      <trkpt lat="43.20827" lon="5.44337">
        <ele>217.88</ele>
        <time>2015-02-23T11:19:05Z</time>
      </trkpt>
      <trkpt lat="43.20829" lon="5.44335">
        <ele>215.47</ele>
        <time>2015-02-23T11:19:09Z</time>
      </trkpt>
      <trkpt lat="43.20838" lon="5.44327">
        <ele>214.99</ele>
        <time>2015-02-23T11:19:23Z</time>
      </trkpt>
      <trkpt lat="43.20847" lon="5.44318">
        <ele>215.47</ele>
        <time>2015-02-23T11:19:37Z</time>
      </trkpt>
      <trkpt lat="43.20849" lon="5.44312">
        <ele>211.63</ele>
        <time>2015-02-23T11:19:45Z</time>
      </trkpt>
      <trkpt lat="43.20857" lon="5.44305">
        <ele>210.19</ele>
        <time>2015-02-23T11:19:56Z</time>
      </trkpt>
      <trkpt lat="43.20863" lon="5.44304">
        <ele>210.67</ele>
        <time>2015-02-23T11:20:09Z</time>
      </trkpt>
      <trkpt lat="43.20866" lon="5.44297">
        <ele>210.19</ele>
        <time>2015-02-23T11:20:23Z</time>
      </trkpt>
      <trkpt lat="43.20871" lon="5.44288">
        <ele>207.3</ele>
        <time>2015-02-23T11:20:35Z</time>
      </trkpt>
      <trkpt lat="43.20876" lon="5.4428">
        <ele>207.3</ele>
        <time>2015-02-23T11:20:42Z</time>
      </trkpt>
      <trkpt lat="43.20887" lon="5.44268">
        <ele>208.26</ele>
        <time>2015-02-23T11:20:57Z</time>
      </trkpt>
      <trkpt lat="43.20892" lon="5.44248">
        <ele>208.26</ele>
        <time>2015-02-23T11:21:14Z</time>
      </trkpt>
      <trkpt lat="43.20894" lon="5.44238">
        <ele>209.22</ele>
        <time>2015-02-23T11:21:22Z</time>
      </trkpt>
      <trkpt lat="43.20898" lon="5.44221">
        <ele>210.67</ele>
        <time>2015-02-23T11:21:39Z</time>
      </trkpt>
      <trkpt lat="43.20898" lon="5.44221">
        <ele>210.67</ele>
        <time>2015-02-23T11:21:40Z</time>
      </trkpt>
      <trkpt lat="43.209" lon="5.44206">
        <ele>210.67</ele>
        <time>2015-02-23T11:21:57Z</time>
      </trkpt>
      <trkpt lat="43.20902" lon="5.44195">
        <ele>212.11</ele>
        <time>2015-02-23T11:22:14Z</time>
      </trkpt>
      <trkpt lat="43.20905" lon="5.44188">
        <ele>214.03</ele>
        <time>2015-02-23T11:22:29Z</time>
      </trkpt>
      <trkpt lat="43.20907" lon="5.44175">
        <ele>215.47</ele>
        <time>2015-02-23T11:22:44Z</time>
      </trkpt>
      <trkpt lat="43.20908" lon="5.44173">
        <ele>214.51</ele>
        <time>2015-02-23T11:22:46Z</time>
      </trkpt>
      <trkpt lat="43.20912" lon="5.44156">
        <ele>214.99</ele>
        <time>2015-02-23T11:23:03Z</time>
      </trkpt>
      <trkpt lat="43.20917" lon="5.4414">
        <ele>214.03</ele>
        <time>2015-02-23T11:23:19Z</time>
      </trkpt>
      <trkpt lat="43.20924" lon="5.44129">
        <ele>214.03</ele>
        <time>2015-02-23T11:23:33Z</time>
      </trkpt>
      <trkpt lat="43.20925" lon="5.44128">
        <ele>215.47</ele>
        <time>2015-02-23T11:23:35Z</time>
      </trkpt>
      <trkpt lat="43.20928" lon="5.44125">
        <ele>216.91</ele>
        <time>2015-02-23T11:23:40Z</time>
      </trkpt>
      <trkpt lat="43.20929" lon="5.44123">
        <ele>215.95</ele>
        <time>2015-02-23T11:23:42Z</time>
      </trkpt>
      <trkpt lat="43.20936" lon="5.44115">
        <ele>217.4</ele>
        <time>2015-02-23T11:23:52Z</time>
      </trkpt>
      <trkpt lat="43.20937" lon="5.44113">
        <ele>216.91</ele>
        <time>2015-02-23T11:23:54Z</time>
      </trkpt>
      <trkpt lat="43.20945" lon="5.4411">
        <ele>219.8</ele>
        <time>2015-02-23T11:24:06Z</time>
      </trkpt>
      <trkpt lat="43.20948" lon="5.44108">
        <ele>219.8</ele>
        <time>2015-02-23T11:24:10Z</time>
      </trkpt>
      <trkpt lat="43.2095" lon="5.44106">
        <ele>216.91</ele>
        <time>2015-02-23T11:24:13Z</time>
      </trkpt>
      <trkpt lat="43.20951" lon="5.44104">
        <ele>220.28</ele>
        <time>2015-02-23T11:24:16Z</time>
      </trkpt>
      <trkpt lat="43.20952" lon="5.44103">
        <ele>219.32</ele>
        <time>2015-02-23T11:24:17Z</time>
      </trkpt>
      <trkpt lat="43.20955" lon="5.441">
        <ele>215.95</ele>
        <time>2015-02-23T11:24:21Z</time>
      </trkpt>
      <trkpt lat="43.20956" lon="5.441">
        <ele>215.47</ele>
        <time>2015-02-23T11:24:23Z</time>
      </trkpt>
      <trkpt lat="43.20956" lon="5.44098">
        <ele>216.43</ele>
        <time>2015-02-23T11:24:28Z</time>
      </trkpt>
      <trkpt lat="43.20955" lon="5.44103">
        <ele>221.24</ele>
        <time>2015-02-23T11:24:41Z</time>
      </trkpt>
      <trkpt lat="43.20955" lon="5.44103">
        <ele>221.24</ele>
        <time>2015-02-23T11:24:42Z</time>
      </trkpt>
      <trkpt lat="43.20956" lon="5.44099">
        <ele>216.91</ele>
        <time>2015-02-23T11:24:48Z</time>
      </trkpt>
      <trkpt lat="43.20956" lon="5.44099">
        <ele>217.4</ele>
        <time>2015-02-23T11:24:49Z</time>
      </trkpt>
      <trkpt lat="43.20956" lon="5.44099">
        <ele>214.03</ele>
        <time>2015-02-23T11:24:57Z</time>
      </trkpt>
      <trkpt lat="43.20956" lon="5.44099">
        <ele>217.4</ele>
        <time>2015-02-23T11:25:00Z</time>
      </trkpt>
      <trkpt lat="43.20956" lon="5.44097">
        <ele>219.32</ele>
        <time>2015-02-23T11:25:11Z</time>
      </trkpt>
      <trkpt lat="43.20956" lon="5.44094">
        <ele>216.43</ele>
        <time>2015-02-23T11:25:15Z</time>
      </trkpt>
      <trkpt lat="43.20957" lon="5.44093">
        <ele>217.4</ele>
        <time>2015-02-23T11:25:16Z</time>
      </trkpt>
      <trkpt lat="43.2096" lon="5.4409">
        <ele>215.95</ele>
        <time>2015-02-23T11:25:21Z</time>
      </trkpt>
      <trkpt lat="43.20966" lon="5.44081">
        <ele>215.95</ele>
        <time>2015-02-23T11:25:33Z</time>
      </trkpt>
      <trkpt lat="43.20968" lon="5.44079">
        <ele>219.32</ele>
        <time>2015-02-23T11:25:35Z</time>
      </trkpt>
      <trkpt lat="43.20969" lon="5.44078">
        <ele>217.88</ele>
        <time>2015-02-23T11:25:36Z</time>
      </trkpt>
      <trkpt lat="43.20973" lon="5.44072">
        <ele>213.07</ele>
        <time>2015-02-23T11:25:43Z</time>
      </trkpt>
      <trkpt lat="43.20973" lon="5.44071">
        <ele>216.91</ele>
        <time>2015-02-23T11:25:44Z</time>
      </trkpt>
      <trkpt lat="43.20974" lon="5.44069">
        <ele>218.36</ele>
        <time>2015-02-23T11:25:46Z</time>
      </trkpt>
      <trkpt lat="43.20976" lon="5.44065">
        <ele>214.99</ele>
        <time>2015-02-23T11:25:49Z</time>
      </trkpt>
      <trkpt lat="43.20976" lon="5.44064">
        <ele>215.47</ele>
        <time>2015-02-23T11:25:50Z</time>
      </trkpt>
      <trkpt lat="43.20981" lon="5.44059">
        <ele>211.15</ele>
        <time>2015-02-23T11:25:57Z</time>
      </trkpt>
      <trkpt lat="43.20981" lon="5.44059">
        <ele>214.99</ele>
        <time>2015-02-23T11:25:58Z</time>
      </trkpt>
      <trkpt lat="43.20981" lon="5.44058">
        <ele>218.36</ele>
        <time>2015-02-23T11:25:59Z</time>
      </trkpt>
      <trkpt lat="43.20982" lon="5.44058">
        <ele>217.4</ele>
        <time>2015-02-23T11:26:00Z</time>
      </trkpt>
      <trkpt lat="43.20984" lon="5.44056">
        <ele>210.19</ele>
        <time>2015-02-23T11:26:03Z</time>
      </trkpt>
      <trkpt lat="43.20984" lon="5.44056">
        <ele>216.91</ele>
        <time>2015-02-23T11:26:04Z</time>
      </trkpt>
      <trkpt lat="43.20986" lon="5.44056">
        <ele>218.84</ele>
        <time>2015-02-23T11:26:06Z</time>
      </trkpt>
      <trkpt lat="43.20987" lon="5.44055">
        <ele>213.07</ele>
        <time>2015-02-23T11:26:07Z</time>
      </trkpt>
      <trkpt lat="43.20987" lon="5.44055">
        <ele>218.36</ele>
        <time>2015-02-23T11:26:08Z</time>
      </trkpt>
      <trkpt lat="43.20988" lon="5.44054">
        <ele>219.8</ele>
        <time>2015-02-23T11:26:10Z</time>
      </trkpt>
      <trkpt lat="43.20988" lon="5.44053">
        <ele>211.63</ele>
        <time>2015-02-23T11:26:11Z</time>
      </trkpt>
      <trkpt lat="43.20989" lon="5.44053">
        <ele>218.36</ele>
        <time>2015-02-23T11:26:12Z</time>
      </trkpt>
      <trkpt lat="43.20989" lon="5.44052">
        <ele>214.99</ele>
        <time>2015-02-23T11:26:13Z</time>
      </trkpt>
      <trkpt lat="43.2099" lon="5.44052">
        <ele>218.84</ele>
        <time>2015-02-23T11:26:14Z</time>
      </trkpt>
      <trkpt lat="43.20991" lon="5.4405">
        <ele>219.32</ele>
        <time>2015-02-23T11:26:16Z</time>
      </trkpt>
      <trkpt lat="43.20992" lon="5.4405">
        <ele>214.99</ele>
        <time>2015-02-23T11:26:17Z</time>
      </trkpt>
      <trkpt lat="43.20992" lon="5.44049">
        <ele>223.64</ele>
        <time>2015-02-23T11:26:18Z</time>
      </trkpt>
      <trkpt lat="43.20992" lon="5.44049">
        <ele>223.16</ele>
        <time>2015-02-23T11:26:19Z</time>
      </trkpt>
      <trkpt lat="43.20993" lon="5.44048">
        <ele>218.36</ele>
        <time>2015-02-23T11:26:20Z</time>
      </trkpt>
      <trkpt lat="43.20993" lon="5.44047">
        <ele>214.51</ele>
        <time>2015-02-23T11:26:21Z</time>
      </trkpt>
      <trkpt lat="43.20994" lon="5.44046">
        <ele>220.28</ele>
        <time>2015-02-23T11:26:22Z</time>
      </trkpt>
      <trkpt lat="43.20994" lon="5.44046">
        <ele>224.12</ele>
        <time>2015-02-23T11:26:23Z</time>
      </trkpt>
      <trkpt lat="43.20994" lon="5.44046">
        <ele>222.2</ele>
        <time>2015-02-23T11:26:24Z</time>
      </trkpt>
      <trkpt lat="43.20996" lon="5.44043">
        <ele>220.76</ele>
        <time>2015-02-23T11:26:27Z</time>
      </trkpt>
      <trkpt lat="43.20996" lon="5.44043">
        <ele>224.61</ele>
        <time>2015-02-23T11:26:28Z</time>
      </trkpt>
      <trkpt lat="43.20997" lon="5.44042">
        <ele>214.99</ele>
        <time>2015-02-23T11:26:30Z</time>
      </trkpt>
      <trkpt lat="43.20998" lon="5.44041">
        <ele>223.64</ele>
        <time>2015-02-23T11:26:31Z</time>
      </trkpt>
      <trkpt lat="43.20999" lon="5.44039">
        <ele>222.68</ele>
        <time>2015-02-23T11:26:34Z</time>
      </trkpt>
      <trkpt lat="43.21" lon="5.44037">
        <ele>223.64</ele>
        <time>2015-02-23T11:26:36Z</time>
      </trkpt>
      <trkpt lat="43.21" lon="5.44036">
        <ele>219.32</ele>
        <time>2015-02-23T11:26:37Z</time>
      </trkpt>
      <trkpt lat="43.21001" lon="5.44036">
        <ele>223.16</ele>
        <time>2015-02-23T11:26:38Z</time>
      </trkpt>
      <trkpt lat="43.21002" lon="5.44034">
        <ele>218.84</ele>
        <time>2015-02-23T11:26:40Z</time>
      </trkpt>
      <trkpt lat="43.21002" lon="5.44034">
        <ele>225.09</ele>
        <time>2015-02-23T11:26:41Z</time>
      </trkpt>
      <trkpt lat="43.21003" lon="5.44033">
        <ele>218.84</ele>
        <time>2015-02-23T11:26:43Z</time>
      </trkpt>
      <trkpt lat="43.21003" lon="5.44033">
        <ele>227.01</ele>
        <time>2015-02-23T11:26:44Z</time>
      </trkpt>
      <trkpt lat="43.21005" lon="5.44033">
        <ele>223.64</ele>
        <time>2015-02-23T11:26:46Z</time>
      </trkpt>
      <trkpt lat="43.21005" lon="5.44033">
        <ele>225.57</ele>
        <time>2015-02-23T11:26:47Z</time>
      </trkpt>
      <trkpt lat="43.21007" lon="5.44032">
        <ele>228.45</ele>
        <time>2015-02-23T11:26:49Z</time>
      </trkpt>
      <trkpt lat="43.21008" lon="5.4403">
        <ele>223.64</ele>
        <time>2015-02-23T11:26:51Z</time>
      </trkpt>
      <trkpt lat="43.21009" lon="5.4403">
        <ele>230.37</ele>
        <time>2015-02-23T11:26:52Z</time>
      </trkpt>
      <trkpt lat="43.2101" lon="5.44028">
        <ele>223.64</ele>
        <time>2015-02-23T11:26:54Z</time>
      </trkpt>
      <trkpt lat="43.21011" lon="5.44028">
        <ele>225.09</ele>
        <time>2015-02-23T11:26:55Z</time>
      </trkpt>
      <trkpt lat="43.21013" lon="5.44027">
        <ele>221.24</ele>
        <time>2015-02-23T11:26:58Z</time>
      </trkpt>
      <trkpt lat="43.21013" lon="5.44026">
        <ele>226.05</ele>
        <time>2015-02-23T11:26:59Z</time>
      </trkpt>
      <trkpt lat="43.21014" lon="5.44024">
        <ele>221.72</ele>
        <time>2015-02-23T11:27:02Z</time>
      </trkpt>
      <trkpt lat="43.21014" lon="5.44023">
        <ele>228.45</ele>
        <time>2015-02-23T11:27:03Z</time>
      </trkpt>
      <trkpt lat="43.21014" lon="5.44021">
        <ele>225.57</ele>
        <time>2015-02-23T11:27:07Z</time>
      </trkpt>
      <trkpt lat="43.21014" lon="5.4402">
        <ele>221.72</ele>
        <time>2015-02-23T11:27:09Z</time>
      </trkpt>
      <trkpt lat="43.21014" lon="5.4402">
        <ele>231.33</ele>
        <time>2015-02-23T11:27:10Z</time>
      </trkpt>
      <trkpt lat="43.21015" lon="5.44019">
        <ele>221.72</ele>
        <time>2015-02-23T11:27:11Z</time>
      </trkpt>
      <trkpt lat="43.21015" lon="5.44019">
        <ele>224.61</ele>
        <time>2015-02-23T11:27:12Z</time>
      </trkpt>
      <trkpt lat="43.21015" lon="5.44018">
        <ele>229.41</ele>
        <time>2015-02-23T11:27:13Z</time>
      </trkpt>
      <trkpt lat="43.21015" lon="5.44016">
        <ele>225.57</ele>
        <time>2015-02-23T11:27:15Z</time>
      </trkpt>
      <trkpt lat="43.21015" lon="5.44016">
        <ele>230.37</ele>
        <time>2015-02-23T11:27:16Z</time>
      </trkpt>
      <trkpt lat="43.21016" lon="5.44016">
        <ele>224.12</ele>
        <time>2015-02-23T11:27:17Z</time>
      </trkpt>
      <trkpt lat="43.21016" lon="5.44016">
        <ele>230.37</ele>
        <time>2015-02-23T11:27:18Z</time>
      </trkpt>
      <trkpt lat="43.21016" lon="5.44014">
        <ele>224.12</ele>
        <time>2015-02-23T11:27:20Z</time>
      </trkpt>
      <trkpt lat="43.21016" lon="5.44013">
        <ele>229.41</ele>
        <time>2015-02-23T11:27:21Z</time>
      </trkpt>
      <trkpt lat="43.21016" lon="5.44013">
        <ele>226.05</ele>
        <time>2015-02-23T11:27:23Z</time>
      </trkpt>
      <trkpt lat="43.21017" lon="5.44012">
        <ele>229.41</ele>
        <time>2015-02-23T11:27:24Z</time>
      </trkpt>
      <trkpt lat="43.2102" lon="5.44007">
        <ele>232.78</ele>
        <time>2015-02-23T11:27:31Z</time>
      </trkpt>
      <trkpt lat="43.2102" lon="5.44006">
        <ele>228.93</ele>
        <time>2015-02-23T11:27:32Z</time>
      </trkpt>
      <trkpt lat="43.21021" lon="5.44004">
        <ele>233.74</ele>
        <time>2015-02-23T11:27:37Z</time>
      </trkpt>
      <trkpt lat="43.21021" lon="5.44003">
        <ele>229.41</ele>
        <time>2015-02-23T11:27:38Z</time>
      </trkpt>
      <trkpt lat="43.21021" lon="5.44002">
        <ele>234.7</ele>
        <time>2015-02-23T11:27:39Z</time>
      </trkpt>
      <trkpt lat="43.21021" lon="5.44">
        <ele>229.41</ele>
        <time>2015-02-23T11:27:41Z</time>
      </trkpt>
      <trkpt lat="43.21022" lon="5.43999">
        <ele>232.78</ele>
        <time>2015-02-23T11:27:42Z</time>
      </trkpt>
      <trkpt lat="43.21022" lon="5.43999">
        <ele>228.93</ele>
        <time>2015-02-23T11:27:43Z</time>
      </trkpt>
      <trkpt lat="43.21022" lon="5.43998">
        <ele>232.3</ele>
        <time>2015-02-23T11:27:45Z</time>
      </trkpt>
      <trkpt lat="43.21022" lon="5.43998">
        <ele>232.78</ele>
        <time>2015-02-23T11:27:46Z</time>
      </trkpt>
      <trkpt lat="43.21022" lon="5.43998">
        <ele>228.93</ele>
        <time>2015-02-23T11:27:55Z</time>
      </trkpt>
      <trkpt lat="43.21023" lon="5.43997">
        <ele>234.22</ele>
        <time>2015-02-23T11:27:56Z</time>
      </trkpt>
      <trkpt lat="43.21024" lon="5.43995">
        <ele>230.85</ele>
        <time>2015-02-23T11:27:58Z</time>
      </trkpt>
      <trkpt lat="43.21025" lon="5.43994">
        <ele>232.3</ele>
        <time>2015-02-23T11:27:59Z</time>
      </trkpt>
      <trkpt lat="43.21026" lon="5.43992">
        <ele>233.26</ele>
        <time>2015-02-23T11:28:01Z</time>
      </trkpt>
      <trkpt lat="43.2103" lon="5.43981">
        <ele>235.18</ele>
        <time>2015-02-23T11:28:15Z</time>
      </trkpt>
      <trkpt lat="43.21031" lon="5.43978">
        <ele>229.89</ele>
        <time>2015-02-23T11:28:20Z</time>
      </trkpt>
      <trkpt lat="43.21032" lon="5.43977">
        <ele>234.7</ele>
        <time>2015-02-23T11:28:21Z</time>
      </trkpt>
      <trkpt lat="43.21032" lon="5.43976">
        <ele>231.33</ele>
        <time>2015-02-23T11:28:23Z</time>
      </trkpt>
      <trkpt lat="43.21033" lon="5.43975">
        <ele>234.7</ele>
        <time>2015-02-23T11:28:24Z</time>
      </trkpt>
      <trkpt lat="43.21036" lon="5.43961">
        <ele>235.66</ele>
        <time>2015-02-23T11:28:40Z</time>
      </trkpt>
      <trkpt lat="43.21036" lon="5.43959">
        <ele>236.62</ele>
        <time>2015-02-23T11:28:44Z</time>
      </trkpt>
      <trkpt lat="43.21038" lon="5.43954">
        <ele>233.26</ele>
        <time>2015-02-23T11:28:55Z</time>
      </trkpt>
      <trkpt lat="43.21038" lon="5.43954">
        <ele>236.62</ele>
        <time>2015-02-23T11:28:56Z</time>
      </trkpt>
      <trkpt lat="43.21038" lon="5.43954">
        <ele>236.14</ele>
        <time>2015-02-23T11:28:57Z</time>
      </trkpt>
      <trkpt lat="43.21038" lon="5.43954">
        <ele>233.26</ele>
        <time>2015-02-23T11:29:04Z</time>
      </trkpt>
      <trkpt lat="43.21038" lon="5.43954">
        <ele>230.37</ele>
        <time>2015-02-23T11:29:11Z</time>
      </trkpt>
      <trkpt lat="43.21038" lon="5.43954">
        <ele>230.37</ele>
        <time>2015-02-23T11:29:12Z</time>
      </trkpt>
      <trkpt lat="43.21038" lon="5.43954">
        <ele>233.74</ele>
        <time>2015-02-23T11:29:16Z</time>
      </trkpt>
      <trkpt lat="43.21046" lon="5.43938">
        <ele>230.37</ele>
        <time>2015-02-23T11:29:26Z</time>
      </trkpt>
      <trkpt lat="43.21046" lon="5.43937">
        <ele>231.81</ele>
        <time>2015-02-23T11:29:27Z</time>
      </trkpt>
      <trkpt lat="43.21049" lon="5.43925">
        <ele>230.85</ele>
        <time>2015-02-23T11:29:36Z</time>
      </trkpt>
      <trkpt lat="43.21051" lon="5.43914">
        <ele>235.18</ele>
        <time>2015-02-23T11:29:45Z</time>
      </trkpt>
      <trkpt lat="43.21051" lon="5.43912">
        <ele>233.74</ele>
        <time>2015-02-23T11:29:46Z</time>
      </trkpt>
      <trkpt lat="43.2105" lon="5.43904">
        <ele>233.74</ele>
        <time>2015-02-23T11:29:52Z</time>
      </trkpt>
      <trkpt lat="43.2105" lon="5.43894">
        <ele>234.7</ele>
        <time>2015-02-23T11:30:08Z</time>
      </trkpt>
      <trkpt lat="43.21051" lon="5.43885">
        <ele>233.26</ele>
        <time>2015-02-23T11:30:14Z</time>
      </trkpt>
      <trkpt lat="43.21053" lon="5.4387">
        <ele>231.33</ele>
        <time>2015-02-23T11:30:26Z</time>
      </trkpt>
      <trkpt lat="43.21055" lon="5.43863">
        <ele>227.97</ele>
        <time>2015-02-23T11:30:32Z</time>
      </trkpt>
      <trkpt lat="43.21055" lon="5.43862">
        <ele>228.45</ele>
        <time>2015-02-23T11:30:33Z</time>
      </trkpt>
      <trkpt lat="43.21058" lon="5.4385">
        <ele>228.45</ele>
        <time>2015-02-23T11:30:43Z</time>
      </trkpt>
      <trkpt lat="43.21063" lon="5.43834">
        <ele>229.89</ele>
        <time>2015-02-23T11:30:56Z</time>
      </trkpt>
      <trkpt lat="43.21069" lon="5.43816">
        <ele>227.97</ele>
        <time>2015-02-23T11:31:11Z</time>
      </trkpt>
      <trkpt lat="43.21077" lon="5.43798">
        <ele>227.97</ele>
        <time>2015-02-23T11:31:29Z</time>
      </trkpt>
      <trkpt lat="43.21082" lon="5.43791">
        <ele>229.41</ele>
        <time>2015-02-23T11:31:38Z</time>
      </trkpt>
      <trkpt lat="43.21092" lon="5.43785">
        <ele>227.01</ele>
        <time>2015-02-23T11:31:54Z</time>
      </trkpt>
      <trkpt lat="43.21095" lon="5.43776">
        <ele>227.97</ele>
        <time>2015-02-23T11:32:07Z</time>
      </trkpt>
      <trkpt lat="43.21099" lon="5.43772">
        <ele>227.97</ele>
        <time>2015-02-23T11:32:13Z</time>
      </trkpt>
      <trkpt lat="43.21108" lon="5.43763">
        <ele>225.09</ele>
        <time>2015-02-23T11:32:27Z</time>
      </trkpt>
      <trkpt lat="43.21115" lon="5.4376">
        <ele>224.12</ele>
        <time>2015-02-23T11:32:37Z</time>
      </trkpt>
      <trkpt lat="43.21129" lon="5.43754">
        <ele>225.09</ele>
        <time>2015-02-23T11:32:55Z</time>
      </trkpt>
      <trkpt lat="43.21139" lon="5.43754">
        <ele>225.57</ele>
        <time>2015-02-23T11:33:11Z</time>
      </trkpt>
      <trkpt lat="43.21146" lon="5.43753">
        <ele>228.93</ele>
        <time>2015-02-23T11:33:22Z</time>
      </trkpt>
      <trkpt lat="43.21148" lon="5.43752">
        <ele>227.01</ele>
        <time>2015-02-23T11:33:27Z</time>
      </trkpt>
      <trkpt lat="43.21149" lon="5.43751">
        <ele>227.49</ele>
        <time>2015-02-23T11:33:32Z</time>
      </trkpt>
      <trkpt lat="43.21154" lon="5.43749">
        <ele>229.89</ele>
        <time>2015-02-23T11:33:48Z</time>
      </trkpt>
      <trkpt lat="43.21155" lon="5.43749">
        <ele>229.41</ele>
        <time>2015-02-23T11:33:49Z</time>
      </trkpt>
      <trkpt lat="43.21158" lon="5.43747">
        <ele>230.85</ele>
        <time>2015-02-23T11:33:53Z</time>
      </trkpt>
      <trkpt lat="43.2116" lon="5.43746">
        <ele>229.41</ele>
        <time>2015-02-23T11:33:55Z</time>
      </trkpt>
      <trkpt lat="43.21161" lon="5.43746">
        <ele>230.85</ele>
        <time>2015-02-23T11:33:57Z</time>
      </trkpt>
      <trkpt lat="43.21166" lon="5.43746">
        <ele>233.26</ele>
        <time>2015-02-23T11:34:04Z</time>
      </trkpt>
      <trkpt lat="43.21177" lon="5.43743">
        <ele>234.22</ele>
        <time>2015-02-23T11:34:21Z</time>
      </trkpt>
      <trkpt lat="43.21182" lon="5.4374">
        <ele>235.18</ele>
        <time>2015-02-23T11:34:34Z</time>
      </trkpt>
      <trkpt lat="43.21182" lon="5.4374">
        <ele>239.51</ele>
        <time>2015-02-23T11:34:49Z</time>
      </trkpt>
      <trkpt lat="43.21182" lon="5.4374">
        <ele>239.02</ele>
        <time>2015-02-23T11:34:50Z</time>
      </trkpt>
      <trkpt lat="43.21182" lon="5.4374">
        <ele>238.54</ele>
        <time>2015-02-23T11:34:56Z</time>
      </trkpt>
      <trkpt lat="43.21177" lon="5.43732">
        <ele>239.51</ele>
        <time>2015-02-23T11:35:08Z</time>
      </trkpt>
      <trkpt lat="43.21173" lon="5.43724">
        <ele>237.1</ele>
        <time>2015-02-23T11:35:21Z</time>
      </trkpt>
      <trkpt lat="43.21171" lon="5.43717">
        <ele>237.58</ele>
        <time>2015-02-23T11:35:36Z</time>
      </trkpt>
      <trkpt lat="43.21167" lon="5.43705">
        <ele>239.51</ele>
        <time>2015-02-23T11:35:48Z</time>
      </trkpt>
      <trkpt lat="43.21166" lon="5.43701">
        <ele>240.47</ele>
        <time>2015-02-23T11:35:52Z</time>
      </trkpt>
      <trkpt lat="43.21166" lon="5.43686">
        <ele>238.54</ele>
        <time>2015-02-23T11:36:05Z</time>
      </trkpt>
      <trkpt lat="43.21167" lon="5.43673">
        <ele>237.58</ele>
        <time>2015-02-23T11:36:16Z</time>
      </trkpt>
      <trkpt lat="43.21165" lon="5.43655">
        <ele>237.58</ele>
        <time>2015-02-23T11:36:30Z</time>
      </trkpt>
      <trkpt lat="43.21165" lon="5.43643">
        <ele>236.14</ele>
        <time>2015-02-23T11:36:39Z</time>
      </trkpt>
      <trkpt lat="43.21164" lon="5.43642">
        <ele>237.58</ele>
        <time>2015-02-23T11:36:44Z</time>
      </trkpt>
      <trkpt lat="43.21165" lon="5.4364">
        <ele>238.06</ele>
        <time>2015-02-23T11:36:46Z</time>
      </trkpt>
      <trkpt lat="43.21167" lon="5.43628">
        <ele>239.02</ele>
        <time>2015-02-23T11:36:56Z</time>
      </trkpt>
      <trkpt lat="43.21167" lon="5.43627">
        <ele>238.54</ele>
        <time>2015-02-23T11:36:57Z</time>
      </trkpt>
      <trkpt lat="43.21166" lon="5.43621">
        <ele>238.54</ele>
        <time>2015-02-23T11:37:08Z</time>
      </trkpt>
      <trkpt lat="43.21167" lon="5.4362">
        <ele>240.47</ele>
        <time>2015-02-23T11:37:11Z</time>
      </trkpt>
      <trkpt lat="43.21169" lon="5.43608">
        <ele>239.99</ele>
        <time>2015-02-23T11:37:25Z</time>
      </trkpt>
      <trkpt lat="43.21169" lon="5.43608">
        <ele>241.91</ele>
        <time>2015-02-23T11:37:28Z</time>
      </trkpt>
      <trkpt lat="43.21174" lon="5.43604">
        <ele>239.99</ele>
        <time>2015-02-23T11:37:43Z</time>
      </trkpt>
      <trkpt lat="43.21174" lon="5.43604">
        <ele>239.99</ele>
        <time>2015-02-23T11:37:44Z</time>
      </trkpt>
      <trkpt lat="43.21174" lon="5.43598">
        <ele>243.35</ele>
        <time>2015-02-23T11:37:57Z</time>
      </trkpt>
      <trkpt lat="43.21174" lon="5.43598">
        <ele>247.2</ele>
        <time>2015-02-23T11:37:58Z</time>
      </trkpt>
      <trkpt lat="43.21174" lon="5.43598">
        <ele>243.35</ele>
        <time>2015-02-23T11:37:59Z</time>
      </trkpt>
      <trkpt lat="43.21174" lon="5.43598">
        <ele>241.43</ele>
        <time>2015-02-23T11:38:01Z</time>
      </trkpt>
      <trkpt lat="43.21169" lon="5.436">
        <ele>239.02</ele>
        <time>2015-02-23T11:38:17Z</time>
      </trkpt>
      <trkpt lat="43.21164" lon="5.43606">
        <ele>234.22</ele>
        <time>2015-02-23T11:38:30Z</time>
      </trkpt>
      <trkpt lat="43.21164" lon="5.43606">
        <ele>237.58</ele>
        <time>2015-02-23T11:38:31Z</time>
      </trkpt>
      <trkpt lat="43.21164" lon="5.43611">
        <ele>236.62</ele>
        <time>2015-02-23T11:38:46Z</time>
      </trkpt>
      <trkpt lat="43.21159" lon="5.43618">
        <ele>235.66</ele>
        <time>2015-02-23T11:39:02Z</time>
      </trkpt>
      <trkpt lat="43.21157" lon="5.43624">
        <ele>235.18</ele>
        <time>2015-02-23T11:39:18Z</time>
      </trkpt>
      <trkpt lat="43.21157" lon="5.43625">
        <ele>235.18</ele>
        <time>2015-02-23T11:39:19Z</time>
      </trkpt>
      <trkpt lat="43.21156" lon="5.4363">
        <ele>230.37</ele>
        <time>2015-02-23T11:39:33Z</time>
      </trkpt>
      <trkpt lat="43.21156" lon="5.4363">
        <ele>236.62</ele>
        <time>2015-02-23T11:39:34Z</time>
      </trkpt>
      <trkpt lat="43.21156" lon="5.43631">
        <ele>235.66</ele>
        <time>2015-02-23T11:39:55Z</time>
      </trkpt>
      <trkpt lat="43.21156" lon="5.43631">
        <ele>234.22</ele>
        <time>2015-02-23T11:40:24Z</time>
      </trkpt>
      <trkpt lat="43.21156" lon="5.43631">
        <ele>235.18</ele>
        <time>2015-02-23T11:40:42Z</time>
      </trkpt>
      <trkpt lat="43.21156" lon="5.43631">
        <ele>235.18</ele>
        <time>2015-02-23T11:41:02Z</time>
      </trkpt>
      <trkpt lat="43.21156" lon="5.43631">
        <ele>236.14</ele>
        <time>2015-02-23T11:41:12Z</time>
      </trkpt>
      <trkpt lat="43.21156" lon="5.43632">
        <ele>232.78</ele>
        <time>2015-02-23T11:41:19Z</time>
      </trkpt>
      <trkpt lat="43.21156" lon="5.43632">
        <ele>236.62</ele>
        <time>2015-02-23T11:41:20Z</time>
      </trkpt>
      <trkpt lat="43.21156" lon="5.43631">
        <ele>239.51</ele>
        <time>2015-02-23T11:41:38Z</time>
      </trkpt>
      <trkpt lat="43.21156" lon="5.43631">
        <ele>236.14</ele>
        <time>2015-02-23T11:41:40Z</time>
      </trkpt>
      <trkpt lat="43.21156" lon="5.43631">
        <ele>236.14</ele>
        <time>2015-02-23T11:42:03Z</time>
      </trkpt>
      <trkpt lat="43.21156" lon="5.43631">
        <ele>235.66</ele>
        <time>2015-02-23T11:42:29Z</time>
      </trkpt>
      <trkpt lat="43.21156" lon="5.43631">
        <ele>236.14</ele>
        <time>2015-02-23T11:42:52Z</time>
      </trkpt>
      <trkpt lat="43.21156" lon="5.43631">
        <ele>230.85</ele>
        <time>2015-02-23T11:43:08Z</time>
      </trkpt>
      <trkpt lat="43.21156" lon="5.43631">
        <ele>231.81</ele>
        <time>2015-02-23T11:43:09Z</time>
      </trkpt>
      <trkpt lat="43.21156" lon="5.43631">
        <ele>238.06</ele>
        <time>2015-02-23T11:43:10Z</time>
      </trkpt>
      <trkpt lat="43.21156" lon="5.43631">
        <ele>245.27</ele>
        <time>2015-02-23T11:43:11Z</time>
      </trkpt>
      <trkpt lat="43.21156" lon="5.43631">
        <ele>237.1</ele>
        <time>2015-02-23T11:43:12Z</time>
      </trkpt>
      <trkpt lat="43.21156" lon="5.43631">
        <ele>235.66</ele>
        <time>2015-02-23T11:43:14Z</time>
      </trkpt>
      <trkpt lat="43.21156" lon="5.43631">
        <ele>236.62</ele>
        <time>2015-02-23T11:43:40Z</time>
      </trkpt>
      <trkpt lat="43.21156" lon="5.43631">
        <ele>236.14</ele>
        <time>2015-02-23T11:43:54Z</time>
      </trkpt>
      <trkpt lat="43.21156" lon="5.43632">
        <ele>232.78</ele>
        <time>2015-02-23T11:44:05Z</time>
      </trkpt>
      <trkpt lat="43.21156" lon="5.43632">
        <ele>236.62</ele>
        <time>2015-02-23T11:44:18Z</time>
      </trkpt>
      <trkpt lat="43.21156" lon="5.43632">
        <ele>234.7</ele>
        <time>2015-02-23T11:44:47Z</time>
      </trkpt>
      <trkpt lat="43.21156" lon="5.43632">
        <ele>234.7</ele>
        <time>2015-02-23T11:45:12Z</time>
      </trkpt>
      <trkpt lat="43.21156" lon="5.43631">
        <ele>232.78</ele>
        <time>2015-02-23T11:45:41Z</time>
      </trkpt>
      <trkpt lat="43.21155" lon="5.43631">
        <ele>236.14</ele>
        <time>2015-02-23T11:46:05Z</time>
      </trkpt>
      <trkpt lat="43.21154" lon="5.43631">
        <ele>231.81</ele>
        <time>2015-02-23T11:46:27Z</time>
      </trkpt>
      <trkpt lat="43.21154" lon="5.43631">
        <ele>233.26</ele>
        <time>2015-02-23T11:46:28Z</time>
      </trkpt>
      <trkpt lat="43.21154" lon="5.43631">
        <ele>238.54</ele>
        <time>2015-02-23T11:46:30Z</time>
      </trkpt>
      <trkpt lat="43.21154" lon="5.43631">
        <ele>234.7</ele>
        <time>2015-02-23T11:46:31Z</time>
      </trkpt>
      <trkpt lat="43.21154" lon="5.43631">
        <ele>235.18</ele>
        <time>2015-02-23T11:47:03Z</time>
      </trkpt>
      <trkpt lat="43.21154" lon="5.43631">
        <ele>235.18</ele>
        <time>2015-02-23T11:47:33Z</time>
      </trkpt>
      <trkpt lat="43.21154" lon="5.43631">
        <ele>233.74</ele>
        <time>2015-02-23T11:48:06Z</time>
      </trkpt>
      <trkpt lat="43.21154" lon="5.43631">
        <ele>234.7</ele>
        <time>2015-02-23T11:48:15Z</time>
      </trkpt>
      <trkpt lat="43.21154" lon="5.43631">
        <ele>234.7</ele>
        <time>2015-02-23T11:48:47Z</time>
      </trkpt>
      <trkpt lat="43.21154" lon="5.43631">
        <ele>235.66</ele>
        <time>2015-02-23T11:49:16Z</time>
      </trkpt>
      <trkpt lat="43.21154" lon="5.43631">
        <ele>234.22</ele>
        <time>2015-02-23T11:49:22Z</time>
      </trkpt>
      <trkpt lat="43.21154" lon="5.4363">
        <ele>235.18</ele>
        <time>2015-02-23T11:49:55Z</time>
      </trkpt>
      <trkpt lat="43.21154" lon="5.4363">
        <ele>236.62</ele>
        <time>2015-02-23T11:50:25Z</time>
      </trkpt>
      <trkpt lat="43.21154" lon="5.4363">
        <ele>236.14</ele>
        <time>2015-02-23T11:50:43Z</time>
      </trkpt>
      <trkpt lat="43.21154" lon="5.4363">
        <ele>231.33</ele>
        <time>2015-02-23T11:50:52Z</time>
      </trkpt>
      <trkpt lat="43.21154" lon="5.4363">
        <ele>235.18</ele>
        <time>2015-02-23T11:50:53Z</time>
      </trkpt>
      <trkpt lat="43.21153" lon="5.4363">
        <ele>237.1</ele>
        <time>2015-02-23T11:51:20Z</time>
      </trkpt>
      <trkpt lat="43.21153" lon="5.4363">
        <ele>234.7</ele>
        <time>2015-02-23T11:51:34Z</time>
      </trkpt>
      <trkpt lat="43.21153" lon="5.4363">
        <ele>237.58</ele>
        <time>2015-02-23T11:51:46Z</time>
      </trkpt>
      <trkpt lat="43.21153" lon="5.4363">
        <ele>236.14</ele>
        <time>2015-02-23T11:52:16Z</time>
      </trkpt>
      <trkpt lat="43.21153" lon="5.4363">
        <ele>235.66</ele>
        <time>2015-02-23T11:52:50Z</time>
      </trkpt>
      <trkpt lat="43.21153" lon="5.4363">
        <ele>235.66</ele>
        <time>2015-02-23T11:53:20Z</time>
      </trkpt>
      <trkpt lat="43.21153" lon="5.4363">
        <ele>234.7</ele>
        <time>2015-02-23T11:53:45Z</time>
      </trkpt>
      <trkpt lat="43.21153" lon="5.43631">
        <ele>235.18</ele>
        <time>2015-02-23T11:54:22Z</time>
      </trkpt>
      <trkpt lat="43.21153" lon="5.43631">
        <ele>236.14</ele>
        <time>2015-02-23T11:55:00Z</time>
      </trkpt>
      <trkpt lat="43.21153" lon="5.4363">
        <ele>233.74</ele>
        <time>2015-02-23T11:55:26Z</time>
      </trkpt>
      <trkpt lat="43.21153" lon="5.4363">
        <ele>235.18</ele>
        <time>2015-02-23T11:56:04Z</time>
      </trkpt>
      <trkpt lat="43.21153" lon="5.4363">
        <ele>234.22</ele>
        <time>2015-02-23T11:56:37Z</time>
      </trkpt>
      <trkpt lat="43.21153" lon="5.4363">
        <ele>235.18</ele>
        <time>2015-02-23T11:57:12Z</time>
      </trkpt>
      <trkpt lat="43.21153" lon="5.4363">
        <ele>234.22</ele>
        <time>2015-02-23T11:57:45Z</time>
      </trkpt>
      <trkpt lat="43.21153" lon="5.4363">
        <ele>234.7</ele>
        <time>2015-02-23T11:58:11Z</time>
      </trkpt>
      <trkpt lat="43.21153" lon="5.4363">
        <ele>233.74</ele>
        <time>2015-02-23T11:58:25Z</time>
      </trkpt>
      <trkpt lat="43.21153" lon="5.4363">
        <ele>233.26</ele>
        <time>2015-02-23T11:58:47Z</time>
      </trkpt>
      <trkpt lat="43.21152" lon="5.4363">
        <ele>234.22</ele>
        <time>2015-02-23T11:59:20Z</time>
      </trkpt>
      <trkpt lat="43.21153" lon="5.4363">
        <ele>234.7</ele>
        <time>2015-02-23T11:59:49Z</time>
      </trkpt>
      <trkpt lat="43.21153" lon="5.4363">
        <ele>233.74</ele>
        <time>2015-02-23T12:00:15Z</time>
      </trkpt>
      <trkpt lat="43.21153" lon="5.4363">
        <ele>233.26</ele>
        <time>2015-02-23T12:00:38Z</time>
      </trkpt>
      <trkpt lat="43.21153" lon="5.4363">
        <ele>233.74</ele>
        <time>2015-02-23T12:01:08Z</time>
      </trkpt>
      <trkpt lat="43.21153" lon="5.4363">
        <ele>235.18</ele>
        <time>2015-02-23T12:01:38Z</time>
      </trkpt>
      <trkpt lat="43.21153" lon="5.4363">
        <ele>234.22</ele>
        <time>2015-02-23T12:02:07Z</time>
      </trkpt>
      <trkpt lat="43.21153" lon="5.4363">
        <ele>233.74</ele>
        <time>2015-02-23T12:02:33Z</time>
      </trkpt>
      <trkpt lat="43.21153" lon="5.4363">
        <ele>234.7</ele>
        <time>2015-02-23T12:03:02Z</time>
      </trkpt>
      <trkpt lat="43.21153" lon="5.43631">
        <ele>234.7</ele>
        <time>2015-02-23T12:03:27Z</time>
      </trkpt>
      <trkpt lat="43.21153" lon="5.43631">
        <ele>234.7</ele>
        <time>2015-02-23T12:03:33Z</time>
      </trkpt>
      <trkpt lat="43.21153" lon="5.43631">
        <ele>230.37</ele>
        <time>2015-02-23T12:03:37Z</time>
      </trkpt>
      <trkpt lat="43.21153" lon="5.43631">
        <ele>235.66</ele>
        <time>2015-02-23T12:03:38Z</time>
      </trkpt>
      <trkpt lat="43.21154" lon="5.4363">
        <ele>234.7</ele>
        <time>2015-02-23T12:03:56Z</time>
      </trkpt>
      <trkpt lat="43.21154" lon="5.4363">
        <ele>235.18</ele>
        <time>2015-02-23T12:04:20Z</time>
      </trkpt>
      <trkpt lat="43.21155" lon="5.43629">
        <ele>234.7</ele>
        <time>2015-02-23T12:04:46Z</time>
      </trkpt>
      <trkpt lat="43.21155" lon="5.4363">
        <ele>235.18</ele>
        <time>2015-02-23T12:05:03Z</time>
      </trkpt>
      <trkpt lat="43.21155" lon="5.4363">
        <ele>235.66</ele>
        <time>2015-02-23T12:05:28Z</time>
      </trkpt>
      <trkpt lat="43.21155" lon="5.4363">
        <ele>234.22</ele>
        <time>2015-02-23T12:05:54Z</time>
      </trkpt>
      <trkpt lat="43.21155" lon="5.4363">
        <ele>233.74</ele>
        <time>2015-02-23T12:06:21Z</time>
      </trkpt>
      <trkpt lat="43.21155" lon="5.4363">
        <ele>234.7</ele>
        <time>2015-02-23T12:06:45Z</time>
      </trkpt>
      <trkpt lat="43.21155" lon="5.4363">
        <ele>234.22</ele>
        <time>2015-02-23T12:07:07Z</time>
      </trkpt>
      <trkpt lat="43.21155" lon="5.4363">
        <ele>237.1</ele>
        <time>2015-02-23T12:07:28Z</time>
      </trkpt>
      <trkpt lat="43.21156" lon="5.4363">
        <ele>236.14</ele>
        <time>2015-02-23T12:07:52Z</time>
      </trkpt>
      <trkpt lat="43.21156" lon="5.4363">
        <ele>235.18</ele>
        <time>2015-02-23T12:08:13Z</time>
      </trkpt>
      <trkpt lat="43.21156" lon="5.43629">
        <ele>232.78</ele>
        <time>2015-02-23T12:08:37Z</time>
      </trkpt>
      <trkpt lat="43.21156" lon="5.43629">
        <ele>234.22</ele>
        <time>2015-02-23T12:08:38Z</time>
      </trkpt>
      <trkpt lat="43.21155" lon="5.43629">
        <ele>235.18</ele>
        <time>2015-02-23T12:09:04Z</time>
      </trkpt>
      <trkpt lat="43.21155" lon="5.43629">
        <ele>236.14</ele>
        <time>2015-02-23T12:09:28Z</time>
      </trkpt>
      <trkpt lat="43.21155" lon="5.43628">
        <ele>235.18</ele>
        <time>2015-02-23T12:09:49Z</time>
      </trkpt>
      <trkpt lat="43.21155" lon="5.43628">
        <ele>236.14</ele>
        <time>2015-02-23T12:10:08Z</time>
      </trkpt>
      <trkpt lat="43.21155" lon="5.43628">
        <ele>237.58</ele>
        <time>2015-02-23T12:10:26Z</time>
      </trkpt>
      <trkpt lat="43.21155" lon="5.43628">
        <ele>237.1</ele>
        <time>2015-02-23T12:10:57Z</time>
      </trkpt>
      <trkpt lat="43.21156" lon="5.43628">
        <ele>236.62</ele>
        <time>2015-02-23T12:11:17Z</time>
      </trkpt>
      <trkpt lat="43.21156" lon="5.43629">
        <ele>236.14</ele>
        <time>2015-02-23T12:11:48Z</time>
      </trkpt>
      <trkpt lat="43.21156" lon="5.43629">
        <ele>236.14</ele>
        <time>2015-02-23T12:12:14Z</time>
      </trkpt>
      <trkpt lat="43.21156" lon="5.43628">
        <ele>237.58</ele>
        <time>2015-02-23T12:12:40Z</time>
      </trkpt>
      <trkpt lat="43.21156" lon="5.43628">
        <ele>236.62</ele>
        <time>2015-02-23T12:13:07Z</time>
      </trkpt>
      <trkpt lat="43.21156" lon="5.43628">
        <ele>237.1</ele>
        <time>2015-02-23T12:13:33Z</time>
      </trkpt>
      <trkpt lat="43.21157" lon="5.43628">
        <ele>236.62</ele>
        <time>2015-02-23T12:13:56Z</time>
      </trkpt>
      <trkpt lat="43.21157" lon="5.43628">
        <ele>236.62</ele>
        <time>2015-02-23T12:14:25Z</time>
      </trkpt>
      <trkpt lat="43.21157" lon="5.43628">
        <ele>238.06</ele>
        <time>2015-02-23T12:14:27Z</time>
      </trkpt>
      <trkpt lat="43.21157" lon="5.43628">
        <ele>236.62</ele>
        <time>2015-02-23T12:14:53Z</time>
      </trkpt>
      <trkpt lat="43.21157" lon="5.4363">
        <ele>236.14</ele>
        <time>2015-02-23T12:15:24Z</time>
      </trkpt>
      <trkpt lat="43.21156" lon="5.4363">
        <ele>236.62</ele>
        <time>2015-02-23T12:15:54Z</time>
      </trkpt>
      <trkpt lat="43.21156" lon="5.4363">
        <ele>238.06</ele>
        <time>2015-02-23T12:16:24Z</time>
      </trkpt>
      <trkpt lat="43.21157" lon="5.43632">
        <ele>238.06</ele>
        <time>2015-02-23T12:16:50Z</time>
      </trkpt>
      <trkpt lat="43.21158" lon="5.43631">
        <ele>237.58</ele>
        <time>2015-02-23T12:17:24Z</time>
      </trkpt>
      <trkpt lat="43.21158" lon="5.43631">
        <ele>239.02</ele>
        <time>2015-02-23T12:17:51Z</time>
      </trkpt>
      <trkpt lat="43.21158" lon="5.43631">
        <ele>239.99</ele>
        <time>2015-02-23T12:18:17Z</time>
      </trkpt>
      <trkpt lat="43.21158" lon="5.43631">
        <ele>238.06</ele>
        <time>2015-02-23T12:18:42Z</time>
      </trkpt>
      <trkpt lat="43.21158" lon="5.43631">
        <ele>226.53</ele>
        <time>2015-02-23T12:18:49Z</time>
      </trkpt>
      <trkpt lat="43.21158" lon="5.43631">
        <ele>246.23</ele>
        <time>2015-02-23T12:18:50Z</time>
      </trkpt>
      <trkpt lat="43.21158" lon="5.43631">
        <ele>239.51</ele>
        <time>2015-02-23T12:18:51Z</time>
      </trkpt>
      <trkpt lat="43.21158" lon="5.43631">
        <ele>239.02</ele>
        <time>2015-02-23T12:18:53Z</time>
      </trkpt>
      <trkpt lat="43.21157" lon="5.43632">
        <ele>238.54</ele>
        <time>2015-02-23T12:19:17Z</time>
      </trkpt>
      <trkpt lat="43.21158" lon="5.43632">
        <ele>237.58</ele>
        <time>2015-02-23T12:19:38Z</time>
      </trkpt>
      <trkpt lat="43.21158" lon="5.43632">
        <ele>240.95</ele>
        <time>2015-02-23T12:19:43Z</time>
      </trkpt>
      <trkpt lat="43.21158" lon="5.43632">
        <ele>238.06</ele>
        <time>2015-02-23T12:19:46Z</time>
      </trkpt>
      <trkpt lat="43.21158" lon="5.43632">
        <ele>237.1</ele>
        <time>2015-02-23T12:20:12Z</time>
      </trkpt>
      <trkpt lat="43.21157" lon="5.43632">
        <ele>238.06</ele>
        <time>2015-02-23T12:20:43Z</time>
      </trkpt>
      <trkpt lat="43.21157" lon="5.43632">
        <ele>236.14</ele>
        <time>2015-02-23T12:21:13Z</time>
      </trkpt>
      <trkpt lat="43.21156" lon="5.43633">
        <ele>238.06</ele>
        <time>2015-02-23T12:21:42Z</time>
      </trkpt>
      <trkpt lat="43.21156" lon="5.43633">
        <ele>239.02</ele>
        <time>2015-02-23T12:22:16Z</time>
      </trkpt>
      <trkpt lat="43.21155" lon="5.43633">
        <ele>237.1</ele>
        <time>2015-02-23T12:22:48Z</time>
      </trkpt>
      <trkpt lat="43.21154" lon="5.43634">
        <ele>236.62</ele>
        <time>2015-02-23T12:23:16Z</time>
      </trkpt>
      <trkpt lat="43.21154" lon="5.43634">
        <ele>237.58</ele>
        <time>2015-02-23T12:23:49Z</time>
      </trkpt>
      <trkpt lat="43.21154" lon="5.43634">
        <ele>237.58</ele>
        <time>2015-02-23T12:23:55Z</time>
      </trkpt>
      <trkpt lat="43.21153" lon="5.43635">
        <ele>238.06</ele>
        <time>2015-02-23T12:24:29Z</time>
      </trkpt>
      <trkpt lat="43.21152" lon="5.43635">
        <ele>238.06</ele>
        <time>2015-02-23T12:25:02Z</time>
      </trkpt>
      <trkpt lat="43.21152" lon="5.43636">
        <ele>238.06</ele>
        <time>2015-02-23T12:25:35Z</time>
      </trkpt>
      <trkpt lat="43.21151" lon="5.43636">
        <ele>238.06</ele>
        <time>2015-02-23T12:26:02Z</time>
      </trkpt>
      <trkpt lat="43.21151" lon="5.43636">
        <ele>238.06</ele>
        <time>2015-02-23T12:26:32Z</time>
      </trkpt>
      <trkpt lat="43.2115" lon="5.43636">
        <ele>238.06</ele>
        <time>2015-02-23T12:27:02Z</time>
      </trkpt>
      <trkpt lat="43.2115" lon="5.43637">
        <ele>236.62</ele>
        <time>2015-02-23T12:27:31Z</time>
      </trkpt>
      <trkpt lat="43.21149" lon="5.43637">
        <ele>237.58</ele>
        <time>2015-02-23T12:28:05Z</time>
      </trkpt>
      <trkpt lat="43.21149" lon="5.43638">
        <ele>238.54</ele>
        <time>2015-02-23T12:28:40Z</time>
      </trkpt>
      <trkpt lat="43.21149" lon="5.43638">
        <ele>239.02</ele>
        <time>2015-02-23T12:29:13Z</time>
      </trkpt>
      <trkpt lat="43.21148" lon="5.43639">
        <ele>238.54</ele>
        <time>2015-02-23T12:29:47Z</time>
      </trkpt>
      <trkpt lat="43.21147" lon="5.4364">
        <ele>239.51</ele>
        <time>2015-02-23T12:30:17Z</time>
      </trkpt>
      <trkpt lat="43.21147" lon="5.4364">
        <ele>239.99</ele>
        <time>2015-02-23T12:30:46Z</time>
      </trkpt>
      <trkpt lat="43.21146" lon="5.43641">
        <ele>239.51</ele>
        <time>2015-02-23T12:31:16Z</time>
      </trkpt>
      <trkpt lat="43.21146" lon="5.43641">
        <ele>239.51</ele>
        <time>2015-02-23T12:31:45Z</time>
      </trkpt>
      <trkpt lat="43.21144" lon="5.4364">
        <ele>240.47</ele>
        <time>2015-02-23T12:32:12Z</time>
      </trkpt>
      <trkpt lat="43.21143" lon="5.4364">
        <ele>240.95</ele>
        <time>2015-02-23T12:32:40Z</time>
      </trkpt>
      <trkpt lat="43.21143" lon="5.4364">
        <ele>240.47</ele>
        <time>2015-02-23T12:33:05Z</time>
      </trkpt>
      <trkpt lat="43.21143" lon="5.4364">
        <ele>240.95</ele>
        <time>2015-02-23T12:33:29Z</time>
      </trkpt>
      <trkpt lat="43.21143" lon="5.43641">
        <ele>241.91</ele>
        <time>2015-02-23T12:33:54Z</time>
      </trkpt>
      <trkpt lat="43.21142" lon="5.43642">
        <ele>241.91</ele>
        <time>2015-02-23T12:34:16Z</time>
      </trkpt>
      <trkpt lat="43.21142" lon="5.43642">
        <ele>241.43</ele>
        <time>2015-02-23T12:34:42Z</time>
      </trkpt>
      <trkpt lat="43.21142" lon="5.43643">
        <ele>241.43</ele>
        <time>2015-02-23T12:35:10Z</time>
      </trkpt>
      <trkpt lat="43.21141" lon="5.43643">
        <ele>241.91</ele>
        <time>2015-02-23T12:35:37Z</time>
      </trkpt>
      <trkpt lat="43.21141" lon="5.43644">
        <ele>242.87</ele>
        <time>2015-02-23T12:35:59Z</time>
      </trkpt>
      <trkpt lat="43.21141" lon="5.43644">
        <ele>243.35</ele>
        <time>2015-02-23T12:36:26Z</time>
      </trkpt>
      <trkpt lat="43.21141" lon="5.43645">
        <ele>242.39</ele>
        <time>2015-02-23T12:36:54Z</time>
      </trkpt>
      <trkpt lat="43.2114" lon="5.43646">
        <ele>243.35</ele>
        <time>2015-02-23T12:37:19Z</time>
      </trkpt>
      <trkpt lat="43.21139" lon="5.43647">
        <ele>242.87</ele>
        <time>2015-02-23T12:37:45Z</time>
      </trkpt>
      <trkpt lat="43.21139" lon="5.43647">
        <ele>244.31</ele>
        <time>2015-02-23T12:38:11Z</time>
      </trkpt>
      <trkpt lat="43.21139" lon="5.43647">
        <ele>242.87</ele>
        <time>2015-02-23T12:38:36Z</time>
      </trkpt>
      <trkpt lat="43.21138" lon="5.43648">
        <ele>241.91</ele>
        <time>2015-02-23T12:38:59Z</time>
      </trkpt>
      <trkpt lat="43.21137" lon="5.43649">
        <ele>242.39</ele>
        <time>2015-02-23T12:39:23Z</time>
      </trkpt>
      <trkpt lat="43.21137" lon="5.43648">
        <ele>242.39</ele>
        <time>2015-02-23T12:39:48Z</time>
      </trkpt>
      <trkpt lat="43.21137" lon="5.43648">
        <ele>242.87</ele>
        <time>2015-02-23T12:40:15Z</time>
      </trkpt>
      <trkpt lat="43.21136" lon="5.4365">
        <ele>243.83</ele>
        <time>2015-02-23T12:40:45Z</time>
      </trkpt>
      <trkpt lat="43.21137" lon="5.4365">
        <ele>243.83</ele>
        <time>2015-02-23T12:41:09Z</time>
      </trkpt>
      <trkpt lat="43.21138" lon="5.43649">
        <ele>243.35</ele>
        <time>2015-02-23T12:41:27Z</time>
      </trkpt>
      <trkpt lat="43.21139" lon="5.43646">
        <ele>243.83</ele>
        <time>2015-02-23T12:41:47Z</time>
      </trkpt>
      <trkpt lat="43.2114" lon="5.43646">
        <ele>244.79</ele>
        <time>2015-02-23T12:42:11Z</time>
      </trkpt>
      <trkpt lat="43.21137" lon="5.43643">
        <ele>245.27</ele>
        <time>2015-02-23T12:42:31Z</time>
      </trkpt>
      <trkpt lat="43.21135" lon="5.43641">
        <ele>245.27</ele>
        <time>2015-02-23T12:42:49Z</time>
      </trkpt>
      <trkpt lat="43.21133" lon="5.43636">
        <ele>245.27</ele>
        <time>2015-02-23T12:43:10Z</time>
      </trkpt>
      <trkpt lat="43.21134" lon="5.43636">
        <ele>246.23</ele>
        <time>2015-02-23T12:43:29Z</time>
      </trkpt>
      <trkpt lat="43.21135" lon="5.43636">
        <ele>245.75</ele>
        <time>2015-02-23T12:43:50Z</time>
      </trkpt>
      <trkpt lat="43.21135" lon="5.43636">
        <ele>245.75</ele>
        <time>2015-02-23T12:44:09Z</time>
      </trkpt>
      <trkpt lat="43.21135" lon="5.43636">
        <ele>246.72</ele>
        <time>2015-02-23T12:44:30Z</time>
      </trkpt>
      <trkpt lat="43.21135" lon="5.43636">
        <ele>245.75</ele>
        <time>2015-02-23T12:44:49Z</time>
      </trkpt>
      <trkpt lat="43.21134" lon="5.43636">
        <ele>246.23</ele>
        <time>2015-02-23T12:45:07Z</time>
      </trkpt>
      <trkpt lat="43.21133" lon="5.43634">
        <ele>247.68</ele>
        <time>2015-02-23T12:45:27Z</time>
      </trkpt>
      <trkpt lat="43.21137" lon="5.43633">
        <ele>248.16</ele>
        <time>2015-02-23T12:45:44Z</time>
      </trkpt>
      <trkpt lat="43.21138" lon="5.43631">
        <ele>248.64</ele>
        <time>2015-02-23T12:46:02Z</time>
      </trkpt>
      <trkpt lat="43.2114" lon="5.43632">
        <ele>248.64</ele>
        <time>2015-02-23T12:46:17Z</time>
      </trkpt>
      <trkpt lat="43.21138" lon="5.43633">
        <ele>248.16</ele>
        <time>2015-02-23T12:46:36Z</time>
      </trkpt>
      <trkpt lat="43.21138" lon="5.43635">
        <ele>248.64</ele>
        <time>2015-02-23T12:46:51Z</time>
      </trkpt>
      <trkpt lat="43.21137" lon="5.43634">
        <ele>249.6</ele>
        <time>2015-02-23T12:47:06Z</time>
      </trkpt>
      <trkpt lat="43.21135" lon="5.43632">
        <ele>249.12</ele>
        <time>2015-02-23T12:47:23Z</time>
      </trkpt>
      <trkpt lat="43.21134" lon="5.43631">
        <ele>249.12</ele>
        <time>2015-02-23T12:47:39Z</time>
      </trkpt>
      <trkpt lat="43.21135" lon="5.4363">
        <ele>249.6</ele>
        <time>2015-02-23T12:47:54Z</time>
      </trkpt>
      <trkpt lat="43.21135" lon="5.4363">
        <ele>250.56</ele>
        <time>2015-02-23T12:48:14Z</time>
      </trkpt>
      <trkpt lat="43.21135" lon="5.43629">
        <ele>251.04</ele>
        <time>2015-02-23T12:48:47Z</time>
      </trkpt>
      <trkpt lat="43.21134" lon="5.43629">
        <ele>250.56</ele>
        <time>2015-02-23T12:49:17Z</time>
      </trkpt>
      <trkpt lat="43.21134" lon="5.43629">
        <ele>250.56</ele>
        <time>2015-02-23T12:49:45Z</time>
      </trkpt>
      <trkpt lat="43.21133" lon="5.43632">
        <ele>251.52</ele>
        <time>2015-02-23T12:50:11Z</time>
      </trkpt>
      <trkpt lat="43.21132" lon="5.43633">
        <ele>252</ele>
        <time>2015-02-23T12:50:36Z</time>
      </trkpt>
      <trkpt lat="43.21132" lon="5.43633">
        <ele>251.52</ele>
        <time>2015-02-23T12:50:58Z</time>
      </trkpt>
      <trkpt lat="43.21131" lon="5.43635">
        <ele>252</ele>
        <time>2015-02-23T12:51:21Z</time>
      </trkpt>
      <trkpt lat="43.21131" lon="5.43635">
        <ele>252</ele>
        <time>2015-02-23T12:51:44Z</time>
      </trkpt>
      <trkpt lat="43.2113" lon="5.43635">
        <ele>252</ele>
        <time>2015-02-23T12:52:05Z</time>
      </trkpt>
      <trkpt lat="43.2113" lon="5.43635">
        <ele>252</ele>
        <time>2015-02-23T12:52:32Z</time>
      </trkpt>
      <trkpt lat="43.21131" lon="5.43635">
        <ele>252.48</ele>
        <time>2015-02-23T12:53:00Z</time>
      </trkpt>
      <trkpt lat="43.21131" lon="5.43635">
        <ele>252.96</ele>
        <time>2015-02-23T12:53:31Z</time>
      </trkpt>
      <trkpt lat="43.21132" lon="5.43635">
        <ele>252.96</ele>
        <time>2015-02-23T12:53:58Z</time>
      </trkpt>
      <trkpt lat="43.21132" lon="5.43635">
        <ele>253.44</ele>
        <time>2015-02-23T12:54:24Z</time>
      </trkpt>
      <trkpt lat="43.21131" lon="5.43635">
        <ele>253.93</ele>
        <time>2015-02-23T12:54:48Z</time>
      </trkpt>
      <trkpt lat="43.21131" lon="5.43635">
        <ele>253.44</ele>
        <time>2015-02-23T12:55:14Z</time>
      </trkpt>
      <trkpt lat="43.2113" lon="5.43636">
        <ele>252.48</ele>
        <time>2015-02-23T12:55:37Z</time>
      </trkpt>
      <trkpt lat="43.21129" lon="5.43636">
        <ele>252.96</ele>
        <time>2015-02-23T12:56:00Z</time>
      </trkpt>
      <trkpt lat="43.21129" lon="5.43636">
        <ele>252.96</ele>
        <time>2015-02-23T12:56:23Z</time>
      </trkpt>
      <trkpt lat="43.21128" lon="5.43637">
        <ele>253.93</ele>
        <time>2015-02-23T12:56:48Z</time>
      </trkpt>
      <trkpt lat="43.21128" lon="5.43637">
        <ele>252.96</ele>
        <time>2015-02-23T12:57:10Z</time>
      </trkpt>
      <trkpt lat="43.21127" lon="5.43637">
        <ele>252.96</ele>
        <time>2015-02-23T12:57:35Z</time>
      </trkpt>
      <trkpt lat="43.21127" lon="5.43638">
        <ele>253.44</ele>
        <time>2015-02-23T12:58:00Z</time>
      </trkpt>
      <trkpt lat="43.21127" lon="5.43638">
        <ele>253.44</ele>
        <time>2015-02-23T12:58:29Z</time>
      </trkpt>
      <trkpt lat="43.21131" lon="5.43631">
        <ele>253.93</ele>
        <time>2015-02-23T12:58:54Z</time>
      </trkpt>
      <trkpt lat="43.21131" lon="5.43631">
        <ele>253.93</ele>
        <time>2015-02-23T12:59:23Z</time>
      </trkpt>
      <trkpt lat="43.21131" lon="5.43631">
        <ele>253.44</ele>
        <time>2015-02-23T12:59:51Z</time>
      </trkpt>
      <trkpt lat="43.21132" lon="5.43631">
        <ele>253.93</ele>
        <time>2015-02-23T13:00:18Z</time>
      </trkpt>
      <trkpt lat="43.21135" lon="5.43629">
        <ele>254.89</ele>
        <time>2015-02-23T13:00:41Z</time>
      </trkpt>
      <trkpt lat="43.21135" lon="5.43629">
        <ele>253.93</ele>
        <time>2015-02-23T13:01:04Z</time>
      </trkpt>
      <trkpt lat="43.21136" lon="5.43629">
        <ele>255.37</ele>
        <time>2015-02-23T13:01:33Z</time>
      </trkpt>
      <trkpt lat="43.21137" lon="5.43629">
        <ele>254.41</ele>
        <time>2015-02-23T13:01:58Z</time>
      </trkpt>
      <trkpt lat="43.21139" lon="5.43627">
        <ele>254.89</ele>
        <time>2015-02-23T13:02:25Z</time>
      </trkpt>
      <trkpt lat="43.21139" lon="5.43627">
        <ele>254.89</ele>
        <time>2015-02-23T13:02:48Z</time>
      </trkpt>
      <trkpt lat="43.2114" lon="5.43628">
        <ele>254.89</ele>
        <time>2015-02-23T13:03:11Z</time>
      </trkpt>
      <trkpt lat="43.21141" lon="5.43628">
        <ele>255.37</ele>
        <time>2015-02-23T13:03:35Z</time>
      </trkpt>
      <trkpt lat="43.21141" lon="5.43628">
        <ele>254.89</ele>
        <time>2015-02-23T13:03:58Z</time>
      </trkpt>
      <trkpt lat="43.21142" lon="5.43628">
        <ele>254.89</ele>
        <time>2015-02-23T13:04:23Z</time>
      </trkpt>
      <trkpt lat="43.21144" lon="5.43629">
        <ele>255.37</ele>
        <time>2015-02-23T13:04:47Z</time>
      </trkpt>
      <trkpt lat="43.21143" lon="5.43628">
        <ele>255.37</ele>
        <time>2015-02-23T13:05:13Z</time>
      </trkpt>
      <trkpt lat="43.21144" lon="5.43629">
        <ele>255.85</ele>
        <time>2015-02-23T13:05:38Z</time>
      </trkpt>
      <trkpt lat="43.21145" lon="5.43628">
        <ele>255.37</ele>
        <time>2015-02-23T13:05:58Z</time>
      </trkpt>
      <trkpt lat="43.21145" lon="5.43628">
        <ele>255.37</ele>
        <time>2015-02-23T13:06:26Z</time>
      </trkpt>
      <trkpt lat="43.21145" lon="5.43628">
        <ele>255.85</ele>
        <time>2015-02-23T13:06:53Z</time>
      </trkpt>
      <trkpt lat="43.21144" lon="5.43629">
        <ele>255.37</ele>
        <time>2015-02-23T13:07:20Z</time>
      </trkpt>
      <trkpt lat="43.21143" lon="5.4363">
        <ele>255.85</ele>
        <time>2015-02-23T13:07:49Z</time>
      </trkpt>
      <trkpt lat="43.21143" lon="5.4363">
        <ele>256.81</ele>
        <time>2015-02-23T13:08:17Z</time>
      </trkpt>
      <trkpt lat="43.21143" lon="5.43629">
        <ele>255.85</ele>
        <time>2015-02-23T13:08:45Z</time>
      </trkpt>
      <trkpt lat="43.21143" lon="5.43629">
        <ele>255.37</ele>
        <time>2015-02-23T13:09:09Z</time>
      </trkpt>
      <trkpt lat="43.21143" lon="5.43629">
        <ele>255.85</ele>
        <time>2015-02-23T13:09:37Z</time>
      </trkpt>
      <trkpt lat="43.21143" lon="5.4363">
        <ele>255.85</ele>
        <time>2015-02-23T13:10:05Z</time>
      </trkpt>
      <trkpt lat="43.21143" lon="5.4363">
        <ele>256.33</ele>
        <time>2015-02-23T13:10:33Z</time>
      </trkpt>
      <trkpt lat="43.21143" lon="5.4363">
        <ele>255.37</ele>
        <time>2015-02-23T13:10:58Z</time>
      </trkpt>
      <trkpt lat="43.21143" lon="5.43631">
        <ele>255.85</ele>
        <time>2015-02-23T13:11:28Z</time>
      </trkpt>
      <trkpt lat="43.21143" lon="5.43631">
        <ele>256.33</ele>
        <time>2015-02-23T13:11:54Z</time>
      </trkpt>
      <trkpt lat="43.21143" lon="5.43631">
        <ele>256.81</ele>
        <time>2015-02-23T13:12:20Z</time>
      </trkpt>
      <trkpt lat="43.21143" lon="5.43631">
        <ele>255.85</ele>
        <time>2015-02-23T13:12:45Z</time>
      </trkpt>
      <trkpt lat="43.21143" lon="5.43631">
        <ele>256.81</ele>
        <time>2015-02-23T13:13:10Z</time>
      </trkpt>
      <trkpt lat="43.21142" lon="5.43631">
        <ele>256.33</ele>
        <time>2015-02-23T13:13:36Z</time>
      </trkpt>
      <trkpt lat="43.21142" lon="5.43631">
        <ele>257.29</ele>
        <time>2015-02-23T13:14:07Z</time>
      </trkpt>
      <trkpt lat="43.21142" lon="5.43631">
        <ele>257.29</ele>
        <time>2015-02-23T13:14:30Z</time>
      </trkpt>
      <trkpt lat="43.21142" lon="5.43631">
        <ele>257.77</ele>
        <time>2015-02-23T13:14:58Z</time>
      </trkpt>
      <trkpt lat="43.21142" lon="5.43631">
        <ele>257.29</ele>
        <time>2015-02-23T13:15:30Z</time>
      </trkpt>
      <trkpt lat="43.21142" lon="5.43631">
        <ele>258.25</ele>
        <time>2015-02-23T13:15:59Z</time>
      </trkpt>
      <trkpt lat="43.21142" lon="5.43632">
        <ele>256.81</ele>
        <time>2015-02-23T13:16:23Z</time>
      </trkpt>
      <trkpt lat="43.21142" lon="5.43632">
        <ele>258.25</ele>
        <time>2015-02-23T13:16:51Z</time>
      </trkpt>
      <trkpt lat="43.21142" lon="5.43631">
        <ele>257.77</ele>
        <time>2015-02-23T13:17:17Z</time>
      </trkpt>
      <trkpt lat="43.21142" lon="5.43631">
        <ele>256.81</ele>
        <time>2015-02-23T13:17:37Z</time>
      </trkpt>
      <trkpt lat="43.21142" lon="5.43631">
        <ele>257.29</ele>
        <time>2015-02-23T13:17:57Z</time>
      </trkpt>
      <trkpt lat="43.21142" lon="5.43631">
        <ele>256.81</ele>
        <time>2015-02-23T13:18:18Z</time>
      </trkpt>
      <trkpt lat="43.21142" lon="5.43631">
        <ele>257.29</ele>
        <time>2015-02-23T13:18:39Z</time>
      </trkpt>
      <trkpt lat="43.21142" lon="5.43632">
        <ele>257.29</ele>
        <time>2015-02-23T13:19:03Z</time>
      </trkpt>
      <trkpt lat="43.21142" lon="5.43632">
        <ele>257.29</ele>
        <time>2015-02-23T13:19:26Z</time>
      </trkpt>
      <trkpt lat="43.21142" lon="5.43632">
        <ele>257.29</ele>
        <time>2015-02-23T13:19:49Z</time>
      </trkpt>
      <trkpt lat="43.21142" lon="5.43633">
        <ele>257.29</ele>
        <time>2015-02-23T13:20:15Z</time>
      </trkpt>
      <trkpt lat="43.21142" lon="5.43633">
        <ele>257.77</ele>
        <time>2015-02-23T13:20:38Z</time>
      </trkpt>
      <trkpt lat="43.21142" lon="5.43632">
        <ele>257.29</ele>
        <time>2015-02-23T13:21:03Z</time>
      </trkpt>
      <trkpt lat="43.21141" lon="5.43632">
        <ele>256.81</ele>
        <time>2015-02-23T13:21:28Z</time>
      </trkpt>
      <trkpt lat="43.21142" lon="5.43632">
        <ele>257.77</ele>
        <time>2015-02-23T13:21:58Z</time>
      </trkpt>
      <trkpt lat="43.21142" lon="5.43632">
        <ele>257.29</ele>
        <time>2015-02-23T13:22:25Z</time>
      </trkpt>
      <trkpt lat="43.21141" lon="5.43632">
        <ele>257.77</ele>
        <time>2015-02-23T13:22:48Z</time>
      </trkpt>
      <trkpt lat="43.21141" lon="5.43633">
        <ele>257.77</ele>
        <time>2015-02-23T13:23:18Z</time>
      </trkpt>
      <trkpt lat="43.21141" lon="5.43632">
        <ele>257.77</ele>
        <time>2015-02-23T13:23:49Z</time>
      </trkpt>
      <trkpt lat="43.21141" lon="5.43632">
        <ele>257.77</ele>
        <time>2015-02-23T13:24:17Z</time>
      </trkpt>
      <trkpt lat="43.21142" lon="5.43633">
        <ele>257.77</ele>
        <time>2015-02-23T13:24:46Z</time>
      </trkpt>
      <trkpt lat="43.21142" lon="5.43632">
        <ele>258.73</ele>
        <time>2015-02-23T13:25:13Z</time>
      </trkpt>
      <trkpt lat="43.21142" lon="5.43632">
        <ele>258.73</ele>
        <time>2015-02-23T13:25:39Z</time>
      </trkpt>
      <trkpt lat="43.21142" lon="5.43632">
        <ele>259.21</ele>
        <time>2015-02-23T13:26:06Z</time>
      </trkpt>
      <trkpt lat="43.21143" lon="5.43631">
        <ele>259.69</ele>
        <time>2015-02-23T13:26:39Z</time>
      </trkpt>
      <trkpt lat="43.21143" lon="5.43631">
        <ele>259.21</ele>
        <time>2015-02-23T13:27:14Z</time>
      </trkpt>
      <trkpt lat="43.21143" lon="5.43631">
        <ele>259.21</ele>
        <time>2015-02-23T13:27:42Z</time>
      </trkpt>
      <trkpt lat="43.21143" lon="5.43631">
        <ele>260.17</ele>
        <time>2015-02-23T13:28:13Z</time>
      </trkpt>
      <trkpt lat="43.21143" lon="5.4363">
        <ele>259.69</ele>
        <time>2015-02-23T13:28:46Z</time>
      </trkpt>
      <trkpt lat="43.21143" lon="5.43629">
        <ele>259.69</ele>
        <time>2015-02-23T13:29:09Z</time>
      </trkpt>
      <trkpt lat="43.21143" lon="5.4363">
        <ele>260.17</ele>
        <time>2015-02-23T13:29:37Z</time>
      </trkpt>
      <trkpt lat="43.21143" lon="5.4363">
        <ele>259.69</ele>
        <time>2015-02-23T13:30:06Z</time>
      </trkpt>
      <trkpt lat="43.21143" lon="5.4363">
        <ele>259.69</ele>
        <time>2015-02-23T13:30:27Z</time>
      </trkpt>
      <trkpt lat="43.21143" lon="5.43631">
        <ele>260.65</ele>
        <time>2015-02-23T13:30:52Z</time>
      </trkpt>
      <trkpt lat="43.21144" lon="5.43629">
        <ele>260.65</ele>
        <time>2015-02-23T13:31:09Z</time>
      </trkpt>
      <trkpt lat="43.21144" lon="5.43629">
        <ele>260.65</ele>
        <time>2015-02-23T13:31:32Z</time>
      </trkpt>
      <trkpt lat="43.21144" lon="5.43629">
        <ele>250.56</ele>
        <time>2015-02-23T13:31:34Z</time>
      </trkpt>
      <trkpt lat="43.21144" lon="5.43629">
        <ele>271.23</ele>
        <time>2015-02-23T13:31:35Z</time>
      </trkpt>
      <trkpt lat="43.21144" lon="5.43629">
        <ele>262.1</ele>
        <time>2015-02-23T13:31:36Z</time>
      </trkpt>
      <trkpt lat="43.21144" lon="5.43629">
        <ele>260.65</ele>
        <time>2015-02-23T13:31:38Z</time>
      </trkpt>
      <trkpt lat="43.21144" lon="5.43629">
        <ele>257.29</ele>
        <time>2015-02-23T13:32:01Z</time>
      </trkpt>
      <trkpt lat="43.21144" lon="5.43629">
        <ele>264.98</ele>
        <time>2015-02-23T13:32:02Z</time>
      </trkpt>
      <trkpt lat="43.21144" lon="5.43629">
        <ele>261.62</ele>
        <time>2015-02-23T13:32:03Z</time>
      </trkpt>
      <trkpt lat="43.21144" lon="5.43629">
        <ele>257.77</ele>
        <time>2015-02-23T13:32:14Z</time>
      </trkpt>
      <trkpt lat="43.21144" lon="5.43629">
        <ele>263.54</ele>
        <time>2015-02-23T13:32:15Z</time>
      </trkpt>
      <trkpt lat="43.21144" lon="5.4363">
        <ele>261.62</ele>
        <time>2015-02-23T13:32:16Z</time>
      </trkpt>
      <trkpt lat="43.21145" lon="5.43631">
        <ele>260.17</ele>
        <time>2015-02-23T13:32:19Z</time>
      </trkpt>
      <trkpt lat="43.21145" lon="5.43631">
        <ele>263.54</ele>
        <time>2015-02-23T13:32:28Z</time>
      </trkpt>
      <trkpt lat="43.21145" lon="5.43631">
        <ele>260.17</ele>
        <time>2015-02-23T13:32:36Z</time>
      </trkpt>
      <trkpt lat="43.21145" lon="5.43631">
        <ele>260.65</ele>
        <time>2015-02-23T13:32:55Z</time>
      </trkpt>
      <trkpt lat="43.21145" lon="5.43631">
        <ele>257.77</ele>
        <time>2015-02-23T13:33:04Z</time>
      </trkpt>
      <trkpt lat="43.21145" lon="5.43631">
        <ele>267.38</ele>
        <time>2015-02-23T13:33:05Z</time>
      </trkpt>
      <trkpt lat="43.21145" lon="5.43632">
        <ele>262.1</ele>
        <time>2015-02-23T13:33:06Z</time>
      </trkpt>
      <trkpt lat="43.21143" lon="5.4363">
        <ele>259.69</ele>
        <time>2015-02-23T13:33:24Z</time>
      </trkpt>
      <trkpt lat="43.21143" lon="5.4363">
        <ele>260.65</ele>
        <time>2015-02-23T13:33:50Z</time>
      </trkpt>
      <trkpt lat="43.21144" lon="5.43631">
        <ele>260.65</ele>
        <time>2015-02-23T13:34:13Z</time>
      </trkpt>
      <trkpt lat="43.21144" lon="5.43631">
        <ele>261.14</ele>
        <time>2015-02-23T13:34:16Z</time>
      </trkpt>
      <trkpt lat="43.21149" lon="5.43633">
        <ele>252</ele>
        <time>2015-02-23T13:34:29Z</time>
      </trkpt>
      <trkpt lat="43.21149" lon="5.43633">
        <ele>267.86</ele>
        <time>2015-02-23T13:34:30Z</time>
      </trkpt>
      <trkpt lat="43.21149" lon="5.43633">
        <ele>261.14</ele>
        <time>2015-02-23T13:34:31Z</time>
      </trkpt>
      <trkpt lat="43.21149" lon="5.43633">
        <ele>259.69</ele>
        <time>2015-02-23T13:34:56Z</time>
      </trkpt>
      <trkpt lat="43.21149" lon="5.43633">
        <ele>259.21</ele>
        <time>2015-02-23T13:35:20Z</time>
      </trkpt>
      <trkpt lat="43.21149" lon="5.43633">
        <ele>259.69</ele>
        <time>2015-02-23T13:35:44Z</time>
      </trkpt>
      <trkpt lat="43.21153" lon="5.43634">
        <ele>259.21</ele>
        <time>2015-02-23T13:36:05Z</time>
      </trkpt>
      <trkpt lat="43.21153" lon="5.43634">
        <ele>259.69</ele>
        <time>2015-02-23T13:36:26Z</time>
      </trkpt>
      <trkpt lat="43.21154" lon="5.43634">
        <ele>259.21</ele>
        <time>2015-02-23T13:36:47Z</time>
      </trkpt>
      <trkpt lat="43.21154" lon="5.43634">
        <ele>263.06</ele>
        <time>2015-02-23T13:36:57Z</time>
      </trkpt>
      <trkpt lat="43.21154" lon="5.43634">
        <ele>259.21</ele>
        <time>2015-02-23T13:36:59Z</time>
      </trkpt>
      <trkpt lat="43.21154" lon="5.43634">
        <ele>253.93</ele>
        <time>2015-02-23T13:37:06Z</time>
      </trkpt>
      <trkpt lat="43.21154" lon="5.43634">
        <ele>260.17</ele>
        <time>2015-02-23T13:37:07Z</time>
      </trkpt>
      <trkpt lat="43.21154" lon="5.43634">
        <ele>261.14</ele>
        <time>2015-02-23T13:37:09Z</time>
      </trkpt>
      <trkpt lat="43.21154" lon="5.43634">
        <ele>257.77</ele>
        <time>2015-02-23T13:37:16Z</time>
      </trkpt>
      <trkpt lat="43.21156" lon="5.43635">
        <ele>261.62</ele>
        <time>2015-02-23T13:37:17Z</time>
      </trkpt>
      <trkpt lat="43.21156" lon="5.43635">
        <ele>258.25</ele>
        <time>2015-02-23T13:37:27Z</time>
      </trkpt>
      <trkpt lat="43.21156" lon="5.43635">
        <ele>258.25</ele>
        <time>2015-02-23T13:37:28Z</time>
      </trkpt>
      <trkpt lat="43.21156" lon="5.43635">
        <ele>262.1</ele>
        <time>2015-02-23T13:37:30Z</time>
      </trkpt>
      <trkpt lat="43.21159" lon="5.43635">
        <ele>260.17</ele>
        <time>2015-02-23T13:37:47Z</time>
      </trkpt>
      <trkpt lat="43.21164" lon="5.43631">
        <ele>260.17</ele>
        <time>2015-02-23T13:38:02Z</time>
      </trkpt>
      <trkpt lat="43.21164" lon="5.43623">
        <ele>261.14</ele>
        <time>2015-02-23T13:38:17Z</time>
      </trkpt>
      <trkpt lat="43.21166" lon="5.43619">
        <ele>262.1</ele>
        <time>2015-02-23T13:38:34Z</time>
      </trkpt>
      <trkpt lat="43.21167" lon="5.43616">
        <ele>263.06</ele>
        <time>2015-02-23T13:38:42Z</time>
      </trkpt>
      <trkpt lat="43.21172" lon="5.43607">
        <ele>264.5</ele>
        <time>2015-02-23T13:38:57Z</time>
      </trkpt>
      <trkpt lat="43.21172" lon="5.43606">
        <ele>265.46</ele>
        <time>2015-02-23T13:38:59Z</time>
      </trkpt>
      <trkpt lat="43.21179" lon="5.43595">
        <ele>265.94</ele>
        <time>2015-02-23T13:39:15Z</time>
      </trkpt>
      <trkpt lat="43.21179" lon="5.43594">
        <ele>265.94</ele>
        <time>2015-02-23T13:39:16Z</time>
      </trkpt>
      <trkpt lat="43.21184" lon="5.43585">
        <ele>264.98</ele>
        <time>2015-02-23T13:39:30Z</time>
      </trkpt>
      <trkpt lat="43.2119" lon="5.43572">
        <ele>264.98</ele>
        <time>2015-02-23T13:39:45Z</time>
      </trkpt>
      <trkpt lat="43.21194" lon="5.43557">
        <ele>265.94</ele>
        <time>2015-02-23T13:40:00Z</time>
      </trkpt>
      <trkpt lat="43.21203" lon="5.43551">
        <ele>264.5</ele>
        <time>2015-02-23T13:40:15Z</time>
      </trkpt>
      <trkpt lat="43.21207" lon="5.43548">
        <ele>263.54</ele>
        <time>2015-02-23T13:40:28Z</time>
      </trkpt>
      <trkpt lat="43.21212" lon="5.43546">
        <ele>263.06</ele>
        <time>2015-02-23T13:40:47Z</time>
      </trkpt>
      <trkpt lat="43.21219" lon="5.43539">
        <ele>262.58</ele>
        <time>2015-02-23T13:40:57Z</time>
      </trkpt>
      <trkpt lat="43.21224" lon="5.43535">
        <ele>261.14</ele>
        <time>2015-02-23T13:41:04Z</time>
      </trkpt>
      <trkpt lat="43.21233" lon="5.4352">
        <ele>261.14</ele>
        <time>2015-02-23T13:41:18Z</time>
      </trkpt>
      <trkpt lat="43.21236" lon="5.43511">
        <ele>259.69</ele>
        <time>2015-02-23T13:41:26Z</time>
      </trkpt>
      <trkpt lat="43.2124" lon="5.4351">
        <ele>259.69</ele>
        <time>2015-02-23T13:41:29Z</time>
      </trkpt>
      <trkpt lat="43.21252" lon="5.43499">
        <ele>258.25</ele>
        <time>2015-02-23T13:41:45Z</time>
      </trkpt>
      <trkpt lat="43.21256" lon="5.43494">
        <ele>257.29</ele>
        <time>2015-02-23T13:41:50Z</time>
      </trkpt>
      <trkpt lat="43.21259" lon="5.43491">
        <ele>257.29</ele>
        <time>2015-02-23T13:41:54Z</time>
      </trkpt>
      <trkpt lat="43.2127" lon="5.43478">
        <ele>256.81</ele>
        <time>2015-02-23T13:42:10Z</time>
      </trkpt>
      <trkpt lat="43.21271" lon="5.43473">
        <ele>256.81</ele>
        <time>2015-02-23T13:42:16Z</time>
      </trkpt>
      <trkpt lat="43.21271" lon="5.4346">
        <ele>255.85</ele>
        <time>2015-02-23T13:42:26Z</time>
      </trkpt>
      <trkpt lat="43.21275" lon="5.4345">
        <ele>255.85</ele>
        <time>2015-02-23T13:42:39Z</time>
      </trkpt>
      <trkpt lat="43.21278" lon="5.43442">
        <ele>255.85</ele>
        <time>2015-02-23T13:42:48Z</time>
      </trkpt>
      <trkpt lat="43.21281" lon="5.43424">
        <ele>254.41</ele>
        <time>2015-02-23T13:43:05Z</time>
      </trkpt>
      <trkpt lat="43.21282" lon="5.43417">
        <ele>253.93</ele>
        <time>2015-02-23T13:43:11Z</time>
      </trkpt>
      <trkpt lat="43.21283" lon="5.434">
        <ele>253.93</ele>
        <time>2015-02-23T13:43:26Z</time>
      </trkpt>
      <trkpt lat="43.21287" lon="5.43394">
        <ele>253.44</ele>
        <time>2015-02-23T13:43:39Z</time>
      </trkpt>
      <trkpt lat="43.21291" lon="5.43379">
        <ele>254.89</ele>
        <time>2015-02-23T13:43:53Z</time>
      </trkpt>
      <trkpt lat="43.21287" lon="5.43364">
        <ele>254.41</ele>
        <time>2015-02-23T13:44:04Z</time>
      </trkpt>
      <trkpt lat="43.21285" lon="5.43343">
        <ele>254.89</ele>
        <time>2015-02-23T13:44:20Z</time>
      </trkpt>
      <trkpt lat="43.21279" lon="5.43328">
        <ele>254.89</ele>
        <time>2015-02-23T13:44:34Z</time>
      </trkpt>
      <trkpt lat="43.21276" lon="5.43311">
        <ele>255.37</ele>
        <time>2015-02-23T13:44:49Z</time>
      </trkpt>
      <trkpt lat="43.21274" lon="5.43302">
        <ele>256.33</ele>
        <time>2015-02-23T13:44:58Z</time>
      </trkpt>
      <trkpt lat="43.21266" lon="5.43288">
        <ele>255.85</ele>
        <time>2015-02-23T13:45:15Z</time>
      </trkpt>
      <trkpt lat="43.21263" lon="5.43282">
        <ele>256.33</ele>
        <time>2015-02-23T13:45:21Z</time>
      </trkpt>
      <trkpt lat="43.21262" lon="5.43264">
        <ele>256.81</ele>
        <time>2015-02-23T13:45:36Z</time>
      </trkpt>
      <trkpt lat="43.21261" lon="5.4325">
        <ele>257.29</ele>
        <time>2015-02-23T13:45:47Z</time>
      </trkpt>
      <trkpt lat="43.21261" lon="5.43247">
        <ele>256.81</ele>
        <time>2015-02-23T13:45:49Z</time>
      </trkpt>
      <trkpt lat="43.21262" lon="5.43231">
        <ele>257.77</ele>
        <time>2015-02-23T13:46:03Z</time>
      </trkpt>
      <trkpt lat="43.21264" lon="5.43226">
        <ele>257.29</ele>
        <time>2015-02-23T13:46:20Z</time>
      </trkpt>
      <trkpt lat="43.21266" lon="5.43213">
        <ele>257.77</ele>
        <time>2015-02-23T13:46:33Z</time>
      </trkpt>
      <trkpt lat="43.21272" lon="5.43203">
        <ele>258.73</ele>
        <time>2015-02-23T13:46:48Z</time>
      </trkpt>
      <trkpt lat="43.21274" lon="5.43197">
        <ele>256.81</ele>
        <time>2015-02-23T13:47:09Z</time>
      </trkpt>
      <trkpt lat="43.21279" lon="5.43185">
        <ele>255.85</ele>
        <time>2015-02-23T13:47:21Z</time>
      </trkpt>
      <trkpt lat="43.2128" lon="5.43184">
        <ele>256.33</ele>
        <time>2015-02-23T13:47:40Z</time>
      </trkpt>
      <trkpt lat="43.21282" lon="5.43181">
        <ele>254.89</ele>
        <time>2015-02-23T13:47:59Z</time>
      </trkpt>
      <trkpt lat="43.21282" lon="5.43181">
        <ele>256.81</ele>
        <time>2015-02-23T13:48:04Z</time>
      </trkpt>
      <trkpt lat="43.21283" lon="5.43179">
        <ele>257.77</ele>
        <time>2015-02-23T13:48:16Z</time>
      </trkpt>
      <trkpt lat="43.21294" lon="5.43149">
        <ele>257.29</ele>
        <time>2015-02-23T13:48:34Z</time>
      </trkpt>
      <trkpt lat="43.21303" lon="5.43132">
        <ele>255.85</ele>
        <time>2015-02-23T13:48:50Z</time>
      </trkpt>
      <trkpt lat="43.21306" lon="5.43122">
        <ele>256.33</ele>
        <time>2015-02-23T13:48:59Z</time>
      </trkpt>
      <trkpt lat="43.21306" lon="5.4312">
        <ele>257.29</ele>
        <time>2015-02-23T13:49:03Z</time>
      </trkpt>
      <trkpt lat="43.21314" lon="5.43103">
        <ele>256.81</ele>
        <time>2015-02-23T13:49:18Z</time>
      </trkpt>
      <trkpt lat="43.21318" lon="5.43091">
        <ele>256.81</ele>
        <time>2015-02-23T13:49:28Z</time>
      </trkpt>
      <trkpt lat="43.21323" lon="5.43077">
        <ele>255.37</ele>
        <time>2015-02-23T13:49:41Z</time>
      </trkpt>
      <trkpt lat="43.21323" lon="5.43076">
        <ele>253.93</ele>
        <time>2015-02-23T13:50:01Z</time>
      </trkpt>
      <trkpt lat="43.21325" lon="5.43066">
        <ele>253.44</ele>
        <time>2015-02-23T13:50:14Z</time>
      </trkpt>
      <trkpt lat="43.21325" lon="5.43066">
        <ele>252.48</ele>
        <time>2015-02-23T13:50:29Z</time>
      </trkpt>
      <trkpt lat="43.21328" lon="5.4306">
        <ele>251.52</ele>
        <time>2015-02-23T13:50:34Z</time>
      </trkpt>
      <trkpt lat="43.2133" lon="5.43054">
        <ele>250.56</ele>
        <time>2015-02-23T13:50:52Z</time>
      </trkpt>
      <trkpt lat="43.2133" lon="5.43054">
        <ele>251.04</ele>
        <time>2015-02-23T13:51:11Z</time>
      </trkpt>
      <trkpt lat="43.2133" lon="5.43054">
        <ele>250.08</ele>
        <time>2015-02-23T13:51:31Z</time>
      </trkpt>
      <trkpt lat="43.2133" lon="5.43054">
        <ele>250.08</ele>
        <time>2015-02-23T13:51:58Z</time>
      </trkpt>
      <trkpt lat="43.21331" lon="5.43054">
        <ele>248.16</ele>
        <time>2015-02-23T13:52:00Z</time>
      </trkpt>
      <trkpt lat="43.21331" lon="5.43054">
        <ele>248.64</ele>
        <time>2015-02-23T13:52:01Z</time>
      </trkpt>
      <trkpt lat="43.21331" lon="5.43054">
        <ele>249.6</ele>
        <time>2015-02-23T13:52:20Z</time>
      </trkpt>
      <trkpt lat="43.21341" lon="5.43032">
        <ele>249.12</ele>
        <time>2015-02-23T13:52:40Z</time>
      </trkpt>
      <trkpt lat="43.21344" lon="5.43031">
        <ele>251.04</ele>
        <time>2015-02-23T13:53:00Z</time>
      </trkpt>
      <trkpt lat="43.21344" lon="5.43031">
        <ele>251.52</ele>
        <time>2015-02-23T13:53:18Z</time>
      </trkpt>
      <trkpt lat="43.21344" lon="5.43031">
        <ele>254.41</ele>
        <time>2015-02-23T13:53:38Z</time>
      </trkpt>
      <trkpt lat="43.21347" lon="5.43028">
        <ele>254.41</ele>
        <time>2015-02-23T13:53:48Z</time>
      </trkpt>
      <trkpt lat="43.21348" lon="5.43027">
        <ele>254.41</ele>
        <time>2015-02-23T13:54:15Z</time>
      </trkpt>
      <trkpt lat="43.21348" lon="5.43027">
        <ele>254.41</ele>
        <time>2015-02-23T13:54:28Z</time>
      </trkpt>
      <trkpt lat="43.21349" lon="5.43027">
        <ele>251.52</ele>
        <time>2015-02-23T13:54:52Z</time>
      </trkpt>
      <trkpt lat="43.21349" lon="5.43027">
        <ele>254.89</ele>
        <time>2015-02-23T13:54:53Z</time>
      </trkpt>
      <trkpt lat="43.21349" lon="5.43027">
        <ele>252</ele>
        <time>2015-02-23T13:54:55Z</time>
      </trkpt>
      <trkpt lat="43.21349" lon="5.43027">
        <ele>254.89</ele>
        <time>2015-02-23T13:54:56Z</time>
      </trkpt>
      <trkpt lat="43.21351" lon="5.43026">
        <ele>253.93</ele>
        <time>2015-02-23T13:55:21Z</time>
      </trkpt>
      <trkpt lat="43.21351" lon="5.43026">
        <ele>253.93</ele>
        <time>2015-02-23T13:55:48Z</time>
      </trkpt>
      <trkpt lat="43.21357" lon="5.43028">
        <ele>254.41</ele>
        <time>2015-02-23T13:56:04Z</time>
      </trkpt>
      <trkpt lat="43.21363" lon="5.4303">
        <ele>253.93</ele>
        <time>2015-02-23T13:56:27Z</time>
      </trkpt>
      <trkpt lat="43.21365" lon="5.43028">
        <ele>253.44</ele>
        <time>2015-02-23T13:56:47Z</time>
      </trkpt>
      <trkpt lat="43.21366" lon="5.43025">
        <ele>251.52</ele>
        <time>2015-02-23T13:57:05Z</time>
      </trkpt>
      <trkpt lat="43.21366" lon="5.43025">
        <ele>248.16</ele>
        <time>2015-02-23T13:57:23Z</time>
      </trkpt>
      <trkpt lat="43.21367" lon="5.43023">
        <ele>247.68</ele>
        <time>2015-02-23T13:57:33Z</time>
      </trkpt>
      <trkpt lat="43.21374" lon="5.43004">
        <ele>244.31</ele>
        <time>2015-02-23T13:57:51Z</time>
      </trkpt>
      <trkpt lat="43.21374" lon="5.43004">
        <ele>242.87</ele>
        <time>2015-02-23T13:58:08Z</time>
      </trkpt>
      <trkpt lat="43.21377" lon="5.42996">
        <ele>243.35</ele>
        <time>2015-02-23T13:58:13Z</time>
      </trkpt>
      <trkpt lat="43.2138" lon="5.42987">
        <ele>241.43</ele>
        <time>2015-02-23T13:58:30Z</time>
      </trkpt>
      <trkpt lat="43.2138" lon="5.42987">
        <ele>244.31</ele>
        <time>2015-02-23T13:58:47Z</time>
      </trkpt>
      <trkpt lat="43.21382" lon="5.42978">
        <ele>242.39</ele>
        <time>2015-02-23T13:59:02Z</time>
      </trkpt>
      <trkpt lat="43.2139" lon="5.42935">
        <ele>242.87</ele>
        <time>2015-02-23T13:59:15Z</time>
      </trkpt>
      <trkpt lat="43.21395" lon="5.42924">
        <ele>242.39</ele>
        <time>2015-02-23T13:59:21Z</time>
      </trkpt>
      <trkpt lat="43.21396" lon="5.4292">
        <ele>242.39</ele>
        <time>2015-02-23T13:59:23Z</time>
      </trkpt>
      <trkpt lat="43.21397" lon="5.42912">
        <ele>242.39</ele>
        <time>2015-02-23T13:59:32Z</time>
      </trkpt>
      <trkpt lat="43.21399" lon="5.42897">
        <ele>242.87</ele>
        <time>2015-02-23T13:59:48Z</time>
      </trkpt>
      <trkpt lat="43.21402" lon="5.42881">
        <ele>241.91</ele>
        <time>2015-02-23T14:00:05Z</time>
      </trkpt>
      <trkpt lat="43.21409" lon="5.4287">
        <ele>241.43</ele>
        <time>2015-02-23T14:00:21Z</time>
      </trkpt>
      <trkpt lat="43.21409" lon="5.4287">
        <ele>241.91</ele>
        <time>2015-02-23T14:00:22Z</time>
      </trkpt>
      <trkpt lat="43.2141" lon="5.42866">
        <ele>242.39</ele>
        <time>2015-02-23T14:00:25Z</time>
      </trkpt>
      <trkpt lat="43.2141" lon="5.42865">
        <ele>242.39</ele>
        <time>2015-02-23T14:00:27Z</time>
      </trkpt>
      <trkpt lat="43.21412" lon="5.42857">
        <ele>241.91</ele>
        <time>2015-02-23T14:00:46Z</time>
      </trkpt>
      <trkpt lat="43.21413" lon="5.42851">
        <ele>241.43</ele>
        <time>2015-02-23T14:01:07Z</time>
      </trkpt>
      <trkpt lat="43.21412" lon="5.42838">
        <ele>242.39</ele>
        <time>2015-02-23T14:01:23Z</time>
      </trkpt>
      <trkpt lat="43.21416" lon="5.42822">
        <ele>243.35</ele>
        <time>2015-02-23T14:01:39Z</time>
      </trkpt>
      <trkpt lat="43.21416" lon="5.42822">
        <ele>245.75</ele>
        <time>2015-02-23T14:01:54Z</time>
      </trkpt>
      <trkpt lat="43.21418" lon="5.42817">
        <ele>245.27</ele>
        <time>2015-02-23T14:02:00Z</time>
      </trkpt>
      <trkpt lat="43.21421" lon="5.42812">
        <ele>245.75</ele>
        <time>2015-02-23T14:02:04Z</time>
      </trkpt>
      <trkpt lat="43.21423" lon="5.42799">
        <ele>247.68</ele>
        <time>2015-02-23T14:02:20Z</time>
      </trkpt>
      <trkpt lat="43.21426" lon="5.42796">
        <ele>248.64</ele>
        <time>2015-02-23T14:02:27Z</time>
      </trkpt>
      <trkpt lat="43.21434" lon="5.42789">
        <ele>249.6</ele>
        <time>2015-02-23T14:02:46Z</time>
      </trkpt>
      <trkpt lat="43.21441" lon="5.42781">
        <ele>251.52</ele>
        <time>2015-02-23T14:03:03Z</time>
      </trkpt>
      <trkpt lat="43.21444" lon="5.42777">
        <ele>253.44</ele>
        <time>2015-02-23T14:03:12Z</time>
      </trkpt>
      <trkpt lat="43.21446" lon="5.42771">
        <ele>255.85</ele>
        <time>2015-02-23T14:03:29Z</time>
      </trkpt>
      <trkpt lat="43.21446" lon="5.42771">
        <ele>256.81</ele>
        <time>2015-02-23T14:03:42Z</time>
      </trkpt>
      <trkpt lat="43.21446" lon="5.42771">
        <ele>257.77</ele>
        <time>2015-02-23T14:04:00Z</time>
      </trkpt>
      <trkpt lat="43.21448" lon="5.42768">
        <ele>257.77</ele>
        <time>2015-02-23T14:04:04Z</time>
      </trkpt>
      <trkpt lat="43.21451" lon="5.42765">
        <ele>257.77</ele>
        <time>2015-02-23T14:04:07Z</time>
      </trkpt>
      <trkpt lat="43.21471" lon="5.42752">
        <ele>259.21</ele>
        <time>2015-02-23T14:04:25Z</time>
      </trkpt>
      <trkpt lat="43.21478" lon="5.4275">
        <ele>260.17</ele>
        <time>2015-02-23T14:04:41Z</time>
      </trkpt>
      <trkpt lat="43.21478" lon="5.4275">
        <ele>261.14</ele>
        <time>2015-02-23T14:04:46Z</time>
      </trkpt>
      <trkpt lat="43.21479" lon="5.42749">
        <ele>260.65</ele>
        <time>2015-02-23T14:04:48Z</time>
      </trkpt>
      <trkpt lat="43.21485" lon="5.42748">
        <ele>259.21</ele>
        <time>2015-02-23T14:04:53Z</time>
      </trkpt>
      <trkpt lat="43.21507" lon="5.42738">
        <ele>257.77</ele>
        <time>2015-02-23T14:05:10Z</time>
      </trkpt>
      <trkpt lat="43.21513" lon="5.42727">
        <ele>259.21</ele>
        <time>2015-02-23T14:05:27Z</time>
      </trkpt>
      <trkpt lat="43.21521" lon="5.42714">
        <ele>259.21</ele>
        <time>2015-02-23T14:05:44Z</time>
      </trkpt>
      <trkpt lat="43.21521" lon="5.42714">
        <ele>260.17</ele>
        <time>2015-02-23T14:05:49Z</time>
      </trkpt>
      <trkpt lat="43.21522" lon="5.42708">
        <ele>260.65</ele>
        <time>2015-02-23T14:05:56Z</time>
      </trkpt>
      <trkpt lat="43.21536" lon="5.42696">
        <ele>262.1</ele>
        <time>2015-02-23T14:06:15Z</time>
      </trkpt>
      <trkpt lat="43.21543" lon="5.42691">
        <ele>264.5</ele>
        <time>2015-02-23T14:06:32Z</time>
      </trkpt>
      <trkpt lat="43.21549" lon="5.42687">
        <ele>265.94</ele>
        <time>2015-02-23T14:06:48Z</time>
      </trkpt>
      <trkpt lat="43.21553" lon="5.42684">
        <ele>268.35</ele>
        <time>2015-02-23T14:06:58Z</time>
      </trkpt>
      <trkpt lat="43.2156" lon="5.42668">
        <ele>269.31</ele>
        <time>2015-02-23T14:07:16Z</time>
      </trkpt>
      <trkpt lat="43.21568" lon="5.42661">
        <ele>269.79</ele>
        <time>2015-02-23T14:07:31Z</time>
      </trkpt>
      <trkpt lat="43.21569" lon="5.42662">
        <ele>270.75</ele>
        <time>2015-02-23T14:07:36Z</time>
      </trkpt>
      <trkpt lat="43.21574" lon="5.42666">
        <ele>271.23</ele>
        <time>2015-02-23T14:07:42Z</time>
      </trkpt>
      <trkpt lat="43.21576" lon="5.42667">
        <ele>272.19</ele>
        <time>2015-02-23T14:07:46Z</time>
      </trkpt>
      <trkpt lat="43.21579" lon="5.42668">
        <ele>274.11</ele>
        <time>2015-02-23T14:07:58Z</time>
      </trkpt>
      <trkpt lat="43.21582" lon="5.42665">
        <ele>274.11</ele>
        <time>2015-02-23T14:08:14Z</time>
      </trkpt>
      <trkpt lat="43.21584" lon="5.42665">
        <ele>273.63</ele>
        <time>2015-02-23T14:08:38Z</time>
      </trkpt>
      <trkpt lat="43.21584" lon="5.42664">
        <ele>273.15</ele>
        <time>2015-02-23T14:08:44Z</time>
      </trkpt>
      <trkpt lat="43.21589" lon="5.42658">
        <ele>273.63</ele>
        <time>2015-02-23T14:08:48Z</time>
      </trkpt>
      <trkpt lat="43.21594" lon="5.42652">
        <ele>273.15</ele>
        <time>2015-02-23T14:08:51Z</time>
      </trkpt>
      <trkpt lat="43.21595" lon="5.4265">
        <ele>273.63</ele>
        <time>2015-02-23T14:08:53Z</time>
      </trkpt>
      <trkpt lat="43.21597" lon="5.42644">
        <ele>274.11</ele>
        <time>2015-02-23T14:09:14Z</time>
      </trkpt>
      <trkpt lat="43.21597" lon="5.42644">
        <ele>274.11</ele>
        <time>2015-02-23T14:09:39Z</time>
      </trkpt>
      <trkpt lat="43.21597" lon="5.42644">
        <ele>274.11</ele>
        <time>2015-02-23T14:10:07Z</time>
      </trkpt>
      <trkpt lat="43.21592" lon="5.42643">
        <ele>273.15</ele>
        <time>2015-02-23T14:10:32Z</time>
      </trkpt>
      <trkpt lat="43.216" lon="5.42645">
        <ele>272.19</ele>
        <time>2015-02-23T14:10:49Z</time>
      </trkpt>
      <trkpt lat="43.21606" lon="5.42642">
        <ele>271.23</ele>
        <time>2015-02-23T14:11:15Z</time>
      </trkpt>
      <trkpt lat="43.2161" lon="5.42639">
        <ele>271.71</ele>
        <time>2015-02-23T14:11:17Z</time>
      </trkpt>
      <trkpt lat="43.21618" lon="5.42621">
        <ele>268.35</ele>
        <time>2015-02-23T14:11:38Z</time>
      </trkpt>
      <trkpt lat="43.21626" lon="5.42619">
        <ele>264.98</ele>
        <time>2015-02-23T14:11:56Z</time>
      </trkpt>
      <trkpt lat="43.21627" lon="5.42618">
        <ele>264.5</ele>
        <time>2015-02-23T14:11:57Z</time>
      </trkpt>
      <trkpt lat="43.21637" lon="5.42606">
        <ele>261.14</ele>
        <time>2015-02-23T14:12:17Z</time>
      </trkpt>
      <trkpt lat="43.2164" lon="5.42598">
        <ele>258.73</ele>
        <time>2015-02-23T14:12:38Z</time>
      </trkpt>
      <trkpt lat="43.21649" lon="5.42589">
        <ele>255.37</ele>
        <time>2015-02-23T14:12:57Z</time>
      </trkpt>
      <trkpt lat="43.21655" lon="5.42582">
        <ele>254.41</ele>
        <time>2015-02-23T14:13:09Z</time>
      </trkpt>
      <trkpt lat="43.21664" lon="5.42567">
        <ele>252</ele>
        <time>2015-02-23T14:13:29Z</time>
      </trkpt>
      <trkpt lat="43.21665" lon="5.42566">
        <ele>252</ele>
        <time>2015-02-23T14:13:30Z</time>
      </trkpt>
      <trkpt lat="43.21679" lon="5.42566">
        <ele>250.56</ele>
        <time>2015-02-23T14:13:46Z</time>
      </trkpt>
      <trkpt lat="43.21694" lon="5.42551">
        <ele>248.64</ele>
        <time>2015-02-23T14:14:06Z</time>
      </trkpt>
      <trkpt lat="43.217" lon="5.42547">
        <ele>248.64</ele>
        <time>2015-02-23T14:14:24Z</time>
      </trkpt>
      <trkpt lat="43.21714" lon="5.42535">
        <ele>247.68</ele>
        <time>2015-02-23T14:14:45Z</time>
      </trkpt>
      <trkpt lat="43.21718" lon="5.42533">
        <ele>247.2</ele>
        <time>2015-02-23T14:14:51Z</time>
      </trkpt>
      <trkpt lat="43.21725" lon="5.42526">
        <ele>245.75</ele>
        <time>2015-02-23T14:15:12Z</time>
      </trkpt>
      <trkpt lat="43.21725" lon="5.42526">
        <ele>245.27</ele>
        <time>2015-02-23T14:15:40Z</time>
      </trkpt>
      <trkpt lat="43.21725" lon="5.42526">
        <ele>245.27</ele>
        <time>2015-02-23T14:15:45Z</time>
      </trkpt>
      <trkpt lat="43.21728" lon="5.42521">
        <ele>244.31</ele>
        <time>2015-02-23T14:15:51Z</time>
      </trkpt>
      <trkpt lat="43.21742" lon="5.42514">
        <ele>242.39</ele>
        <time>2015-02-23T14:16:11Z</time>
      </trkpt>
      <trkpt lat="43.21757" lon="5.42499">
        <ele>240.95</ele>
        <time>2015-02-23T14:16:35Z</time>
      </trkpt>
      <trkpt lat="43.21769" lon="5.42494">
        <ele>239.99</ele>
        <time>2015-02-23T14:16:51Z</time>
      </trkpt>
      <trkpt lat="43.21774" lon="5.42494">
        <ele>239.99</ele>
        <time>2015-02-23T14:16:54Z</time>
      </trkpt>
      <trkpt lat="43.21781" lon="5.42492">
        <ele>239.99</ele>
        <time>2015-02-23T14:17:02Z</time>
      </trkpt>
      <trkpt lat="43.21788" lon="5.42492">
        <ele>239.99</ele>
        <time>2015-02-23T14:17:07Z</time>
      </trkpt>
      <trkpt lat="43.21804" lon="5.42487">
        <ele>240.95</ele>
        <time>2015-02-23T14:17:24Z</time>
      </trkpt>
      <trkpt lat="43.21831" lon="5.42482">
        <ele>240.47</ele>
        <time>2015-02-23T14:17:50Z</time>
      </trkpt>
      <trkpt lat="43.21832" lon="5.42482">
        <ele>240.47</ele>
        <time>2015-02-23T14:17:51Z</time>
      </trkpt>
      <trkpt lat="43.21848" lon="5.4246">
        <ele>239.51</ele>
        <time>2015-02-23T14:18:14Z</time>
      </trkpt>
      <trkpt lat="43.21851" lon="5.42431">
        <ele>237.1</ele>
        <time>2015-02-23T14:18:40Z</time>
      </trkpt>
      <trkpt lat="43.21858" lon="5.42422">
        <ele>235.18</ele>
        <time>2015-02-23T14:18:51Z</time>
      </trkpt>
      <trkpt lat="43.21864" lon="5.42405">
        <ele>232.78</ele>
        <time>2015-02-23T14:19:11Z</time>
      </trkpt>
      <trkpt lat="43.21866" lon="5.42398">
        <ele>232.3</ele>
        <time>2015-02-23T14:19:22Z</time>
      </trkpt>
      <trkpt lat="43.21869" lon="5.42391">
        <ele>230.37</ele>
        <time>2015-02-23T14:19:38Z</time>
      </trkpt>
      <trkpt lat="43.21868" lon="5.42391">
        <ele>230.85</ele>
        <time>2015-02-23T14:19:58Z</time>
      </trkpt>
      <trkpt lat="43.21872" lon="5.42389">
        <ele>230.37</ele>
        <time>2015-02-23T14:20:23Z</time>
      </trkpt>
      <trkpt lat="43.21873" lon="5.42384">
        <ele>226.05</ele>
        <time>2015-02-23T14:20:29Z</time>
      </trkpt>
      <trkpt lat="43.21873" lon="5.42383">
        <ele>228.93</ele>
        <time>2015-02-23T14:20:30Z</time>
      </trkpt>
      <trkpt lat="43.21877" lon="5.42373">
        <ele>227.49</ele>
        <time>2015-02-23T14:20:44Z</time>
      </trkpt>
      <trkpt lat="43.21882" lon="5.42359">
        <ele>225.57</ele>
        <time>2015-02-23T14:21:00Z</time>
      </trkpt>
      <trkpt lat="43.21882" lon="5.42357">
        <ele>225.57</ele>
        <time>2015-02-23T14:21:15Z</time>
      </trkpt>
      <trkpt lat="43.21886" lon="5.4235">
        <ele>223.64</ele>
        <time>2015-02-23T14:21:33Z</time>
      </trkpt>
      <trkpt lat="43.21888" lon="5.42347">
        <ele>222.68</ele>
        <time>2015-02-23T14:21:36Z</time>
      </trkpt>
      <trkpt lat="43.21894" lon="5.42339">
        <ele>220.76</ele>
        <time>2015-02-23T14:21:48Z</time>
      </trkpt>
      <trkpt lat="43.21908" lon="5.42322">
        <ele>219.32</ele>
        <time>2015-02-23T14:22:05Z</time>
      </trkpt>
      <trkpt lat="43.2191" lon="5.4232">
        <ele>219.32</ele>
        <time>2015-02-23T14:22:07Z</time>
      </trkpt>
      <trkpt lat="43.21924" lon="5.42308">
        <ele>220.76</ele>
        <time>2015-02-23T14:22:24Z</time>
      </trkpt>
      <trkpt lat="43.21925" lon="5.42305">
        <ele>221.72</ele>
        <time>2015-02-23T14:22:26Z</time>
      </trkpt>
      <trkpt lat="43.21927" lon="5.42301">
        <ele>221.72</ele>
        <time>2015-02-23T14:22:30Z</time>
      </trkpt>
      <trkpt lat="43.2193" lon="5.42296">
        <ele>221.72</ele>
        <time>2015-02-23T14:22:45Z</time>
      </trkpt>
      <trkpt lat="43.2193" lon="5.42296">
        <ele>222.2</ele>
        <time>2015-02-23T14:23:09Z</time>
      </trkpt>
      <trkpt lat="43.21933" lon="5.42293">
        <ele>222.2</ele>
        <time>2015-02-23T14:23:25Z</time>
      </trkpt>
      <trkpt lat="43.2194" lon="5.42278">
        <ele>223.16</ele>
        <time>2015-02-23T14:23:41Z</time>
      </trkpt>
      <trkpt lat="43.21942" lon="5.42271">
        <ele>224.61</ele>
        <time>2015-02-23T14:23:56Z</time>
      </trkpt>
      <trkpt lat="43.21945" lon="5.42263">
        <ele>225.09</ele>
        <time>2015-02-23T14:24:16Z</time>
      </trkpt>
      <trkpt lat="43.21949" lon="5.42259">
        <ele>225.57</ele>
        <time>2015-02-23T14:24:32Z</time>
      </trkpt>
      <trkpt lat="43.21955" lon="5.42255">
        <ele>225.57</ele>
        <time>2015-02-23T14:24:38Z</time>
      </trkpt>
      <trkpt lat="43.2197" lon="5.42251">
        <ele>227.01</ele>
        <time>2015-02-23T14:24:55Z</time>
      </trkpt>
      <trkpt lat="43.21982" lon="5.42244">
        <ele>227.97</ele>
        <time>2015-02-23T14:25:11Z</time>
      </trkpt>
      <trkpt lat="43.21994" lon="5.42236">
        <ele>227.97</ele>
        <time>2015-02-23T14:25:25Z</time>
      </trkpt>
      <trkpt lat="43.22007" lon="5.42227">
        <ele>227.97</ele>
        <time>2015-02-23T14:25:41Z</time>
      </trkpt>
      <trkpt lat="43.2202" lon="5.42218">
        <ele>228.45</ele>
        <time>2015-02-23T14:25:57Z</time>
      </trkpt>
      <trkpt lat="43.22039" lon="5.42215">
        <ele>227.97</ele>
        <time>2015-02-23T14:26:16Z</time>
      </trkpt>
      <trkpt lat="43.22278" lon="5.42317">
        <ele>225.57</ele>
        <time>2015-02-23T14:37:34Z</time>
      </trkpt>
      <trkpt lat="43.22277" lon="5.42317">
        <ele>222.2</ele>
        <time>2015-02-23T14:37:43Z</time>
      </trkpt>
      <trkpt lat="43.22276" lon="5.42319">
        <ele>219.32</ele>
        <time>2015-02-23T14:37:49Z</time>
      </trkpt>
      <trkpt lat="43.22276" lon="5.42319">
        <ele>217.4</ele>
        <time>2015-02-23T14:37:53Z</time>
      </trkpt>
      <trkpt lat="43.22276" lon="5.42318">
        <ele>213.55</ele>
        <time>2015-02-23T14:37:59Z</time>
      </trkpt>
      <trkpt lat="43.22276" lon="5.42318">
        <ele>214.99</ele>
        <time>2015-02-23T14:38:00Z</time>
      </trkpt>
      <trkpt lat="43.22275" lon="5.42317">
        <ele>211.63</ele>
        <time>2015-02-23T14:38:08Z</time>
      </trkpt>
      <trkpt lat="43.22273" lon="5.42315">
        <ele>206.34</ele>
        <time>2015-02-23T14:38:21Z</time>
      </trkpt>
      <trkpt lat="43.22274" lon="5.42315">
        <ele>210.67</ele>
        <time>2015-02-23T14:38:22Z</time>
      </trkpt>
      <trkpt lat="43.22274" lon="5.42317">
        <ele>207.3</ele>
        <time>2015-02-23T14:38:38Z</time>
      </trkpt>
      <trkpt lat="43.22273" lon="5.42318">
        <ele>204.42</ele>
        <time>2015-02-23T14:39:02Z</time>
      </trkpt>
      <trkpt lat="43.22274" lon="5.42317">
        <ele>202.49</ele>
        <time>2015-02-23T14:39:38Z</time>
      </trkpt>
      <trkpt lat="43.22274" lon="5.42316">
        <ele>202.98</ele>
        <time>2015-02-23T14:40:04Z</time>
      </trkpt>
      <trkpt lat="43.22274" lon="5.42316">
        <ele>202.49</ele>
        <time>2015-02-23T14:40:25Z</time>
      </trkpt>
      <trkpt lat="43.22274" lon="5.42316">
        <ele>208.74</ele>
        <time>2015-02-23T14:40:53Z</time>
      </trkpt>
      <trkpt lat="43.22274" lon="5.42316">
        <ele>202.49</ele>
        <time>2015-02-23T14:40:54Z</time>
      </trkpt>
      <trkpt lat="43.22276" lon="5.42316">
        <ele>203.46</ele>
        <time>2015-02-23T14:41:15Z</time>
      </trkpt>
      <trkpt lat="43.22278" lon="5.42319">
        <ele>203.94</ele>
        <time>2015-02-23T14:41:30Z</time>
      </trkpt>
      <trkpt lat="43.22276" lon="5.42321">
        <ele>202.98</ele>
        <time>2015-02-23T14:41:46Z</time>
      </trkpt>
      <trkpt lat="43.22278" lon="5.42327">
        <ele>202.01</ele>
        <time>2015-02-23T14:42:02Z</time>
      </trkpt>
      <trkpt lat="43.22279" lon="5.42332">
        <ele>202.01</ele>
        <time>2015-02-23T14:42:08Z</time>
      </trkpt>
      <trkpt lat="43.22282" lon="5.42342">
        <ele>203.46</ele>
        <time>2015-02-23T14:42:21Z</time>
      </trkpt>
      <trkpt lat="43.22286" lon="5.42353">
        <ele>204.42</ele>
        <time>2015-02-23T14:42:37Z</time>
      </trkpt>
      <trkpt lat="43.22286" lon="5.42354">
        <ele>204.42</ele>
        <time>2015-02-23T14:42:38Z</time>
      </trkpt>
      <trkpt lat="43.22286" lon="5.42362">
        <ele>203.46</ele>
        <time>2015-02-23T14:42:52Z</time>
      </trkpt>
      <trkpt lat="43.22287" lon="5.42371">
        <ele>203.46</ele>
        <time>2015-02-23T14:43:08Z</time>
      </trkpt>
      <trkpt lat="43.22291" lon="5.42381">
        <ele>202.49</ele>
        <time>2015-02-23T14:43:24Z</time>
      </trkpt>
      <trkpt lat="43.22292" lon="5.42386">
        <ele>202.49</ele>
        <time>2015-02-23T14:43:39Z</time>
      </trkpt>
      <trkpt lat="43.22296" lon="5.42394">
        <ele>202.49</ele>
        <time>2015-02-23T14:44:00Z</time>
      </trkpt>
      <trkpt lat="43.22302" lon="5.42409">
        <ele>201.53</ele>
        <time>2015-02-23T14:44:16Z</time>
      </trkpt>
      <trkpt lat="43.22311" lon="5.42419">
        <ele>201.05</ele>
        <time>2015-02-23T14:44:30Z</time>
      </trkpt>
      <trkpt lat="43.22316" lon="5.4243">
        <ele>199.13</ele>
        <time>2015-02-23T14:44:45Z</time>
      </trkpt>
      <trkpt lat="43.22329" lon="5.42441">
        <ele>197.21</ele>
        <time>2015-02-23T14:45:00Z</time>
      </trkpt>
      <trkpt lat="43.22332" lon="5.42448">
        <ele>194.32</ele>
        <time>2015-02-23T14:45:14Z</time>
      </trkpt>
      <trkpt lat="43.22329" lon="5.4245">
        <ele>193.36</ele>
        <time>2015-02-23T14:45:19Z</time>
      </trkpt>
      <trkpt lat="43.22332" lon="5.42459">
        <ele>192.4</ele>
        <time>2015-02-23T14:45:26Z</time>
      </trkpt>
      <trkpt lat="43.22342" lon="5.42469">
        <ele>190.96</ele>
        <time>2015-02-23T14:45:40Z</time>
      </trkpt>
      <trkpt lat="43.22341" lon="5.42483">
        <ele>190</ele>
        <time>2015-02-23T14:45:54Z</time>
      </trkpt>
      <trkpt lat="43.22345" lon="5.42496">
        <ele>191.44</ele>
        <time>2015-02-23T14:46:09Z</time>
      </trkpt>
      <trkpt lat="43.22344" lon="5.42502">
        <ele>192.88</ele>
        <time>2015-02-23T14:46:16Z</time>
      </trkpt>
      <trkpt lat="43.22342" lon="5.42515">
        <ele>195.28</ele>
        <time>2015-02-23T14:46:32Z</time>
      </trkpt>
      <trkpt lat="43.22342" lon="5.42528">
        <ele>195.77</ele>
        <time>2015-02-23T14:46:46Z</time>
      </trkpt>
      <trkpt lat="43.22337" lon="5.42531">
        <ele>197.69</ele>
        <time>2015-02-23T14:47:03Z</time>
      </trkpt>
      <trkpt lat="43.22331" lon="5.42536">
        <ele>195.77</ele>
        <time>2015-02-23T14:47:17Z</time>
      </trkpt>
      <trkpt lat="43.22324" lon="5.42554">
        <ele>194.8</ele>
        <time>2015-02-23T14:47:34Z</time>
      </trkpt>
      <trkpt lat="43.22323" lon="5.42563">
        <ele>194.32</ele>
        <time>2015-02-23T14:47:41Z</time>
      </trkpt>
      <trkpt lat="43.22321" lon="5.42573">
        <ele>193.84</ele>
        <time>2015-02-23T14:47:53Z</time>
      </trkpt>
      <trkpt lat="43.22319" lon="5.42585">
        <ele>194.32</ele>
        <time>2015-02-23T14:48:06Z</time>
      </trkpt>
      <trkpt lat="43.22312" lon="5.42594">
        <ele>195.77</ele>
        <time>2015-02-23T14:48:20Z</time>
      </trkpt>
      <trkpt lat="43.22307" lon="5.42596">
        <ele>197.21</ele>
        <time>2015-02-23T14:48:35Z</time>
      </trkpt>
      <trkpt lat="43.22306" lon="5.42599">
        <ele>199.13</ele>
        <time>2015-02-23T14:48:48Z</time>
      </trkpt>
      <trkpt lat="43.22303" lon="5.426">
        <ele>200.57</ele>
        <time>2015-02-23T14:49:03Z</time>
      </trkpt>
      <trkpt lat="43.22297" lon="5.42601">
        <ele>202.01</ele>
        <time>2015-02-23T14:49:18Z</time>
      </trkpt>
      <trkpt lat="43.22294" lon="5.42602">
        <ele>203.46</ele>
        <time>2015-02-23T14:49:40Z</time>
      </trkpt>
      <trkpt lat="43.22286" lon="5.4261">
        <ele>204.9</ele>
        <time>2015-02-23T14:49:55Z</time>
      </trkpt>
      <trkpt lat="43.22283" lon="5.42619">
        <ele>205.38</ele>
        <time>2015-02-23T14:50:09Z</time>
      </trkpt>
      <trkpt lat="43.22279" lon="5.42626">
        <ele>202.98</ele>
        <time>2015-02-23T14:50:23Z</time>
      </trkpt>
      <trkpt lat="43.22278" lon="5.42629">
        <ele>202.01</ele>
        <time>2015-02-23T14:50:41Z</time>
      </trkpt>
      <trkpt lat="43.22278" lon="5.42636">
        <ele>201.53</ele>
        <time>2015-02-23T14:50:50Z</time>
      </trkpt>
      <trkpt lat="43.22274" lon="5.42651">
        <ele>199.13</ele>
        <time>2015-02-23T14:51:06Z</time>
      </trkpt>
      <trkpt lat="43.22266" lon="5.42654">
        <ele>197.69</ele>
        <time>2015-02-23T14:51:19Z</time>
      </trkpt>
      <trkpt lat="43.22259" lon="5.42656">
        <ele>198.17</ele>
        <time>2015-02-23T14:51:26Z</time>
      </trkpt>
      <trkpt lat="43.22253" lon="5.42653">
        <ele>198.65</ele>
        <time>2015-02-23T14:51:34Z</time>
      </trkpt>
      <trkpt lat="43.22244" lon="5.42654">
        <ele>199.61</ele>
        <time>2015-02-23T14:51:47Z</time>
      </trkpt>
      <trkpt lat="43.22237" lon="5.42654">
        <ele>200.57</ele>
        <time>2015-02-23T14:52:01Z</time>
      </trkpt>
      <trkpt lat="43.22232" lon="5.42658">
        <ele>202.01</ele>
        <time>2015-02-23T14:52:17Z</time>
      </trkpt>
      <trkpt lat="43.22226" lon="5.4266">
        <ele>204.42</ele>
        <time>2015-02-23T14:52:34Z</time>
      </trkpt>
      <trkpt lat="43.22223" lon="5.4266">
        <ele>204.9</ele>
        <time>2015-02-23T14:52:37Z</time>
      </trkpt>
      <trkpt lat="43.22216" lon="5.42656">
        <ele>204.9</ele>
        <time>2015-02-23T14:52:53Z</time>
      </trkpt>
      <trkpt lat="43.22212" lon="5.42656">
        <ele>204.9</ele>
        <time>2015-02-23T14:53:09Z</time>
      </trkpt>
      <trkpt lat="43.22203" lon="5.42655">
        <ele>204.42</ele>
        <time>2015-02-23T14:53:24Z</time>
      </trkpt>
      <trkpt lat="43.22195" lon="5.42662">
        <ele>204.9</ele>
        <time>2015-02-23T14:53:37Z</time>
      </trkpt>
      <trkpt lat="43.22195" lon="5.4268">
        <ele>204.9</ele>
        <time>2015-02-23T14:53:53Z</time>
      </trkpt>
      <trkpt lat="43.22197" lon="5.42687">
        <ele>203.94</ele>
        <time>2015-02-23T14:54:08Z</time>
      </trkpt>
      <trkpt lat="43.22195" lon="5.42698">
        <ele>202.01</ele>
        <time>2015-02-23T14:54:19Z</time>
      </trkpt>
      <trkpt lat="43.22196" lon="5.42703">
        <ele>201.53</ele>
        <time>2015-02-23T14:54:36Z</time>
      </trkpt>
      <trkpt lat="43.22197" lon="5.42705">
        <ele>202.01</ele>
        <time>2015-02-23T14:54:41Z</time>
      </trkpt>
      <trkpt lat="43.22198" lon="5.42711">
        <ele>201.53</ele>
        <time>2015-02-23T14:54:45Z</time>
      </trkpt>
      <trkpt lat="43.22197" lon="5.42724">
        <ele>199.61</ele>
        <time>2015-02-23T14:54:59Z</time>
      </trkpt>
      <trkpt lat="43.22202" lon="5.42736">
        <ele>198.65</ele>
        <time>2015-02-23T14:55:13Z</time>
      </trkpt>
      <trkpt lat="43.22208" lon="5.42746">
        <ele>198.17</ele>
        <time>2015-02-23T14:55:26Z</time>
      </trkpt>
      <trkpt lat="43.22207" lon="5.42755">
        <ele>197.21</ele>
        <time>2015-02-23T14:55:35Z</time>
      </trkpt>
      <trkpt lat="43.22208" lon="5.42763">
        <ele>196.25</ele>
        <time>2015-02-23T14:55:44Z</time>
      </trkpt>
      <trkpt lat="43.2221" lon="5.42766">
        <ele>196.25</ele>
        <time>2015-02-23T14:55:47Z</time>
      </trkpt>
      <trkpt lat="43.22212" lon="5.42781">
        <ele>195.28</ele>
        <time>2015-02-23T14:56:01Z</time>
      </trkpt>
      <trkpt lat="43.22204" lon="5.42794">
        <ele>195.28</ele>
        <time>2015-02-23T14:56:14Z</time>
      </trkpt>
      <trkpt lat="43.22196" lon="5.42808">
        <ele>193.36</ele>
        <time>2015-02-23T14:56:29Z</time>
      </trkpt>
      <trkpt lat="43.22191" lon="5.4281">
        <ele>195.77</ele>
        <time>2015-02-23T14:56:45Z</time>
      </trkpt>
      <trkpt lat="43.22188" lon="5.42807">
        <ele>196.73</ele>
        <time>2015-02-23T14:56:50Z</time>
      </trkpt>
      <trkpt lat="43.22178" lon="5.42805">
        <ele>196.73</ele>
        <time>2015-02-23T14:57:05Z</time>
      </trkpt>
      <trkpt lat="43.22175" lon="5.42804">
        <ele>197.21</ele>
        <time>2015-02-23T14:57:18Z</time>
      </trkpt>
      <trkpt lat="43.22175" lon="5.42804">
        <ele>197.21</ele>
        <time>2015-02-23T14:57:25Z</time>
      </trkpt>
      <trkpt lat="43.22164" lon="5.42807">
        <ele>197.69</ele>
        <time>2015-02-23T14:57:40Z</time>
      </trkpt>
      <trkpt lat="43.22155" lon="5.42814">
        <ele>197.69</ele>
        <time>2015-02-23T14:57:57Z</time>
      </trkpt>
      <trkpt lat="43.22155" lon="5.42814">
        <ele>197.69</ele>
        <time>2015-02-23T14:58:19Z</time>
      </trkpt>
      <trkpt lat="43.22154" lon="5.42814">
        <ele>197.69</ele>
        <time>2015-02-23T14:58:48Z</time>
      </trkpt>
      <trkpt lat="43.22143" lon="5.42821">
        <ele>197.69</ele>
        <time>2015-02-23T14:59:04Z</time>
      </trkpt>
      <trkpt lat="43.22131" lon="5.42823">
        <ele>199.13</ele>
        <time>2015-02-23T14:59:21Z</time>
      </trkpt>
      <trkpt lat="43.22125" lon="5.42827">
        <ele>199.13</ele>
        <time>2015-02-23T14:59:34Z</time>
      </trkpt>
      <trkpt lat="43.22115" lon="5.42834">
        <ele>199.13</ele>
        <time>2015-02-23T14:59:54Z</time>
      </trkpt>
      <trkpt lat="43.22116" lon="5.42839">
        <ele>199.13</ele>
        <time>2015-02-23T14:59:59Z</time>
      </trkpt>
      <trkpt lat="43.22117" lon="5.42851">
        <ele>198.65</ele>
        <time>2015-02-23T15:00:08Z</time>
      </trkpt>
      <trkpt lat="43.2212" lon="5.42859">
        <ele>198.17</ele>
        <time>2015-02-23T15:00:13Z</time>
      </trkpt>
      <trkpt lat="43.22124" lon="5.42875">
        <ele>197.69</ele>
        <time>2015-02-23T15:00:25Z</time>
      </trkpt>
      <trkpt lat="43.2213" lon="5.42893">
        <ele>196.25</ele>
        <time>2015-02-23T15:00:41Z</time>
      </trkpt>
      <trkpt lat="43.22136" lon="5.42905">
        <ele>195.28</ele>
        <time>2015-02-23T15:00:55Z</time>
      </trkpt>
      <trkpt lat="43.22145" lon="5.42916">
        <ele>196.25</ele>
        <time>2015-02-23T15:01:13Z</time>
      </trkpt>
      <trkpt lat="43.2215" lon="5.42924">
        <ele>195.77</ele>
        <time>2015-02-23T15:01:25Z</time>
      </trkpt>
      <trkpt lat="43.22153" lon="5.42931">
        <ele>195.28</ele>
        <time>2015-02-23T15:01:38Z</time>
      </trkpt>
      <trkpt lat="43.22154" lon="5.4294">
        <ele>194.8</ele>
        <time>2015-02-23T15:02:00Z</time>
      </trkpt>
      <trkpt lat="43.22154" lon="5.42943">
        <ele>195.28</ele>
        <time>2015-02-23T15:02:03Z</time>
      </trkpt>
      <trkpt lat="43.22142" lon="5.42957">
        <ele>195.77</ele>
        <time>2015-02-23T15:02:13Z</time>
      </trkpt>
      <trkpt lat="43.22129" lon="5.42972">
        <ele>196.73</ele>
        <time>2015-02-23T15:02:31Z</time>
      </trkpt>
      <trkpt lat="43.22115" lon="5.42984">
        <ele>196.25</ele>
        <time>2015-02-23T15:02:49Z</time>
      </trkpt>
      <trkpt lat="43.22115" lon="5.42985">
        <ele>196.73</ele>
        <time>2015-02-23T15:02:56Z</time>
      </trkpt>
      <trkpt lat="43.22111" lon="5.42991">
        <ele>195.77</ele>
        <time>2015-02-23T15:03:13Z</time>
      </trkpt>
      <trkpt lat="43.22111" lon="5.42991">
        <ele>200.57</ele>
        <time>2015-02-23T15:03:17Z</time>
      </trkpt>
      <trkpt lat="43.22111" lon="5.42991">
        <ele>195.28</ele>
        <time>2015-02-23T15:03:18Z</time>
      </trkpt>
      <trkpt lat="43.22111" lon="5.42991">
        <ele>191.92</ele>
        <time>2015-02-23T15:03:22Z</time>
      </trkpt>
      <trkpt lat="43.22111" lon="5.42991">
        <ele>197.21</ele>
        <time>2015-02-23T15:03:23Z</time>
      </trkpt>
      <trkpt lat="43.22111" lon="5.42991">
        <ele>196.25</ele>
        <time>2015-02-23T15:03:44Z</time>
      </trkpt>
      <trkpt lat="43.22111" lon="5.42989">
        <ele>196.25</ele>
        <time>2015-02-23T15:04:03Z</time>
      </trkpt>
      <trkpt lat="43.22112" lon="5.42994">
        <ele>196.25</ele>
        <time>2015-02-23T15:04:31Z</time>
      </trkpt>
      <trkpt lat="43.22115" lon="5.43004">
        <ele>195.77</ele>
        <time>2015-02-23T15:04:49Z</time>
      </trkpt>
      <trkpt lat="43.22119" lon="5.43019">
        <ele>196.25</ele>
        <time>2015-02-23T15:05:05Z</time>
      </trkpt>
      <trkpt lat="43.22126" lon="5.43032">
        <ele>197.21</ele>
        <time>2015-02-23T15:05:22Z</time>
      </trkpt>
      <trkpt lat="43.22131" lon="5.4304">
        <ele>197.69</ele>
        <time>2015-02-23T15:05:32Z</time>
      </trkpt>
      <trkpt lat="43.22134" lon="5.4305">
        <ele>198.65</ele>
        <time>2015-02-23T15:05:43Z</time>
      </trkpt>
      <trkpt lat="43.22134" lon="5.43061">
        <ele>199.13</ele>
        <time>2015-02-23T15:05:54Z</time>
      </trkpt>
      <trkpt lat="43.22134" lon="5.43067">
        <ele>198.65</ele>
        <time>2015-02-23T15:05:57Z</time>
      </trkpt>
      <trkpt lat="43.22135" lon="5.43073">
        <ele>199.13</ele>
        <time>2015-02-23T15:06:01Z</time>
      </trkpt>
      <trkpt lat="43.22133" lon="5.43087">
        <ele>198.65</ele>
        <time>2015-02-23T15:06:19Z</time>
      </trkpt>
      <trkpt lat="43.22131" lon="5.43089">
        <ele>196.25</ele>
        <time>2015-02-23T15:06:36Z</time>
      </trkpt>
      <trkpt lat="43.22121" lon="5.43099">
        <ele>194.32</ele>
        <time>2015-02-23T15:06:57Z</time>
      </trkpt>
      <trkpt lat="43.22121" lon="5.43099">
        <ele>194.32</ele>
        <time>2015-02-23T15:07:01Z</time>
      </trkpt>
      <trkpt lat="43.22106" lon="5.43095">
        <ele>195.28</ele>
        <time>2015-02-23T15:07:16Z</time>
      </trkpt>
      <trkpt lat="43.22103" lon="5.43097">
        <ele>196.25</ele>
        <time>2015-02-23T15:07:19Z</time>
      </trkpt>
      <trkpt lat="43.22096" lon="5.43104">
        <ele>196.25</ele>
        <time>2015-02-23T15:07:28Z</time>
      </trkpt>
      <trkpt lat="43.22089" lon="5.4312">
        <ele>196.25</ele>
        <time>2015-02-23T15:07:44Z</time>
      </trkpt>
      <trkpt lat="43.22086" lon="5.43135">
        <ele>197.21</ele>
        <time>2015-02-23T15:08:01Z</time>
      </trkpt>
      <trkpt lat="43.22084" lon="5.43143">
        <ele>197.69</ele>
        <time>2015-02-23T15:08:10Z</time>
      </trkpt>
      <trkpt lat="43.22084" lon="5.43149">
        <ele>198.65</ele>
        <time>2015-02-23T15:08:18Z</time>
      </trkpt>
      <trkpt lat="43.22083" lon="5.43153">
        <ele>198.65</ele>
        <time>2015-02-23T15:08:21Z</time>
      </trkpt>
      <trkpt lat="43.22084" lon="5.4316">
        <ele>198.17</ele>
        <time>2015-02-23T15:08:27Z</time>
      </trkpt>
      <trkpt lat="43.22085" lon="5.43163">
        <ele>197.21</ele>
        <time>2015-02-23T15:08:30Z</time>
      </trkpt>
      <trkpt lat="43.22091" lon="5.43174">
        <ele>195.77</ele>
        <time>2015-02-23T15:08:46Z</time>
      </trkpt>
      <trkpt lat="43.2209" lon="5.43179">
        <ele>192.88</ele>
        <time>2015-02-23T15:08:59Z</time>
      </trkpt>
      <trkpt lat="43.2209" lon="5.43179">
        <ele>192.88</ele>
        <time>2015-02-23T15:09:00Z</time>
      </trkpt>
      <trkpt lat="43.2209" lon="5.4318">
        <ele>192.88</ele>
        <time>2015-02-23T15:09:02Z</time>
      </trkpt>
      <trkpt lat="43.2209" lon="5.43186">
        <ele>191.92</ele>
        <time>2015-02-23T15:09:25Z</time>
      </trkpt>
      <trkpt lat="43.22091" lon="5.43198">
        <ele>190</ele>
        <time>2015-02-23T15:09:42Z</time>
      </trkpt>
      <trkpt lat="43.22091" lon="5.432">
        <ele>190.48</ele>
        <time>2015-02-23T15:10:00Z</time>
      </trkpt>
      <trkpt lat="43.22091" lon="5.432">
        <ele>190.96</ele>
        <time>2015-02-23T15:10:07Z</time>
      </trkpt>
      <trkpt lat="43.22088" lon="5.43203">
        <ele>191.44</ele>
        <time>2015-02-23T15:10:11Z</time>
      </trkpt>
      <trkpt lat="43.22083" lon="5.43212">
        <ele>193.36</ele>
        <time>2015-02-23T15:10:26Z</time>
      </trkpt>
      <trkpt lat="43.22078" lon="5.43216">
        <ele>193.36</ele>
        <time>2015-02-23T15:10:33Z</time>
      </trkpt>
      <trkpt lat="43.22067" lon="5.43223">
        <ele>194.32</ele>
        <time>2015-02-23T15:10:50Z</time>
      </trkpt>
      <trkpt lat="43.22057" lon="5.43235">
        <ele>195.28</ele>
        <time>2015-02-23T15:11:06Z</time>
      </trkpt>
      <trkpt lat="43.22043" lon="5.43239">
        <ele>193.84</ele>
        <time>2015-02-23T15:11:23Z</time>
      </trkpt>
      <trkpt lat="43.22035" lon="5.43239">
        <ele>197.69</ele>
        <time>2015-02-23T15:11:36Z</time>
      </trkpt>
      <trkpt lat="43.22034" lon="5.43239">
        <ele>198.17</ele>
        <time>2015-02-23T15:11:38Z</time>
      </trkpt>
      <trkpt lat="43.22031" lon="5.4324">
        <ele>200.09</ele>
        <time>2015-02-23T15:11:46Z</time>
      </trkpt>
      <trkpt lat="43.22029" lon="5.4324">
        <ele>200.09</ele>
        <time>2015-02-23T15:11:48Z</time>
      </trkpt>
      <trkpt lat="43.22021" lon="5.43241">
        <ele>202.49</ele>
        <time>2015-02-23T15:12:05Z</time>
      </trkpt>
      <trkpt lat="43.22025" lon="5.43249">
        <ele>206.34</ele>
        <time>2015-02-23T15:12:24Z</time>
      </trkpt>
      <trkpt lat="43.22026" lon="5.43259">
        <ele>207.78</ele>
        <time>2015-02-23T15:12:40Z</time>
      </trkpt>
      <trkpt lat="43.22026" lon="5.43268">
        <ele>208.26</ele>
        <time>2015-02-23T15:12:58Z</time>
      </trkpt>
      <trkpt lat="43.22026" lon="5.43277">
        <ele>207.78</ele>
        <time>2015-02-23T15:13:16Z</time>
      </trkpt>
      <trkpt lat="43.22029" lon="5.43293">
        <ele>208.74</ele>
        <time>2015-02-23T15:13:27Z</time>
      </trkpt>
      <trkpt lat="43.22031" lon="5.43315">
        <ele>207.78</ele>
        <time>2015-02-23T15:13:45Z</time>
      </trkpt>
      <trkpt lat="43.22038" lon="5.43329">
        <ele>208.74</ele>
        <time>2015-02-23T15:14:01Z</time>
      </trkpt>
      <trkpt lat="43.22046" lon="5.43342">
        <ele>209.22</ele>
        <time>2015-02-23T15:14:15Z</time>
      </trkpt>
      <trkpt lat="43.22053" lon="5.4335">
        <ele>210.67</ele>
        <time>2015-02-23T15:14:30Z</time>
      </trkpt>
      <trkpt lat="43.22052" lon="5.43363">
        <ele>213.07</ele>
        <time>2015-02-23T15:14:44Z</time>
      </trkpt>
      <trkpt lat="43.22051" lon="5.43365">
        <ele>212.59</ele>
        <time>2015-02-23T15:14:46Z</time>
      </trkpt>
      <trkpt lat="43.22044" lon="5.43379">
        <ele>215.95</ele>
        <time>2015-02-23T15:15:06Z</time>
      </trkpt>
      <trkpt lat="43.22046" lon="5.43385">
        <ele>216.91</ele>
        <time>2015-02-23T15:15:15Z</time>
      </trkpt>
      <trkpt lat="43.22045" lon="5.43388">
        <ele>218.36</ele>
        <time>2015-02-23T15:15:35Z</time>
      </trkpt>
      <trkpt lat="43.22048" lon="5.43395">
        <ele>222.2</ele>
        <time>2015-02-23T15:15:50Z</time>
      </trkpt>
      <trkpt lat="43.2205" lon="5.43401">
        <ele>227.49</ele>
        <time>2015-02-23T15:16:07Z</time>
      </trkpt>
      <trkpt lat="43.2205" lon="5.43402">
        <ele>222.68</ele>
        <time>2015-02-23T15:16:08Z</time>
      </trkpt>
      <trkpt lat="43.2205" lon="5.43409">
        <ele>225.57</ele>
        <time>2015-02-23T15:16:20Z</time>
      </trkpt>
      <trkpt lat="43.2205" lon="5.43422">
        <ele>227.97</ele>
        <time>2015-02-23T15:16:36Z</time>
      </trkpt>
      <trkpt lat="43.22049" lon="5.43429">
        <ele>230.85</ele>
        <time>2015-02-23T15:16:55Z</time>
      </trkpt>
      <trkpt lat="43.22049" lon="5.4343">
        <ele>233.74</ele>
        <time>2015-02-23T15:16:58Z</time>
      </trkpt>
      <trkpt lat="43.22049" lon="5.43431">
        <ele>233.26</ele>
        <time>2015-02-23T15:16:59Z</time>
      </trkpt>
      <trkpt lat="43.22049" lon="5.43433">
        <ele>231.81</ele>
        <time>2015-02-23T15:17:01Z</time>
      </trkpt>
      <trkpt lat="43.22048" lon="5.43433">
        <ele>231.33</ele>
        <time>2015-02-23T15:17:02Z</time>
      </trkpt>
      <trkpt lat="43.22045" lon="5.43439">
        <ele>231.81</ele>
        <time>2015-02-23T15:17:22Z</time>
      </trkpt>
      <trkpt lat="43.22045" lon="5.4345">
        <ele>234.22</ele>
        <time>2015-02-23T15:17:39Z</time>
      </trkpt>
      <trkpt lat="43.22045" lon="5.43453">
        <ele>232.78</ele>
        <time>2015-02-23T15:17:42Z</time>
      </trkpt>
      <trkpt lat="43.22045" lon="5.43453">
        <ele>235.66</ele>
        <time>2015-02-23T15:17:44Z</time>
      </trkpt>
      <trkpt lat="43.22046" lon="5.43457">
        <ele>236.62</ele>
        <time>2015-02-23T15:18:05Z</time>
      </trkpt>
      <trkpt lat="43.22046" lon="5.43457">
        <ele>231.33</ele>
        <time>2015-02-23T15:18:09Z</time>
      </trkpt>
      <trkpt lat="43.22046" lon="5.43457">
        <ele>237.58</ele>
        <time>2015-02-23T15:18:10Z</time>
      </trkpt>
      <trkpt lat="43.22046" lon="5.43457">
        <ele>230.37</ele>
        <time>2015-02-23T15:18:11Z</time>
      </trkpt>
      <trkpt lat="43.22046" lon="5.43457">
        <ele>238.54</ele>
        <time>2015-02-23T15:18:12Z</time>
      </trkpt>
      <trkpt lat="43.2205" lon="5.43473">
        <ele>238.54</ele>
        <time>2015-02-23T15:18:29Z</time>
      </trkpt>
      <trkpt lat="43.2205" lon="5.43474">
        <ele>239.02</ele>
        <time>2015-02-23T15:18:30Z</time>
      </trkpt>
      <trkpt lat="43.22048" lon="5.43497">
        <ele>239.99</ele>
        <time>2015-02-23T15:18:49Z</time>
      </trkpt>
      <trkpt lat="43.22047" lon="5.43515">
        <ele>241.91</ele>
        <time>2015-02-23T15:19:07Z</time>
      </trkpt>
      <trkpt lat="43.22044" lon="5.43528">
        <ele>241.43</ele>
        <time>2015-02-23T15:19:22Z</time>
      </trkpt>
      <trkpt lat="43.22047" lon="5.43541">
        <ele>241.91</ele>
        <time>2015-02-23T15:19:37Z</time>
      </trkpt>
      <trkpt lat="43.2205" lon="5.43547">
        <ele>241.43</ele>
        <time>2015-02-23T15:19:50Z</time>
      </trkpt>
      <trkpt lat="43.22044" lon="5.43557">
        <ele>239.51</ele>
        <time>2015-02-23T15:20:08Z</time>
      </trkpt>
      <trkpt lat="43.2204" lon="5.4356">
        <ele>236.14</ele>
        <time>2015-02-23T15:20:23Z</time>
      </trkpt>
      <trkpt lat="43.2204" lon="5.4356">
        <ele>239.02</ele>
        <time>2015-02-23T15:20:24Z</time>
      </trkpt>
      <trkpt lat="43.2204" lon="5.4356">
        <ele>234.22</ele>
        <time>2015-02-23T15:20:27Z</time>
      </trkpt>
      <trkpt lat="43.2204" lon="5.4356">
        <ele>239.51</ele>
        <time>2015-02-23T15:20:28Z</time>
      </trkpt>
      <trkpt lat="43.2204" lon="5.4356">
        <ele>238.54</ele>
        <time>2015-02-23T15:20:43Z</time>
      </trkpt>
      <trkpt lat="43.22039" lon="5.43564">
        <ele>239.02</ele>
        <time>2015-02-23T15:20:48Z</time>
      </trkpt>
      <trkpt lat="43.22032" lon="5.43579">
        <ele>238.06</ele>
        <time>2015-02-23T15:21:02Z</time>
      </trkpt>
      <trkpt lat="43.22028" lon="5.43587">
        <ele>237.58</ele>
        <time>2015-02-23T15:21:17Z</time>
      </trkpt>
      <trkpt lat="43.22022" lon="5.43599">
        <ele>237.58</ele>
        <time>2015-02-23T15:21:30Z</time>
      </trkpt>
      <trkpt lat="43.22019" lon="5.43613">
        <ele>237.58</ele>
        <time>2015-02-23T15:21:43Z</time>
      </trkpt>
      <trkpt lat="43.22017" lon="5.43616">
        <ele>237.58</ele>
        <time>2015-02-23T15:21:46Z</time>
      </trkpt>
      <trkpt lat="43.22017" lon="5.43618">
        <ele>237.1</ele>
        <time>2015-02-23T15:21:48Z</time>
      </trkpt>
      <trkpt lat="43.22012" lon="5.43634">
        <ele>237.1</ele>
        <time>2015-02-23T15:22:02Z</time>
      </trkpt>
      <trkpt lat="43.2201" lon="5.43641">
        <ele>236.62</ele>
        <time>2015-02-23T15:22:09Z</time>
      </trkpt>
      <trkpt lat="43.22008" lon="5.43647">
        <ele>236.14</ele>
        <time>2015-02-23T15:22:14Z</time>
      </trkpt>
      <trkpt lat="43.22004" lon="5.43661">
        <ele>234.22</ele>
        <time>2015-02-23T15:22:29Z</time>
      </trkpt>
      <trkpt lat="43.21999" lon="5.43678">
        <ele>234.22</ele>
        <time>2015-02-23T15:22:45Z</time>
      </trkpt>
      <trkpt lat="43.21996" lon="5.43692">
        <ele>233.74</ele>
        <time>2015-02-23T15:22:59Z</time>
      </trkpt>
      <trkpt lat="43.21994" lon="5.43705">
        <ele>232.78</ele>
        <time>2015-02-23T15:23:12Z</time>
      </trkpt>
      <trkpt lat="43.21989" lon="5.43718">
        <ele>232.3</ele>
        <time>2015-02-23T15:23:25Z</time>
      </trkpt>
      <trkpt lat="43.21986" lon="5.43729">
        <ele>230.85</ele>
        <time>2015-02-23T15:23:38Z</time>
      </trkpt>
      <trkpt lat="43.21985" lon="5.43732">
        <ele>230.85</ele>
        <time>2015-02-23T15:23:40Z</time>
      </trkpt>
      <trkpt lat="43.21979" lon="5.43744">
        <ele>229.41</ele>
        <time>2015-02-23T15:23:54Z</time>
      </trkpt>
      <trkpt lat="43.21979" lon="5.43747">
        <ele>228.93</ele>
        <time>2015-02-23T15:24:10Z</time>
      </trkpt>
      <trkpt lat="43.21979" lon="5.4375">
        <ele>228.45</ele>
        <time>2015-02-23T15:24:29Z</time>
      </trkpt>
      <trkpt lat="43.21992" lon="5.43765">
        <ele>227.49</ele>
        <time>2015-02-23T15:24:47Z</time>
      </trkpt>
      <trkpt lat="43.21998" lon="5.43768">
        <ele>223.64</ele>
        <time>2015-02-23T15:24:56Z</time>
      </trkpt>
      <trkpt lat="43.21999" lon="5.43768">
        <ele>228.93</ele>
        <time>2015-02-23T15:24:57Z</time>
      </trkpt>
      <trkpt lat="43.21999" lon="5.43769">
        <ele>226.05</ele>
        <time>2015-02-23T15:24:58Z</time>
      </trkpt>
      <trkpt lat="43.22012" lon="5.43766">
        <ele>225.57</ele>
        <time>2015-02-23T15:25:14Z</time>
      </trkpt>
      <trkpt lat="43.22022" lon="5.43767">
        <ele>224.12</ele>
        <time>2015-02-23T15:25:25Z</time>
      </trkpt>
      <trkpt lat="43.22027" lon="5.43774">
        <ele>223.64</ele>
        <time>2015-02-23T15:25:31Z</time>
      </trkpt>
      <trkpt lat="43.22027" lon="5.43781">
        <ele>223.16</ele>
        <time>2015-02-23T15:25:36Z</time>
      </trkpt>
      <trkpt lat="43.22015" lon="5.43796">
        <ele>222.2</ele>
        <time>2015-02-23T15:25:54Z</time>
      </trkpt>
      <trkpt lat="43.22012" lon="5.43798">
        <ele>222.2</ele>
        <time>2015-02-23T15:25:58Z</time>
      </trkpt>
      <trkpt lat="43.22002" lon="5.43812">
        <ele>220.28</ele>
        <time>2015-02-23T15:26:16Z</time>
      </trkpt>
      <trkpt lat="43.22013" lon="5.43819">
        <ele>218.84</ele>
        <time>2015-02-23T15:26:32Z</time>
      </trkpt>
      <trkpt lat="43.22016" lon="5.43819">
        <ele>218.36</ele>
        <time>2015-02-23T15:26:37Z</time>
      </trkpt>
      <trkpt lat="43.2203" lon="5.43818">
        <ele>217.88</ele>
        <time>2015-02-23T15:26:52Z</time>
      </trkpt>
      <trkpt lat="43.22035" lon="5.43814">
        <ele>217.4</ele>
        <time>2015-02-23T15:26:59Z</time>
      </trkpt>
      <trkpt lat="43.22046" lon="5.438">
        <ele>215.95</ele>
        <time>2015-02-23T15:27:17Z</time>
      </trkpt>
      <trkpt lat="43.22052" lon="5.43784">
        <ele>214.51</ele>
        <time>2015-02-23T15:27:34Z</time>
      </trkpt>
      <trkpt lat="43.22052" lon="5.43784">
        <ele>213.55</ele>
        <time>2015-02-23T15:27:54Z</time>
      </trkpt>
      <trkpt lat="43.22052" lon="5.43783">
        <ele>214.03</ele>
        <time>2015-02-23T15:28:22Z</time>
      </trkpt>
      <trkpt lat="43.22053" lon="5.43779">
        <ele>214.51</ele>
        <time>2015-02-23T15:28:49Z</time>
      </trkpt>
      <trkpt lat="43.22054" lon="5.43777">
        <ele>214.03</ele>
        <time>2015-02-23T15:28:50Z</time>
      </trkpt>
      <trkpt lat="43.22058" lon="5.43767">
        <ele>213.55</ele>
        <time>2015-02-23T15:29:08Z</time>
      </trkpt>
      <trkpt lat="43.22062" lon="5.43757">
        <ele>212.59</ele>
        <time>2015-02-23T15:29:25Z</time>
      </trkpt>
      <trkpt lat="43.22065" lon="5.43751">
        <ele>212.59</ele>
        <time>2015-02-23T15:29:35Z</time>
      </trkpt>
      <trkpt lat="43.22069" lon="5.4374">
        <ele>211.63</ele>
        <time>2015-02-23T15:29:44Z</time>
      </trkpt>
      <trkpt lat="43.22075" lon="5.43727">
        <ele>210.67</ele>
        <time>2015-02-23T15:29:56Z</time>
      </trkpt>
      <trkpt lat="43.22075" lon="5.43725">
        <ele>210.19</ele>
        <time>2015-02-23T15:29:58Z</time>
      </trkpt>
      <trkpt lat="43.22079" lon="5.43709">
        <ele>209.22</ele>
        <time>2015-02-23T15:30:11Z</time>
      </trkpt>
      <trkpt lat="43.22089" lon="5.4369">
        <ele>207.78</ele>
        <time>2015-02-23T15:30:26Z</time>
      </trkpt>
      <trkpt lat="43.22092" lon="5.43684">
        <ele>207.78</ele>
        <time>2015-02-23T15:30:31Z</time>
      </trkpt>
      <trkpt lat="43.22094" lon="5.43679">
        <ele>207.78</ele>
        <time>2015-02-23T15:30:35Z</time>
      </trkpt>
      <trkpt lat="43.22094" lon="5.43677">
        <ele>206.34</ele>
        <time>2015-02-23T15:30:37Z</time>
      </trkpt>
      <trkpt lat="43.22097" lon="5.43672">
        <ele>207.3</ele>
        <time>2015-02-23T15:30:42Z</time>
      </trkpt>
      <trkpt lat="43.22101" lon="5.43666">
        <ele>198.65</ele>
        <time>2015-02-23T15:30:49Z</time>
      </trkpt>
      <trkpt lat="43.22102" lon="5.43665">
        <ele>207.78</ele>
        <time>2015-02-23T15:30:50Z</time>
      </trkpt>
      <trkpt lat="43.22105" lon="5.43655">
        <ele>205.86</ele>
        <time>2015-02-23T15:31:04Z</time>
      </trkpt>
      <trkpt lat="43.22106" lon="5.43653">
        <ele>204.9</ele>
        <time>2015-02-23T15:31:10Z</time>
      </trkpt>
      <trkpt lat="43.22106" lon="5.43647">
        <ele>204.9</ele>
        <time>2015-02-23T15:31:13Z</time>
      </trkpt>
      <trkpt lat="43.22109" lon="5.43644">
        <ele>203.94</ele>
        <time>2015-02-23T15:31:17Z</time>
      </trkpt>
      <trkpt lat="43.22113" lon="5.43645">
        <ele>204.9</ele>
        <time>2015-02-23T15:31:20Z</time>
      </trkpt>
      <trkpt lat="43.22117" lon="5.43649">
        <ele>204.9</ele>
        <time>2015-02-23T15:31:23Z</time>
      </trkpt>
      <trkpt lat="43.22112" lon="5.4367">
        <ele>203.46</ele>
        <time>2015-02-23T15:31:34Z</time>
      </trkpt>
      <trkpt lat="43.2211" lon="5.43694">
        <ele>202.49</ele>
        <time>2015-02-23T15:31:53Z</time>
      </trkpt>
      <trkpt lat="43.22107" lon="5.43711">
        <ele>201.53</ele>
        <time>2015-02-23T15:32:06Z</time>
      </trkpt>
      <trkpt lat="43.22106" lon="5.43715">
        <ele>201.05</ele>
        <time>2015-02-23T15:32:09Z</time>
      </trkpt>
      <trkpt lat="43.22104" lon="5.43732">
        <ele>200.09</ele>
        <time>2015-02-23T15:32:23Z</time>
      </trkpt>
      <trkpt lat="43.22104" lon="5.43756">
        <ele>199.61</ele>
        <time>2015-02-23T15:32:37Z</time>
      </trkpt>
      <trkpt lat="43.22105" lon="5.43763">
        <ele>199.13</ele>
        <time>2015-02-23T15:32:43Z</time>
      </trkpt>
      <trkpt lat="43.22108" lon="5.43777">
        <ele>198.65</ele>
        <time>2015-02-23T15:32:50Z</time>
      </trkpt>
      <trkpt lat="43.2211" lon="5.43798">
        <ele>197.21</ele>
        <time>2015-02-23T15:33:08Z</time>
      </trkpt>
      <trkpt lat="43.22113" lon="5.43821">
        <ele>196.73</ele>
        <time>2015-02-23T15:33:20Z</time>
      </trkpt>
      <trkpt lat="43.22111" lon="5.43825">
        <ele>195.77</ele>
        <time>2015-02-23T15:33:24Z</time>
      </trkpt>
      <trkpt lat="43.22113" lon="5.43833">
        <ele>195.28</ele>
        <time>2015-02-23T15:33:31Z</time>
      </trkpt>
      <trkpt lat="43.22113" lon="5.43852">
        <ele>194.8</ele>
        <time>2015-02-23T15:33:46Z</time>
      </trkpt>
      <trkpt lat="43.2211" lon="5.43865">
        <ele>194.32</ele>
        <time>2015-02-23T15:33:55Z</time>
      </trkpt>
      <trkpt lat="43.22106" lon="5.43884">
        <ele>193.36</ele>
        <time>2015-02-23T15:34:10Z</time>
      </trkpt>
      <trkpt lat="43.22105" lon="5.43891">
        <ele>192.4</ele>
        <time>2015-02-23T15:34:16Z</time>
      </trkpt>
      <trkpt lat="43.22098" lon="5.43913">
        <ele>190.96</ele>
        <time>2015-02-23T15:34:33Z</time>
      </trkpt>
      <trkpt lat="43.2209" lon="5.43931">
        <ele>190</ele>
        <time>2015-02-23T15:34:48Z</time>
      </trkpt>
      <trkpt lat="43.22083" lon="5.43949">
        <ele>189.04</ele>
        <time>2015-02-23T15:35:03Z</time>
      </trkpt>
      <trkpt lat="43.22078" lon="5.43968">
        <ele>188.08</ele>
        <time>2015-02-23T15:35:18Z</time>
      </trkpt>
      <trkpt lat="43.22074" lon="5.43987">
        <ele>187.59</ele>
        <time>2015-02-23T15:35:33Z</time>
      </trkpt>
      <trkpt lat="43.2207" lon="5.44004">
        <ele>186.15</ele>
        <time>2015-02-23T15:35:47Z</time>
      </trkpt>
      <trkpt lat="43.22068" lon="5.44013">
        <ele>185.67</ele>
        <time>2015-02-23T15:35:55Z</time>
      </trkpt>
      <trkpt lat="43.22068" lon="5.44017">
        <ele>184.71</ele>
        <time>2015-02-23T15:35:58Z</time>
      </trkpt>
      <trkpt lat="43.2206" lon="5.44043">
        <ele>184.23</ele>
        <time>2015-02-23T15:36:15Z</time>
      </trkpt>
      <trkpt lat="43.22058" lon="5.44057">
        <ele>183.75</ele>
        <time>2015-02-23T15:36:29Z</time>
      </trkpt>
      <trkpt lat="43.22059" lon="5.44062">
        <ele>184.23</ele>
        <time>2015-02-23T15:36:34Z</time>
      </trkpt>
      <trkpt lat="43.22067" lon="5.44068">
        <ele>183.27</ele>
        <time>2015-02-23T15:36:44Z</time>
      </trkpt>
      <trkpt lat="43.22073" lon="5.44078">
        <ele>182.31</ele>
        <time>2015-02-23T15:37:00Z</time>
      </trkpt>
      <trkpt lat="43.22081" lon="5.44081">
        <ele>181.35</ele>
        <time>2015-02-23T15:37:10Z</time>
      </trkpt>
      <trkpt lat="43.22084" lon="5.44083">
        <ele>180.87</ele>
        <time>2015-02-23T15:37:20Z</time>
      </trkpt>
      <trkpt lat="43.2209" lon="5.44081">
        <ele>180.87</ele>
        <time>2015-02-23T15:37:27Z</time>
      </trkpt>
      <trkpt lat="43.22098" lon="5.4408">
        <ele>180.38</ele>
        <time>2015-02-23T15:37:40Z</time>
      </trkpt>
      <trkpt lat="43.22103" lon="5.4408">
        <ele>179.9</ele>
        <time>2015-02-23T15:37:45Z</time>
      </trkpt>
      <trkpt lat="43.22115" lon="5.44073">
        <ele>179.42</ele>
        <time>2015-02-23T15:37:59Z</time>
      </trkpt>
      <trkpt lat="43.22122" lon="5.44065">
        <ele>178.46</ele>
        <time>2015-02-23T15:38:11Z</time>
      </trkpt>
      <trkpt lat="43.22129" lon="5.44056">
        <ele>177.98</ele>
        <time>2015-02-23T15:38:21Z</time>
      </trkpt>
      <trkpt lat="43.22136" lon="5.44051">
        <ele>178.46</ele>
        <time>2015-02-23T15:38:27Z</time>
      </trkpt>
      <trkpt lat="43.22145" lon="5.44041">
        <ele>177.98</ele>
        <time>2015-02-23T15:38:42Z</time>
      </trkpt>
      <trkpt lat="43.22146" lon="5.4404">
        <ele>177.98</ele>
        <time>2015-02-23T15:38:44Z</time>
      </trkpt>
      <trkpt lat="43.22154" lon="5.44032">
        <ele>177.5</ele>
        <time>2015-02-23T15:38:56Z</time>
      </trkpt>
      <trkpt lat="43.22165" lon="5.44024">
        <ele>177.02</ele>
        <time>2015-02-23T15:39:12Z</time>
      </trkpt>
      <trkpt lat="43.22171" lon="5.44022">
        <ele>176.06</ele>
        <time>2015-02-23T15:39:22Z</time>
      </trkpt>
      <trkpt lat="43.22182" lon="5.44018">
        <ele>175.58</ele>
        <time>2015-02-23T15:39:35Z</time>
      </trkpt>
      <trkpt lat="43.22189" lon="5.44016">
        <ele>175.1</ele>
        <time>2015-02-23T15:39:39Z</time>
      </trkpt>
      <trkpt lat="43.22199" lon="5.44011">
        <ele>175.1</ele>
        <time>2015-02-23T15:39:54Z</time>
      </trkpt>
      <trkpt lat="43.2221" lon="5.44006">
        <ele>174.62</ele>
        <time>2015-02-23T15:40:04Z</time>
      </trkpt>
      <trkpt lat="43.22219" lon="5.44003">
        <ele>174.14</ele>
        <time>2015-02-23T15:40:14Z</time>
      </trkpt>
      <trkpt lat="43.22232" lon="5.44001">
        <ele>173.17</ele>
        <time>2015-02-23T15:40:27Z</time>
      </trkpt>
      <trkpt lat="43.2224" lon="5.43998">
        <ele>173.17</ele>
        <time>2015-02-23T15:40:32Z</time>
      </trkpt>
      <trkpt lat="43.22255" lon="5.43993">
        <ele>172.69</ele>
        <time>2015-02-23T15:40:51Z</time>
      </trkpt>
      <trkpt lat="43.22266" lon="5.43987">
        <ele>172.21</ele>
        <time>2015-02-23T15:41:05Z</time>
      </trkpt>
      <trkpt lat="43.22275" lon="5.43979">
        <ele>171.73</ele>
        <time>2015-02-23T15:41:14Z</time>
      </trkpt>
      <trkpt lat="43.22276" lon="5.43978">
        <ele>172.21</ele>
        <time>2015-02-23T15:41:16Z</time>
      </trkpt>
      <trkpt lat="43.2228" lon="5.43976">
        <ele>172.21</ele>
        <time>2015-02-23T15:41:21Z</time>
      </trkpt>
      <trkpt lat="43.22287" lon="5.43969">
        <ele>171.73</ele>
        <time>2015-02-23T15:41:33Z</time>
      </trkpt>
      <trkpt lat="43.22295" lon="5.43958">
        <ele>170.77</ele>
        <time>2015-02-23T15:41:49Z</time>
      </trkpt>
      <trkpt lat="43.22309" lon="5.43947">
        <ele>169.81</ele>
        <time>2015-02-23T15:42:04Z</time>
      </trkpt>
      <trkpt lat="43.2232" lon="5.43937">
        <ele>169.81</ele>
        <time>2015-02-23T15:42:14Z</time>
      </trkpt>
      <trkpt lat="43.22323" lon="5.43933">
        <ele>169.81</ele>
        <time>2015-02-23T15:42:18Z</time>
      </trkpt>
      <trkpt lat="43.22334" lon="5.43917">
        <ele>168.85</ele>
        <time>2015-02-23T15:42:33Z</time>
      </trkpt>
      <trkpt lat="43.22335" lon="5.43915">
        <ele>168.85</ele>
        <time>2015-02-23T15:42:35Z</time>
      </trkpt>
      <trkpt lat="43.22344" lon="5.43905">
        <ele>167.89</ele>
        <time>2015-02-23T15:42:51Z</time>
      </trkpt>
      <trkpt lat="43.22345" lon="5.43903">
        <ele>168.85</ele>
        <time>2015-02-23T15:42:54Z</time>
      </trkpt>
      <trkpt lat="43.22351" lon="5.43893">
        <ele>167.89</ele>
        <time>2015-02-23T15:43:05Z</time>
      </trkpt>
      <trkpt lat="43.22354" lon="5.43889">
        <ele>167.41</ele>
        <time>2015-02-23T15:43:09Z</time>
      </trkpt>
      <trkpt lat="43.22364" lon="5.43876">
        <ele>166.93</ele>
        <time>2015-02-23T15:43:27Z</time>
      </trkpt>
      <trkpt lat="43.22365" lon="5.43875">
        <ele>166.93</ele>
        <time>2015-02-23T15:43:28Z</time>
      </trkpt>
      <trkpt lat="43.22368" lon="5.43873">
        <ele>168.37</ele>
        <time>2015-02-23T15:43:32Z</time>
      </trkpt>
      <trkpt lat="43.22379" lon="5.43869">
        <ele>166.45</ele>
        <time>2015-02-23T15:43:41Z</time>
      </trkpt>
      <trkpt lat="43.22385" lon="5.43865">
        <ele>165.96</ele>
        <time>2015-02-23T15:43:48Z</time>
      </trkpt>
      <trkpt lat="43.224" lon="5.43855">
        <ele>165.96</ele>
        <time>2015-02-23T15:44:08Z</time>
      </trkpt>
      <trkpt lat="43.22405" lon="5.43851">
        <ele>165.48</ele>
        <time>2015-02-23T15:44:16Z</time>
      </trkpt>
      <trkpt lat="43.22417" lon="5.43849">
        <ele>168.85</ele>
        <time>2015-02-23T15:44:25Z</time>
      </trkpt>
      <trkpt lat="43.22418" lon="5.43848">
        <ele>165.48</ele>
        <time>2015-02-23T15:44:26Z</time>
      </trkpt>
      <trkpt lat="43.22426" lon="5.43844">
        <ele>162.12</ele>
        <time>2015-02-23T15:44:35Z</time>
      </trkpt>
      <trkpt lat="43.22427" lon="5.43844">
        <ele>167.41</ele>
        <time>2015-02-23T15:44:36Z</time>
      </trkpt>
      <trkpt lat="43.22439" lon="5.43835">
        <ele>165</ele>
        <time>2015-02-23T15:44:51Z</time>
      </trkpt>
      <trkpt lat="43.22449" lon="5.43822">
        <ele>165.48</ele>
        <time>2015-02-23T15:45:07Z</time>
      </trkpt>
      <trkpt lat="43.2245" lon="5.43822">
        <ele>165.96</ele>
        <time>2015-02-23T15:45:24Z</time>
      </trkpt>
      <trkpt lat="43.22455" lon="5.43816">
        <ele>165.96</ele>
        <time>2015-02-23T15:45:38Z</time>
      </trkpt>
      <trkpt lat="43.22471" lon="5.43811">
        <ele>158.75</ele>
        <time>2015-02-23T15:45:56Z</time>
      </trkpt>
      <trkpt lat="43.22472" lon="5.43811">
        <ele>152.51</ele>
        <time>2015-02-23T15:45:57Z</time>
      </trkpt>
      <trkpt lat="43.22473" lon="5.43812">
        <ele>167.89</ele>
        <time>2015-02-23T15:45:58Z</time>
      </trkpt>
      <trkpt lat="43.22474" lon="5.43812">
        <ele>166.45</ele>
        <time>2015-02-23T15:45:59Z</time>
      </trkpt>
      <trkpt lat="43.22492" lon="5.4381">
        <ele>165.96</ele>
        <time>2015-02-23T15:46:16Z</time>
      </trkpt>
      <trkpt lat="43.22495" lon="5.4381">
        <ele>165.96</ele>
        <time>2015-02-23T15:46:19Z</time>
      </trkpt>
      <trkpt lat="43.22507" lon="5.43811">
        <ele>166.45</ele>
        <time>2015-02-23T15:46:30Z</time>
      </trkpt>
      <trkpt lat="43.22519" lon="5.43812">
        <ele>170.77</ele>
        <time>2015-02-23T15:46:38Z</time>
      </trkpt>
      <trkpt lat="43.22519" lon="5.43812">
        <ele>166.45</ele>
        <time>2015-02-23T15:46:39Z</time>
      </trkpt>
      <trkpt lat="43.22522" lon="5.43813">
        <ele>160.68</ele>
        <time>2015-02-23T15:46:43Z</time>
      </trkpt>
      <trkpt lat="43.22524" lon="5.43813">
        <ele>174.62</ele>
        <time>2015-02-23T15:46:44Z</time>
      </trkpt>
      <trkpt lat="43.22524" lon="5.43813">
        <ele>166.93</ele>
        <time>2015-02-23T15:46:45Z</time>
      </trkpt>
      <trkpt lat="43.22529" lon="5.43813">
        <ele>163.56</ele>
        <time>2015-02-23T15:46:51Z</time>
      </trkpt>
      <trkpt lat="43.22533" lon="5.43813">
        <ele>169.33</ele>
        <time>2015-02-23T15:46:55Z</time>
      </trkpt>
      <trkpt lat="43.22535" lon="5.43813">
        <ele>165.48</ele>
        <time>2015-02-23T15:46:57Z</time>
      </trkpt>
      <trkpt lat="43.22549" lon="5.4381">
        <ele>166.93</ele>
        <time>2015-02-23T15:47:13Z</time>
      </trkpt>
      <trkpt lat="43.22563" lon="5.43809">
        <ele>167.41</ele>
        <time>2015-02-23T15:47:29Z</time>
      </trkpt>
      <trkpt lat="43.22577" lon="5.4381">
        <ele>167.89</ele>
        <time>2015-02-23T15:47:44Z</time>
      </trkpt>
      <trkpt lat="43.22581" lon="5.43807">
        <ele>167.89</ele>
        <time>2015-02-23T15:47:50Z</time>
      </trkpt>
      <trkpt lat="43.22595" lon="5.43809">
        <ele>163.56</ele>
        <time>2015-02-23T15:48:02Z</time>
      </trkpt>
      <trkpt lat="43.22596" lon="5.43809">
        <ele>169.33</ele>
        <time>2015-02-23T15:48:03Z</time>
      </trkpt>
      <trkpt lat="43.22598" lon="5.43809">
        <ele>169.33</ele>
        <time>2015-02-23T15:48:04Z</time>
      </trkpt>
      <trkpt lat="43.226" lon="5.43809">
        <ele>167.89</ele>
        <time>2015-02-23T15:48:06Z</time>
      </trkpt>
      <trkpt lat="43.22602" lon="5.43809">
        <ele>167.89</ele>
        <time>2015-02-23T15:48:08Z</time>
      </trkpt>
      <trkpt lat="43.22605" lon="5.43807">
        <ele>167.89</ele>
        <time>2015-02-23T15:48:11Z</time>
      </trkpt>
      <trkpt lat="43.22618" lon="5.43804">
        <ele>168.37</ele>
        <time>2015-02-23T15:48:25Z</time>
      </trkpt>
      <trkpt lat="43.22622" lon="5.43802">
        <ele>168.37</ele>
        <time>2015-02-23T15:48:31Z</time>
      </trkpt>
      <trkpt lat="43.22627" lon="5.43799">
        <ele>168.85</ele>
        <time>2015-02-23T15:48:38Z</time>
      </trkpt>
      <trkpt lat="43.2263" lon="5.43798">
        <ele>168.85</ele>
        <time>2015-02-23T15:48:42Z</time>
      </trkpt>
      <trkpt lat="43.22643" lon="5.43789">
        <ele>168.37</ele>
        <time>2015-02-23T15:48:58Z</time>
      </trkpt>
      <trkpt lat="43.22656" lon="5.43783">
        <ele>168.37</ele>
        <time>2015-02-23T15:49:11Z</time>
      </trkpt>
      <trkpt lat="43.22656" lon="5.43782">
        <ele>167.89</ele>
        <time>2015-02-23T15:49:12Z</time>
      </trkpt>
      <trkpt lat="43.22668" lon="5.43775">
        <ele>167.89</ele>
        <time>2015-02-23T15:49:26Z</time>
      </trkpt>
      <trkpt lat="43.22675" lon="5.4377">
        <ele>166.45</ele>
        <time>2015-02-23T15:49:38Z</time>
      </trkpt>
      <trkpt lat="43.22681" lon="5.43765">
        <ele>167.41</ele>
        <time>2015-02-23T15:49:48Z</time>
      </trkpt>
      <trkpt lat="43.22693" lon="5.43754">
        <ele>165.96</ele>
        <time>2015-02-23T15:50:01Z</time>
      </trkpt>
      <trkpt lat="43.22696" lon="5.43752">
        <ele>165.96</ele>
        <time>2015-02-23T15:50:05Z</time>
      </trkpt>
      <trkpt lat="43.22701" lon="5.43748">
        <ele>165.48</ele>
        <time>2015-02-23T15:50:12Z</time>
      </trkpt>
      <trkpt lat="43.22706" lon="5.43742">
        <ele>165.48</ele>
        <time>2015-02-23T15:50:21Z</time>
      </trkpt>
      <trkpt lat="43.22715" lon="5.43737">
        <ele>164.52</ele>
        <time>2015-02-23T15:50:35Z</time>
      </trkpt>
      <trkpt lat="43.22728" lon="5.43733">
        <ele>164.04</ele>
        <time>2015-02-23T15:50:50Z</time>
      </trkpt>
      <trkpt lat="43.22742" lon="5.43729">
        <ele>163.08</ele>
        <time>2015-02-23T15:51:08Z</time>
      </trkpt>
      <trkpt lat="43.2276" lon="5.43723">
        <ele>161.16</ele>
        <time>2015-02-23T15:51:22Z</time>
      </trkpt>
      <trkpt lat="43.22762" lon="5.43723">
        <ele>161.16</ele>
        <time>2015-02-23T15:51:26Z</time>
      </trkpt>
      <trkpt lat="43.22772" lon="5.43723">
        <ele>160.68</ele>
        <time>2015-02-23T15:51:35Z</time>
      </trkpt>
      <trkpt lat="43.22788" lon="5.43723">
        <ele>160.2</ele>
        <time>2015-02-23T15:51:51Z</time>
      </trkpt>
      <trkpt lat="43.22804" lon="5.43725">
        <ele>158.75</ele>
        <time>2015-02-23T15:52:07Z</time>
      </trkpt>
      <trkpt lat="43.22813" lon="5.43724">
        <ele>157.79</ele>
        <time>2015-02-23T15:52:19Z</time>
      </trkpt>
      <trkpt lat="43.2283" lon="5.43723">
        <ele>157.31</ele>
        <time>2015-02-23T15:52:35Z</time>
      </trkpt>
      <trkpt lat="43.22842" lon="5.43721">
        <ele>156.35</ele>
        <time>2015-02-23T15:52:50Z</time>
      </trkpt>
      <trkpt lat="43.2286" lon="5.4372">
        <ele>155.87</ele>
        <time>2015-02-23T15:53:04Z</time>
      </trkpt>
      <trkpt lat="43.22867" lon="5.43719">
        <ele>154.91</ele>
        <time>2015-02-23T15:53:12Z</time>
      </trkpt>
      <trkpt lat="43.22874" lon="5.43716">
        <ele>154.91</ele>
        <time>2015-02-23T15:53:22Z</time>
      </trkpt>
      <trkpt lat="43.22884" lon="5.43714">
        <ele>154.43</ele>
        <time>2015-02-23T15:53:36Z</time>
      </trkpt>
      <trkpt lat="43.22892" lon="5.43713">
        <ele>152.99</ele>
        <time>2015-02-23T15:53:44Z</time>
      </trkpt>
      <trkpt lat="43.22909" lon="5.43711">
        <ele>152.51</ele>
        <time>2015-02-23T15:54:01Z</time>
      </trkpt>
      <trkpt lat="43.2291" lon="5.43711">
        <ele>152.51</ele>
        <time>2015-02-23T15:54:02Z</time>
      </trkpt>
      <trkpt lat="43.22914" lon="5.43712">
        <ele>152.99</ele>
        <time>2015-02-23T15:54:06Z</time>
      </trkpt>
      <trkpt lat="43.22932" lon="5.43709">
        <ele>152.03</ele>
        <time>2015-02-23T15:54:23Z</time>
      </trkpt>
      <trkpt lat="43.22937" lon="5.43705">
        <ele>151.06</ele>
        <time>2015-02-23T15:54:39Z</time>
      </trkpt>
      <trkpt lat="43.22939" lon="5.43706">
        <ele>151.54</ele>
        <time>2015-02-23T15:55:06Z</time>
      </trkpt>
      <trkpt lat="43.22942" lon="5.43706">
        <ele>151.54</ele>
        <time>2015-02-23T15:55:08Z</time>
      </trkpt>
      <trkpt lat="43.22959" lon="5.4371">
        <ele>150.1</ele>
        <time>2015-02-23T15:55:26Z</time>
      </trkpt>
      <trkpt lat="43.22956" lon="5.43714">
        <ele>151.06</ele>
        <time>2015-02-23T15:55:45Z</time>
      </trkpt>
      <trkpt lat="43.2296" lon="5.43711">
        <ele>150.1</ele>
        <time>2015-02-23T15:55:51Z</time>
      </trkpt>
    </trkseg>
  </trk>
</gpx>